Logo
 


Wetterdaten - Sonntag, 20.06.2021 - Rheinberg-Annaberg     25 m ber NN private Wetterstation Rheinberg/Angaben ohne Gewhr!
Wetterdaten: aktuell Sonntag, 20.06.2021 23:09
Datum Zeit Temp. A. Feuchte A. Luftdruck Regen Wind Richtung Richtung Sonnenschein ET UV Solar Taupunkt Windchill Windben Empfang
20.06.2021 23:09 23,1 C 64 % 1006,1 hPa 0,0 l/m 9,7 km/h N-NW 344 0 min 0,000 mm 0,0 UV-I 0 W/m 15,9 C 22,1 C 11,5 km/h 100,00 %
20.06.2021 23:08 23,1 C 63 % 1006,1 hPa 0,0 l/m 11,8 km/h N-NO 12 0 min 0,000 mm 0,0 UV-I 0 W/m 15,7 C 21,6 C 17,2 km/h 96,15 %
20.06.2021 23:07 23,1 C 63 % 1006,1 hPa 0,0 l/m 15,3 km/h N 355 0 min 0,000 mm 0,0 UV-I 0 W/m 15,7 C 21,0 C 19,1 km/h 100,00 %
20.06.2021 23:06 23,1 C 63 % 1006,1 hPa 0,0 l/m 10,1 km/h N 351 0 min 0,000 mm 0,0 UV-I 0 W/m 15,7 C 22,0 C 17,2 km/h 100,00 %
20.06.2021 23:05 23,2 C 63 % 1006,1 hPa 0,0 l/m 12,4 km/h N 9 0 min 0,000 mm 0,0 UV-I 0 W/m 15,8 C 21,6 C 19,1 km/h 100,00 %
20.06.2021 23:04 23,2 C 63 % 1006,2 hPa 0,0 l/m 8,1 km/h N 360 0 min 0,000 mm 0,0 UV-I 0 W/m 15,8 C 22,7 C 9,6 km/h 96,30 %
20.06.2021 23:03 23,2 C 63 % 1006,1 hPa 0,0 l/m 11,1 km/h N 355 0 min 0,000 mm 0,0 UV-I 0 W/m 15,8 C 21,9 C 17,2 km/h 100,00 %
20.06.2021 23:02 23,2 C 63 % 1006,1 hPa 0,0 l/m 6,0 km/h N-NW 344 0 min 0,000 mm 0,0 UV-I 0 W/m 15,8 C 23,2 C 11,5 km/h 91,67 %
20.06.2021 23:01 23,2 C 63 % 1006,1 hPa 0,0 l/m 5,4 km/h N-NW 344 0 min 0,026 mm 0,0 UV-I 0 W/m 15,8 C 23,2 C 7,7 km/h 100,00 %
20.06.2021 23:00 23,2 C 63 % 1006,2 hPa 0,0 l/m 6,9 km/h N-NW 346 0 min 0,000 mm 0,0 UV-I 0 W/m 15,8 C 23,0 C 9,6 km/h 92,59 %
20.06.2021 22:59 23,1 C 63 % 1006,2 hPa 0,0 l/m 5,7 km/h N-NW 346 0 min 0,000 mm 0,0 UV-I 0 W/m 15,7 C 23,1 C 7,7 km/h 96,15 %
20.06.2021 22:58 23,1 C 63 % 1006,2 hPa 0,0 l/m 6,7 km/h N 360 0 min 0,000 mm 0,0 UV-I 0 W/m 15,7 C 23,0 C 9,6 km/h 96,30 %
20.06.2021 22:57 23,1 C 63 % 1006,2 hPa 0,0 l/m 5,9 km/h NW 326 0 min 0,000 mm 0,0 UV-I 0 W/m 15,7 C 23,1 C 9,6 km/h 90,91 %
20.06.2021 22:56 23,2 C 63 % 1006,2 hPa 0,0 l/m 4,2 km/h NW 310 0 min 0,000 mm 0,0 UV-I 0 W/m 15,8 C 23,2 C 7,7 km/h 100,00 %
20.06.2021 22:55 23,2 C 63 % 1006,2 hPa 0,0 l/m 3,6 km/h N-NW 344 0 min 0,000 mm 0,0 UV-I 0 W/m 15,8 C 23,2 C 7,7 km/h 95,65 %
20.06.2021 22:54 23,2 C 63 % 1006,3 hPa 0,0 l/m 5,6 km/h N-NW 344 0 min 0,000 mm 0,0 UV-I 0 W/m 15,8 C 23,2 C 9,6 km/h 100,00 %
20.06.2021 22:53 23,2 C 63 % 1006,3 hPa 0,0 l/m 3,6 km/h N-NW 343 0 min 0,000 mm 0,0 UV-I 0 W/m 15,8 C 23,2 C 5,7 km/h 97,37 %
20.06.2021 22:52 23,2 C 63 % 1006,3 hPa 0,0 l/m 3,5 km/h N-NW 343 0 min 0,000 mm 0,0 UV-I 0 W/m 15,8 C 23,2 C 5,7 km/h 100,00 %
20.06.2021 22:51 23,2 C 63 % 1006,3 hPa 0,0 l/m 5,5 km/h N-NW 343 0 min 0,000 mm 0,0 UV-I 0 W/m 15,8 C 23,2 C 9,6 km/h 95,83 %
20.06.2021 22:50 23,2 C 63 % 1006,3 hPa 0,0 l/m 3,6 km/h N-NW 342 0 min 0,000 mm 0,0 UV-I 0 W/m 15,8 C 23,2 C 5,7 km/h 92,86 %
20.06.2021 22:49 23,2 C 63 % 1006,3 hPa 0,0 l/m 3,2 km/h N-NW 343 0 min 0,000 mm 0,0 UV-I 0 W/m 15,8 C 23,2 C 5,7 km/h 96,30 %
20.06.2021 22:48 23,2 C 63 % 1006,3 hPa 0,0 l/m 4,1 km/h N-NW 346 0 min 0,000 mm 0,0 UV-I 0 W/m 15,8 C 23,2 C 5,7 km/h 95,65 %
20.06.2021 22:47 23,2 C 63 % 1006,4 hPa 0,0 l/m 3,6 km/h N-NW 346 0 min 0,000 mm 0,0 UV-I 0 W/m 15,8 C 23,2 C 7,7 km/h 100,00 %
20.06.2021 22:46 23,3 C 63 % 1006,4 hPa 0,0 l/m 4,1 km/h N-NW 346 0 min 0,000 mm 0,0 UV-I 0 W/m 15,9 C 23,3 C 5,7 km/h 95,65 %
20.06.2021 22:45 23,3 C 63 % 1006,4 hPa 0,0 l/m 4,0 km/h N-NW 346 0 min 0,000 mm 0,0 UV-I 0 W/m 15,9 C 23,3 C 5,7 km/h 100,00 %
20.06.2021 22:44 23,3 C 63 % 1006,4 hPa 0,0 l/m 3,0 km/h N-NW 346 0 min 0,000 mm 0,0 UV-I 0 W/m 15,9 C 23,3 C 5,7 km/h 95,65 %
20.06.2021 22:43 23,3 C 63 % 1006,4 hPa 0,0 l/m 3,8 km/h N-NW 346 0 min 0,000 mm 0,0 UV-I 0 W/m 15,9 C 23,3 C 5,7 km/h 96,30 %
20.06.2021 22:42 23,3 C 63 % 1006,4 hPa 0,0 l/m 3,1 km/h N-NW 346 0 min 0,000 mm 0,0 UV-I 0 W/m 15,9 C 23,3 C 5,7 km/h 100,00 %
20.06.2021 22:41 23,3 C 63 % 1006,4 hPa 0,0 l/m 3,1 km/h N-NW 346 0 min 0,000 mm 0,0 UV-I 0 W/m 15,9 C 23,3 C 5,7 km/h 96,30 %
20.06.2021 22:40 23,3 C 63 % 1006,4 hPa 0,0 l/m 3,9 km/h N-NW 346 0 min 0,000 mm 0,0 UV-I 0 W/m 15,9 C 23,3 C 5,7 km/h 100,00 %
20.06.2021 22:39 23,3 C 63 % 1006,4 hPa 0,0 l/m 4,7 km/h N-NW 346 0 min 0,000 mm 0,0 UV-I 0 W/m 15,9 C 23,3 C 7,7 km/h 95,83 %
20.06.2021 22:38 23,3 C 63 % 1006,5 hPa 0,0 l/m 4,9 km/h N 355 0 min 0,000 mm 0,0 UV-I 0 W/m 15,9 C 23,3 C 7,7 km/h 100,00 %
20.06.2021 22:37 23,3 C 63 % 1006,5 hPa 0,0 l/m 3,9 km/h N 350 0 min 0,000 mm 0,0 UV-I 0 W/m 15,9 C 23,3 C 5,7 km/h 96,30 %
20.06.2021 22:36 23,4 C 63 % 1006,5 hPa 0,0 l/m 5,5 km/h N 360 0 min 0,000 mm 0,0 UV-I 0 W/m 15,9 C 23,4 C 9,6 km/h 100,00 %
20.06.2021 22:35 23,4 C 63 % 1006,5 hPa 0,0 l/m 3,3 km/h N 360 0 min 0,000 mm 0,0 UV-I 0 W/m 15,9 C 23,4 C 5,7 km/h 95,83 %
20.06.2021 22:34 23,4 C 63 % 1006,5 hPa 0,0 l/m 5,1 km/h N 360 0 min 0,000 mm 0,0 UV-I 0 W/m 15,9 C 23,4 C 7,7 km/h 91,30 %
20.06.2021 22:33 23,4 C 63 % 1006,6 hPa 0,0 l/m 4,5 km/h N 360 0 min 0,000 mm 0,0 UV-I 0 W/m 15,9 C 23,4 C 5,7 km/h 100,00 %
20.06.2021 22:32 23,4 C 63 % 1006,6 hPa 0,0 l/m 6,8 km/h N 360 0 min 0,000 mm 0,0 UV-I 0 W/m 15,9 C 23,3 C 11,5 km/h 100,00 %
20.06.2021 22:31 23,4 C 63 % 1006,7 hPa 0,0 l/m 3,4 km/h N 355 0 min 0,000 mm 0,0 UV-I 0 W/m 15,9 C 23,4 C 5,7 km/h 96,55 %
20.06.2021 22:30 23,4 C 63 % 1006,6 hPa 0,0 l/m 3,4 km/h N 355 0 min 0,000 mm 0,0 UV-I 0 W/m 15,9 C 23,4 C 5,7 km/h 96,30 %
20.06.2021 22:29 23,4 C 63 % 1006,7 hPa 0,0 l/m 4,8 km/h N 355 0 min 0,000 mm 0,0 UV-I 0 W/m 15,9 C 23,4 C 7,7 km/h 100,00 %
20.06.2021 22:28 23,4 C 63 % 1006,7 hPa 0,0 l/m 3,9 km/h N 355 0 min 0,000 mm 0,0 UV-I 0 W/m 15,9 C 23,4 C 5,7 km/h 91,67 %
20.06.2021 22:27 23,4 C 63 % 1006,7 hPa 0,0 l/m 3,7 km/h N 355 0 min 0,000 mm 0,0 UV-I 0 W/m 15,9 C 23,4 C 5,7 km/h 100,00 %
20.06.2021 22:26 23,4 C 63 % 1006,7 hPa 0,0 l/m 3,8 km/h N 355 0 min 0,000 mm 0,0 UV-I 0 W/m 15,9 C 23,4 C 5,7 km/h 96,30 %
20.06.2021 22:25 23,4 C 63 % 1006,7 hPa 0,0 l/m 5,2 km/h N 355 0 min 0,000 mm 0,0 UV-I 0 W/m 15,9 C 23,4 C 7,7 km/h 100,00 %
20.06.2021 22:24 23,4 C 63 % 1006,8 hPa 0,0 l/m 4,2 km/h N 355 0 min 0,000 mm 0,0 UV-I 0 W/m 15,9 C 23,4 C 5,7 km/h 95,83 %
20.06.2021 22:23 23,4 C 64 % 1006,8 hPa 0,0 l/m 2,6 km/h N 355 0 min 0,000 mm 0,0 UV-I 0 W/m 16,2 C 23,4 C 5,7 km/h 95,65 %
20.06.2021 22:22 23,4 C 64 % 1006,8 hPa 0,0 l/m 3,3 km/h N 355 0 min 0,000 mm 0,0 UV-I 0 W/m 16,2 C 23,4 C 5,7 km/h 100,00 %
20.06.2021 22:21 23,4 C 64 % 1006,7 hPa 0,0 l/m 3,4 km/h N 355 0 min 0,000 mm 0,0 UV-I 0 W/m 16,2 C 23,4 C 3,8 km/h 95,65 %
20.06.2021 22:20 23,5 C 64 % 1006,7 hPa 0,0 l/m 4,5 km/h N 355 0 min 0,000 mm 0,0 UV-I 0 W/m 16,3 C 23,5 C 5,7 km/h 100,00 %
20.06.2021 22:19 23,5 C 64 % 1006,7 hPa 0,0 l/m 5,2 km/h N 355 0 min 0,000 mm 0,0 UV-I 0 W/m 16,3 C 23,5 C 7,7 km/h 96,55 %
20.06.2021 22:18 23,5 C 64 % 1006,7 hPa 0,0 l/m 2,5 km/h N 355 0 min 0,000 mm 0,0 UV-I 0 W/m 16,3 C 23,5 C 3,8 km/h 100,00 %
20.06.2021 22:17 23,5 C 64 % 1006,7 hPa 0,0 l/m 2,4 km/h N 355 0 min 0,000 mm 0,0 UV-I 0 W/m 16,3 C 23,5 C 3,8 km/h 95,83 %
20.06.2021 22:16 23,6 C 64 % 1006,7 hPa 0,0 l/m 5,6 km/h N 355 0 min 0,000 mm 0,0 UV-I 0 W/m 16,4 C 23,6 C 9,6 km/h 100,00 %
20.06.2021 22:15 23,6 C 64 % 1006,6 hPa 0,0 l/m 5,2 km/h N 355 0 min 0,000 mm 0,0 UV-I 0 W/m 16,4 C 23,6 C 7,7 km/h 95,83 %
20.06.2021 22:14 23,6 C 64 % 1006,6 hPa 0,0 l/m 3,8 km/h N 355 0 min 0,000 mm 0,0 UV-I 0 W/m 16,4 C 23,6 C 5,7 km/h 96,15 %
20.06.2021 22:13 23,6 C 64 % 1006,6 hPa 0,0 l/m 3,1 km/h N 355 0 min 0,000 mm 0,0 UV-I 0 W/m 16,4 C 23,6 C 3,8 km/h 97,73 %
20.06.2021 22:12 23,6 C 64 % 1006,6 hPa 0,0 l/m 4,5 km/h N 355 0 min 0,000 mm 0,0 UV-I 0 W/m 16,4 C 23,6 C 5,7 km/h 99,02 %
20.06.2021 22:11 23,6 C 64 % 1006,6 hPa 0,0 l/m 4,1 km/h N 355 0 min 0,000 mm 0,0 UV-I 0 W/m 16,4 C 23,6 C 5,7 km/h 100,00 %
20.06.2021 22:10 23,6 C 63 % 1006,6 hPa 0,0 l/m 3,0 km/h N 355 0 min 0,000 mm 0,0 UV-I 0 W/m 16,1 C 23,6 C 5,7 km/h 97,44 %
20.06.2021 22:09 23,6 C 63 % 1006,7 hPa 0,0 l/m 5,2 km/h N 355 0 min 0,000 mm 0,0 UV-I 0 W/m 16,1 C 23,6 C 7,7 km/h 100,00 %
20.06.2021 22:08 23,6 C 63 % 1006,6 hPa 0,0 l/m 5,3 km/h N 355 0 min 0,000 mm 0,0 UV-I 0 W/m 16,1 C 23,6 C 7,7 km/h 95,65 %
20.06.2021 22:07 23,6 C 63 % 1006,7 hPa 0,0 l/m 3,7 km/h N 355 0 min 0,000 mm 0,0 UV-I 0 W/m 16,1 C 23,6 C 5,7 km/h 95,45 %
20.06.2021 22:06 23,7 C 63 % 1006,6 hPa 0,0 l/m 4,3 km/h N 355 0 min 0,000 mm 0,0 UV-I 0 W/m 16,2 C 23,7 C 7,7 km/h 99,03 %
20.06.2021 22:05 23,7 C 63 % 1006,7 hPa 0,0 l/m 7,4 km/h N 355 0 min 0,000 mm 0,0 UV-I 0 W/m 16,2 C 23,4 C 9,6 km/h 95,83 %
20.06.2021 22:04 23,7 C 62 % 1006,7 hPa 0,0 l/m 7,4 km/h N 355 0 min 0,000 mm 0,0 UV-I 0 W/m 16,0 C 23,4 C 9,6 km/h 100,00 %
20.06.2021 22:03 23,7 C 62 % 1006,6 hPa 0,0 l/m 6,5 km/h N 355 0 min 0,000 mm 0,0 UV-I 0 W/m 16,0 C 23,7 C 7,7 km/h 95,83 %
20.06.2021 22:02 23,7 C 62 % 1006,7 hPa 0,0 l/m 6,1 km/h N 355 0 min 0,000 mm 0,0 UV-I 0 W/m 16,0 C 23,7 C 7,7 km/h 100,00 %
20.06.2021 22:01 23,8 C 62 % 1006,6 hPa 0,0 l/m 6,7 km/h N 355 0 min 0,050 mm 0,0 UV-I 0 W/m 16,1 C 23,7 C 9,6 km/h 96,30 %
20.06.2021 22:00 23,8 C 63 % 1006,6 hPa 0,0 l/m 3,3 km/h N 360 0 min 0,000 mm 0,0 UV-I 0 W/m 16,3 C 23,8 C 5,7 km/h 91,67 %
20.06.2021 21:59 23,8 C 62 % 1006,6 hPa 0,0 l/m 4,3 km/h N 360 0 min 0,000 mm 0,0 UV-I 0 W/m 16,1 C 23,8 C 5,7 km/h 96,55 %
20.06.2021 21:58 23,8 C 62 % 1006,6 hPa 0,0 l/m 6,7 km/h N 360 0 min 0,000 mm 0,0 UV-I 0 W/m 16,1 C 23,7 C 11,5 km/h 95,65 %
20.06.2021 21:57 23,8 C 62 % 1006,6 hPa 0,0 l/m 2,9 km/h N 355 0 min 0,000 mm 0,0 UV-I 0 W/m 16,1 C 23,8 C 5,7 km/h 100,00 %
20.06.2021 21:56 23,8 C 62 % 1006,6 hPa 0,0 l/m 4,1 km/h N 355 0 min 0,000 mm 0,0 UV-I 0 W/m 16,1 C 23,8 C 5,7 km/h 100,00 %
20.06.2021 21:55 23,8 C 62 % 1006,6 hPa 0,0 l/m 4,4 km/h N 355 0 min 0,000 mm 0,0 UV-I 0 W/m 16,1 C 23,8 C 5,7 km/h 95,83 %
20.06.2021 21:54 23,8 C 62 % 1006,6 hPa 0,0 l/m 4,1 km/h N 355 0 min 0,000 mm 0,0 UV-I 0 W/m 16,1 C 23,8 C 7,7 km/h 100,00 %
20.06.2021 21:53 23,9 C 62 % 1006,6 hPa 0,0 l/m 4,1 km/h N 355 0 min 0,000 mm 0,0 UV-I 0 W/m 16,2 C 23,9 C 7,7 km/h 100,00 %
20.06.2021 21:52 23,9 C 61 % 1006,6 hPa 0,0 l/m 4,7 km/h N 355 0 min 0,000 mm 0,0 UV-I 0 W/m 15,9 C 23,9 C 7,7 km/h 100,00 %
20.06.2021 21:51 23,9 C 61 % 1006,7 hPa 0,0 l/m 6,3 km/h N 355 0 min 0,000 mm 0,0 UV-I 0 W/m 15,9 C 23,9 C 9,6 km/h 100,00 %
20.06.2021 21:50 23,9 C 61 % 1006,6 hPa 0,0 l/m 3,6 km/h N 355 0 min 0,000 mm 0,0 UV-I 0 W/m 15,9 C 23,9 C 5,7 km/h 100,00 %
20.06.2021 21:49 23,9 C 61 % 1006,6 hPa 0,0 l/m 4,0 km/h N 355 0 min 0,000 mm 0,0 UV-I 0 W/m 15,9 C 23,9 C 5,7 km/h 95,65 %
20.06.2021 21:48 23,9 C 61 % 1006,6 hPa 0,0 l/m 4,5 km/h N 355 0 min 0,000 mm 0,0 UV-I 0 W/m 15,9 C 23,9 C 7,7 km/h 100,00 %
20.06.2021 21:47 23,9 C 61 % 1006,6 hPa 0,0 l/m 5,7 km/h N 355 0 min 0,000 mm 0,0 UV-I 3 W/m 15,9 C 23,9 C 7,7 km/h 100,00 %
20.06.2021 21:46 23,9 C 61 % 1006,5 hPa 0,0 l/m 3,5 km/h N 355 0 min 0,000 mm 0,0 UV-I 5 W/m 15,9 C 23,9 C 5,7 km/h 100,00 %
20.06.2021 21:45 24,0 C 61 % 1006,6 hPa 0,0 l/m 5,5 km/h N 355 0 min 0,000 mm 0,0 UV-I 5 W/m 16,0 C 24,0 C 7,7 km/h 100,00 %
20.06.2021 21:44 24,0 C 61 % 1006,6 hPa 0,0 l/m 4,6 km/h N 355 0 min 0,000 mm 0,0 UV-I 5 W/m 16,0 C 24,0 C 7,7 km/h 100,00 %
20.06.2021 21:43 24,0 C 61 % 1006,6 hPa 0,0 l/m 6,4 km/h N 355 0 min 0,000 mm 0,0 UV-I 5 W/m 16,0 C 24,0 C 9,6 km/h 95,65 %
20.06.2021 21:42 24,1 C 60 % 1006,6 hPa 0,0 l/m 2,9 km/h N 355 0 min 0,000 mm 0,0 UV-I 6 W/m 15,8 C 24,1 C 3,8 km/h 100,00 %
20.06.2021 21:41 24,1 C 60 % 1006,6 hPa 0,0 l/m 4,1 km/h N 355 0 min 0,000 mm 0,0 UV-I 7 W/m 15,8 C 24,1 C 5,7 km/h 100,00 %
20.06.2021 21:40 24,1 C 60 % 1006,6 hPa 0,0 l/m 5,6 km/h N 355 0 min 0,000 mm 0,0 UV-I 7 W/m 15,8 C 24,1 C 7,7 km/h 100,00 %
20.06.2021 21:39 24,1 C 60 % 1006,6 hPa 0,0 l/m 4,1 km/h N 355 0 min 0,000 mm 0,0 UV-I 7 W/m 15,8 C 24,1 C 5,7 km/h 96,55 %
20.06.2021 21:38 24,2 C 60 % 1006,6 hPa 0,0 l/m 3,8 km/h N 355 0 min 0,000 mm 0,0 UV-I 7 W/m 15,9 C 24,2 C 5,7 km/h 100,00 %
20.06.2021 21:37 24,2 C 60 % 1006,6 hPa 0,0 l/m 3,0 km/h N 355 0 min 0,000 mm 0,0 UV-I 7 W/m 15,9 C 24,2 C 3,8 km/h 100,00 %
20.06.2021 21:36 24,2 C 59 % 1006,5 hPa 0,0 l/m 4,5 km/h N 355 0 min 0,000 mm 0,0 UV-I 7 W/m 15,7 C 24,2 C 7,7 km/h 100,00 %
20.06.2021 21:35 24,2 C 59 % 1006,5 hPa 0,0 l/m 4,3 km/h N 355 0 min 0,000 mm 0,0 UV-I 7 W/m 15,7 C 24,2 C 5,7 km/h 100,00 %
20.06.2021 21:34 24,3 C 59 % 1006,5 hPa 0,0 l/m 4,1 km/h N 355 0 min 0,000 mm 0,0 UV-I 7 W/m 15,8 C 24,3 C 5,7 km/h 100,00 %
20.06.2021 21:33 24,3 C 59 % 1006,5 hPa 0,0 l/m 3,7 km/h N 355 0 min 0,000 mm 0,0 UV-I 7 W/m 15,8 C 24,3 C 5,7 km/h 95,83 %
20.06.2021 21:32 24,3 C 59 % 1006,5 hPa 0,0 l/m 4,2 km/h N 355 0 min 0,000 mm 0,0 UV-I 7 W/m 15,8 C 24,3 C 5,7 km/h 100,00 %
20.06.2021 21:31 24,3 C 59 % 1006,5 hPa 0,0 l/m 3,0 km/h N 355 0 min 0,000 mm 0,0 UV-I 7 W/m 15,8 C 24,3 C 5,7 km/h 100,00 %
20.06.2021 21:30 24,3 C 59 % 1006,6 hPa 0,0 l/m 3,3 km/h N 355 0 min 0,000 mm 0,0 UV-I 8 W/m 15,8 C 24,3 C 5,7 km/h 100,00 %
20.06.2021 21:29 24,3 C 59 % 1006,6 hPa 0,0 l/m 2,9 km/h N 355 0 min 0,000 mm 0,0 UV-I 9 W/m 15,8 C 24,3 C 3,8 km/h 93,33 %
20.06.2021 21:28 24,3 C 59 % 1006,5 hPa 0,0 l/m 3,4 km/h N 355 0 min 0,000 mm 0,0 UV-I 9 W/m 15,8 C 24,3 C 5,7 km/h 100,00 %
20.06.2021 21:27 24,3 C 58 % 1006,6 hPa 0,0 l/m 4,8 km/h N 355 0 min 0,000 mm 0,0 UV-I 9 W/m 15,5 C 24,3 C 5,7 km/h 100,00 %
20.06.2021 21:26 24,3 C 58 % 1006,6 hPa 0,0 l/m 5,7 km/h N 355 0 min 0,000 mm 0,0 UV-I 11 W/m 15,5 C 24,3 C 7,7 km/h 96,15 %
20.06.2021 21:25 24,3 C 58 % 1006,6 hPa 0,0 l/m 5,5 km/h N 355 0 min 0,000 mm 0,0 UV-I 11 W/m 15,5 C 24,3 C 7,7 km/h 100,00 %
20.06.2021 21:24 24,3 C 59 % 1006,7 hPa 0,0 l/m 4,7 km/h N 355 0 min 0,000 mm 0,0 UV-I 12 W/m 15,8 C 24,3 C 7,7 km/h 100,00 %
20.06.2021 21:23 24,4 C 58 % 1006,6 hPa 0,0 l/m 4,7 km/h N 355 0 min 0,000 mm 0,0 UV-I 13 W/m 15,6 C 24,4 C 7,7 km/h 100,00 %
20.06.2021 21:22 24,4 C 58 % 1006,6 hPa 0,0 l/m 5,6 km/h N 355 0 min 0,000 mm 0,0 UV-I 16 W/m 15,6 C 24,4 C 9,6 km/h 100,00 %
20.06.2021 21:21 24,4 C 58 % 1006,6 hPa 0,0 l/m 5,2 km/h N 355 0 min 0,000 mm 0,0 UV-I 18 W/m 15,6 C 24,4 C 7,7 km/h 100,00 %
20.06.2021 21:20 24,4 C 58 % 1006,6 hPa 0,0 l/m 5,9 km/h N 355 0 min 0,000 mm 0,0 UV-I 19 W/m 15,6 C 24,4 C 7,7 km/h 95,65 %
20.06.2021 21:19 24,4 C 58 % 1006,6 hPa 0,0 l/m 3,7 km/h N 355 0 min 0,000 mm 0,0 UV-I 20 W/m 15,6 C 24,4 C 7,7 km/h 100,00 %
20.06.2021 21:18 24,4 C 58 % 1006,5 hPa 0,0 l/m 4,1 km/h N 355 0 min 0,000 mm 0,0 UV-I 22 W/m 15,6 C 24,4 C 7,7 km/h 100,00 %
20.06.2021 21:17 24,5 C 58 % 1006,6 hPa 0,0 l/m 6,1 km/h N 355 0 min 0,000 mm 0,0 UV-I 24 W/m 15,7 C 24,5 C 9,6 km/h 100,00 %
20.06.2021 21:16 24,5 C 58 % 1006,6 hPa 0,0 l/m 3,7 km/h N 355 0 min 0,000 mm 0,0 UV-I 25 W/m 15,7 C 24,5 C 5,7 km/h 100,00 %
20.06.2021 21:15 24,5 C 58 % 1006,6 hPa 0,0 l/m 3,9 km/h N 355 0 min 0,000 mm 0,0 UV-I 25 W/m 15,7 C 24,5 C 5,7 km/h 100,00 %
20.06.2021 21:14 24,6 C 58 % 1006,6 hPa 0,0 l/m 4,1 km/h N 355 0 min 0,000 mm 0,0 UV-I 26 W/m 15,8 C 24,6 C 7,7 km/h 100,00 %
20.06.2021 21:13 24,6 C 58 % 1006,6 hPa 0,0 l/m 5,0 km/h N 355 0 min 0,000 mm 0,0 UV-I 26 W/m 15,8 C 24,6 C 7,7 km/h 95,65 %
20.06.2021 21:12 24,6 C 58 % 1006,6 hPa 0,0 l/m 3,5 km/h N 355 0 min 0,000 mm 0,0 UV-I 26 W/m 15,8 C 24,6 C 5,7 km/h 100,00 %
20.06.2021 21:11 24,6 C 58 % 1006,6 hPa 0,0 l/m 4,8 km/h N 355 0 min 0,000 mm 0,0 UV-I 26 W/m 15,8 C 24,6 C 7,7 km/h 99,04 %
20.06.2021 21:10 24,6 C 58 % 1006,6 hPa 0,0 l/m 4,3 km/h N 355 0 min 0,000 mm 0,0 UV-I 26 W/m 15,8 C 24,6 C 5,7 km/h 100,00 %
20.06.2021 21:09 24,6 C 58 % 1006,6 hPa 0,0 l/m 4,9 km/h N 355 0 min 0,000 mm 0,0 UV-I 26 W/m 15,8 C 24,6 C 5,7 km/h 95,65 %
20.06.2021 21:08 24,6 C 58 % 1006,5 hPa 0,0 l/m 3,0 km/h N 355 0 min 0,000 mm 0,0 UV-I 25 W/m 15,8 C 24,6 C 5,7 km/h 100,00 %
20.06.2021 21:07 24,6 C 58 % 1006,5 hPa 0,0 l/m 5,3 km/h N 355 0 min 0,000 mm 0,0 UV-I 25 W/m 15,8 C 24,6 C 7,7 km/h 100,00 %
20.06.2021 21:06 24,7 C 58 % 1006,5 hPa 0,0 l/m 6,9 km/h N 355 0 min 0,000 mm 0,0 UV-I 25 W/m 15,9 C 24,6 C 9,6 km/h 100,00 %
20.06.2021 21:05 24,7 C 57 % 1006,5 hPa 0,0 l/m 5,6 km/h N 355 0 min 0,000 mm 0,0 UV-I 26 W/m 15,6 C 24,7 C 9,6 km/h 100,00 %
20.06.2021 21:04 24,7 C 57 % 1006,5 hPa 0,0 l/m 5,7 km/h N 355 0 min 0,000 mm 0,0 UV-I 26 W/m 15,6 C 24,7 C 7,7 km/h 96,00 %
20.06.2021 21:03 24,7 C 57 % 1006,5 hPa 0,0 l/m 7,0 km/h N 355 0 min 0,000 mm 0,0 UV-I 28 W/m 15,6 C 24,5 C 9,6 km/h 100,00 %
20.06.2021 21:02 24,7 C 57 % 1006,5 hPa 0,0 l/m 5,9 km/h N 355 0 min 0,000 mm 0,0 UV-I 30 W/m 15,6 C 24,7 C 9,6 km/h 93,94 %
20.06.2021 21:01 24,8 C 57 % 1006,6 hPa 0,0 l/m 6,5 km/h N 355 0 min 0,051 mm 0,0 UV-I 30 W/m 15,7 C 24,8 C 7,7 km/h 100,00 %
20.06.2021 21:00 24,8 C 57 % 1006,6 hPa 0,0 l/m 7,6 km/h N 355 0 min 0,000 mm 0,0 UV-I 31 W/m 15,7 C 24,5 C 9,6 km/h 100,00 %
20.06.2021 20:59 24,8 C 56 % 1006,6 hPa 0,0 l/m 5,9 km/h N 355 0 min 0,000 mm 0,0 UV-I 32 W/m 15,4 C 24,8 C 7,7 km/h 100,00 %
20.06.2021 20:58 24,8 C 56 % 1006,6 hPa 0,0 l/m 6,9 km/h N 355 0 min 0,000 mm 0,0 UV-I 33 W/m 15,4 C 24,7 C 9,6 km/h 100,00 %
20.06.2021 20:57 24,8 C 56 % 1006,6 hPa 0,0 l/m 6,0 km/h N 355 0 min 0,000 mm 0,0 UV-I 33 W/m 15,4 C 24,8 C 9,6 km/h 100,00 %
20.06.2021 20:56 24,8 C 56 % 1006,5 hPa 0,0 l/m 5,3 km/h N 355 0 min 0,000 mm 0,0 UV-I 35 W/m 15,4 C 24,8 C 7,7 km/h 100,00 %
20.06.2021 20:55 24,8 C 56 % 1006,5 hPa 0,0 l/m 3,6 km/h N 355 0 min 0,000 mm 0,0 UV-I 36 W/m 15,4 C 24,8 C 5,7 km/h 100,00 %
20.06.2021 20:54 24,9 C 56 % 1006,5 hPa 0,0 l/m 5,4 km/h N 355 0 min 0,000 mm 0,0 UV-I 38 W/m 15,5 C 24,9 C 7,7 km/h 100,00 %
20.06.2021 20:53 24,9 C 56 % 1006,5 hPa 0,0 l/m 6,5 km/h N 355 0 min 0,000 mm 0,0 UV-I 40 W/m 15,5 C 24,9 C 7,7 km/h 100,00 %
20.06.2021 20:52 24,9 C 56 % 1006,4 hPa 0,0 l/m 5,4 km/h N 355 0 min 0,000 mm 0,0 UV-I 42 W/m 15,5 C 24,9 C 7,7 km/h 95,83 %
20.06.2021 20:51 24,9 C 55 % 1006,5 hPa 0,0 l/m 4,4 km/h N-NW 341 0 min 0,000 mm 0,0 UV-I 44 W/m 15,2 C 24,9 C 5,7 km/h 100,00 %
20.06.2021 20:50 24,9 C 56 % 1006,4 hPa 0,0 l/m 1,4 km/h N-NW 341 0 min 0,000 mm 0,0 UV-I 44 W/m 15,5 C 24,9 C 1,9 km/h 100,00 %
20.06.2021 20:49 24,9 C 55 % 1006,4 hPa 0,0 l/m 2,2 km/h N-NW 341 0 min 0,000 mm 0,0 UV-I 44 W/m 15,2 C 24,9 C 3,8 km/h 100,00 %
20.06.2021 20:48 25,0 C 55 % 1006,3 hPa 0,0 l/m 6,1 km/h N-NW 341 0 min 0,000 mm 0,0 UV-I 43 W/m 15,3 C 25,0 C 9,6 km/h 100,00 %
20.06.2021 20:47 25,0 C 55 % 1006,4 hPa 0,0 l/m 2,9 km/h W-NW 297 0 min 0,000 mm 0,0 UV-I 42 W/m 15,3 C 25,0 C 5,7 km/h 100,00 %
20.06.2021 20:46 25,0 C 55 % 1006,4 hPa 0,0 l/m 3,4 km/h SW 231 0 min 0,000 mm 0,0 UV-I 40 W/m 15,3 C 25,0 C 5,7 km/h 100,00 %
20.06.2021 20:45 25,1 C 55 % 1006,4 hPa 0,0 l/m 3,6 km/h SW 231 0 min 0,000 mm 0,0 UV-I 40 W/m 15,4 C 25,1 C 5,7 km/h 100,00 %
20.06.2021 20:44 25,1 C 55 % 1006,5 hPa 0,0 l/m 1,8 km/h SW 231 0 min 0,000 mm 0,0 UV-I 40 W/m 15,4 C 25,1 C 3,8 km/h 100,00 %
20.06.2021 20:43 25,1 C 55 % 1006,5 hPa 0,0 l/m 1,7 km/h SW 231 0 min 0,000 mm 0,0 UV-I 39 W/m 15,4 C 25,1 C 3,8 km/h 100,00 %
20.06.2021 20:42 25,1 C 54 % 1006,5 hPa 0,0 l/m 2,3 km/h SW 231 0 min 0,000 mm 0,0 UV-I 40 W/m 15,1 C 25,1 C 3,8 km/h 100,00 %
20.06.2021 20:41 25,1 C 54 % 1006,5 hPa 0,0 l/m 1,5 km/h SW 230 0 min 0,000 mm 0,0 UV-I 41 W/m 15,1 C 25,1 C 3,8 km/h 96,30 %
20.06.2021 20:40 25,1 C 54 % 1006,4 hPa 0,0 l/m 2,3 km/h SW 231 0 min 0,000 mm 0,0 UV-I 44 W/m 15,1 C 25,1 C 3,8 km/h 100,00 %
20.06.2021 20:39 25,1 C 53 % 1006,5 hPa 0,0 l/m 2,5 km/h SW 230 0 min 0,000 mm 0,0 UV-I 46 W/m 14,8 C 25,1 C 3,8 km/h 100,00 %
20.06.2021 20:38 25,1 C 53 % 1006,4 hPa 0,0 l/m 2,9 km/h SW 230 0 min 0,000 mm 0,0 UV-I 48 W/m 14,8 C 25,1 C 5,7 km/h 100,00 %
20.06.2021 20:37 25,1 C 54 % 1006,4 hPa 0,0 l/m 2,1 km/h SW 230 0 min 0,000 mm 0,0 UV-I 52 W/m 15,1 C 25,1 C 3,8 km/h 100,00 %
20.06.2021 20:36 25,0 C 54 % 1006,3 hPa 0,0 l/m 2,1 km/h SW 230 0 min 0,000 mm 0,0 UV-I 53 W/m 15,0 C 25,0 C 3,8 km/h 100,00 %
20.06.2021 20:35 25,0 C 54 % 1006,3 hPa 0,0 l/m 2,6 km/h SW 230 0 min 0,000 mm 0,0 UV-I 54 W/m 15,0 C 25,0 C 3,8 km/h 95,65 %
20.06.2021 20:34 25,0 C 54 % 1006,3 hPa 0,0 l/m 3,5 km/h SW 230 0 min 0,000 mm 0,0 UV-I 56 W/m 15,0 C 25,0 C 5,7 km/h 100,00 %
20.06.2021 20:33 24,9 C 54 % 1006,2 hPa 0,0 l/m 0,6 km/h SW 230 0 min 0,000 mm 0,0 UV-I 56 W/m 14,9 C 24,9 C 3,8 km/h 100,00 %
20.06.2021 20:32 24,9 C 54 % 1006,2 hPa 0,0 l/m 0,0 km/h SW 230 0 min 0,000 mm 0,0 UV-I 58 W/m 14,9 C 24,9 C 0,0 km/h 100,00 %
20.06.2021 20:31 24,9 C 55 % 1006,2 hPa 0,0 l/m 0,0 km/h SW 230 0 min 0,000 mm 0,0 UV-I 58 W/m 15,2 C 24,9 C 0,0 km/h 94,12 %
20.06.2021 20:30 25,0 C 56 % 1006,2 hPa 0,0 l/m 0,0 km/h SW 230 0 min 0,000 mm 0,0 UV-I 59 W/m 15,6 C 25,0 C 0,0 km/h 100,00 %
20.06.2021 20:29 25,0 C 56 % 1006,2 hPa 0,0 l/m 0,0 km/h SW 230 0 min 0,000 mm 0,0 UV-I 60 W/m 15,6 C 25,0 C 0,0 km/h 100,00 %
20.06.2021 20:28 25,0 C 55 % 1006,2 hPa 0,0 l/m 0,0 km/h SW 230 0 min 0,000 mm 0,0 UV-I 60 W/m 15,3 C 25,0 C 0,0 km/h 100,00 %
20.06.2021 20:27 25,0 C 55 % 1006,3 hPa 0,0 l/m 0,0 km/h SW 230 0 min 0,000 mm 0,0 UV-I 60 W/m 15,3 C 25,0 C 0,0 km/h 100,00 %
20.06.2021 20:26 25,1 C 55 % 1006,2 hPa 0,0 l/m 0,0 km/h SW 230 0 min 0,000 mm 0,0 UV-I 62 W/m 15,4 C 25,1 C 0,0 km/h 100,00 %
20.06.2021 20:25 25,1 C 55 % 1006,2 hPa 0,0 l/m 0,0 km/h SW 230 0 min 0,000 mm 0,0 UV-I 62 W/m 15,4 C 25,1 C 0,0 km/h 100,00 %
20.06.2021 20:24 25,1 C 55 % 1006,3 hPa 0,0 l/m 0,0 km/h SW 230 0 min 0,000 mm 0,0 UV-I 62 W/m 15,4 C 25,1 C 0,0 km/h 100,00 %
20.06.2021 20:23 25,1 C 54 % 1006,3 hPa 0,0 l/m 0,0 km/h SW 230 0 min 0,000 mm 0,0 UV-I 62 W/m 15,1 C 25,1 C 0,0 km/h 100,00 %
20.06.2021 20:22 25,1 C 54 % 1006,3 hPa 0,0 l/m 0,7 km/h SW 230 0 min 0,000 mm 0,0 UV-I 60 W/m 15,1 C 25,1 C 1,9 km/h 100,00 %
20.06.2021 20:21 25,2 C 55 % 1006,2 hPa 0,0 l/m 0,7 km/h SW 230 0 min 0,000 mm 0,0 UV-I 59 W/m 15,5 C 25,2 C 1,9 km/h 100,00 %
20.06.2021 20:20 25,2 C 54 % 1006,2 hPa 0,0 l/m 1,0 km/h SW 230 0 min 0,000 mm 0,0 UV-I 57 W/m 15,2 C 25,2 C 1,9 km/h 100,00 %
20.06.2021 20:19 25,2 C 54 % 1006,2 hPa 0,0 l/m 1,4 km/h SW 230 0 min 0,000 mm 0,0 UV-I 56 W/m 15,2 C 25,2 C 3,8 km/h 100,00 %
20.06.2021 20:18 25,2 C 55 % 1006,3 hPa 0,0 l/m 3,1 km/h SW 230 0 min 0,000 mm 0,0 UV-I 55 W/m 15,5 C 25,2 C 5,7 km/h 100,00 %
20.06.2021 20:17 25,3 C 54 % 1006,3 hPa 0,0 l/m 1,5 km/h SW 230 0 min 0,000 mm 0,0 UV-I 54 W/m 15,3 C 25,3 C 3,8 km/h 100,00 %
20.06.2021 20:16 25,3 C 54 % 1006,3 hPa 0,0 l/m 1,5 km/h SW 230 0 min 0,000 mm 0,0 UV-I 54 W/m 15,3 C 25,3 C 3,8 km/h 96,15 %
20.06.2021 20:15 25,3 C 54 % 1006,4 hPa 0,0 l/m 1,9 km/h SW 230 0 min 0,000 mm 0,0 UV-I 54 W/m 15,3 C 25,3 C 3,8 km/h 100,00 %
20.06.2021 20:14 25,3 C 53 % 1006,3 hPa 0,0 l/m 3,3 km/h SW 230 0 min 0,000 mm 0,0 UV-I 54 W/m 15,0 C 25,3 C 5,7 km/h 100,00 %
20.06.2021 20:13 25,3 C 53 % 1006,4 hPa 0,0 l/m 3,0 km/h SW 230 0 min 0,000 mm 0,0 UV-I 54 W/m 15,0 C 25,3 C 5,7 km/h 100,00 %
20.06.2021 20:12 25,3 C 53 % 1006,4 hPa 0,0 l/m 4,5 km/h SW 230 0 min 0,000 mm 0,0 UV-I 55 W/m 15,0 C 25,3 C 5,7 km/h 100,00 %
20.06.2021 20:11 25,4 C 53 % 1006,4 hPa 0,0 l/m 3,6 km/h SW 230 0 min 0,000 mm 0,0 UV-I 56 W/m 15,1 C 25,4 C 5,7 km/h 100,00 %
20.06.2021 20:10 25,4 C 52 % 1006,4 hPa 0,0 l/m 2,4 km/h SW 230 0 min 0,000 mm 0,0 UV-I 58 W/m 14,8 C 25,4 C 3,8 km/h 100,00 %
20.06.2021 20:09 25,4 C 52 % 1006,4 hPa 0,0 l/m 1,4 km/h SW 230 0 min 0,000 mm 0,0 UV-I 61 W/m 14,8 C 25,4 C 3,8 km/h 100,00 %
20.06.2021 20:08 25,4 C 52 % 1006,4 hPa 0,0 l/m 1,0 km/h SW 230 0 min 0,000 mm 0,0 UV-I 63 W/m 14,8 C 25,4 C 5,7 km/h 100,00 %
20.06.2021 20:07 25,4 C 52 % 1006,4 hPa 0,0 l/m 2,3 km/h SW 230 0 min 0,000 mm 0,0 UV-I 66 W/m 14,8 C 25,4 C 5,7 km/h 100,00 %
20.06.2021 20:06 25,4 C 52 % 1006,4 hPa 0,0 l/m 1,4 km/h SW 230 0 min 0,000 mm 0,0 UV-I 68 W/m 14,8 C 25,4 C 3,8 km/h 95,65 %
20.06.2021 20:05 25,5 C 52 % 1006,4 hPa 0,0 l/m 2,5 km/h SW 230 0 min 0,000 mm 0,0 UV-I 70 W/m 14,9 C 25,5 C 5,7 km/h 100,00 %
20.06.2021 20:04 25,5 C 52 % 1006,4 hPa 0,0 l/m 1,7 km/h SW 230 0 min 0,000 mm 0,0 UV-I 72 W/m 14,9 C 25,5 C 5,7 km/h 100,00 %
20.06.2021 20:03 25,6 C 52 % 1006,4 hPa 0,0 l/m 2,0 km/h SW 231 0 min 0,000 mm 0,0 UV-I 75 W/m 15,0 C 25,6 C 5,7 km/h 100,00 %
20.06.2021 20:02 25,6 C 52 % 1006,4 hPa 0,0 l/m 3,5 km/h SW 231 0 min 0,000 mm 0,0 UV-I 76 W/m 15,0 C 25,6 C 5,7 km/h 99,01 %
20.06.2021 20:01 25,6 C 52 % 1006,4 hPa 0,0 l/m 3,8 km/h SW 231 0 min 0,203 mm 0,0 UV-I 78 W/m 15,0 C 25,6 C 7,7 km/h 96,15 %
20.06.2021 20:00 25,7 C 52 % 1006,4 hPa 0,0 l/m 3,3 km/h SW 231 0 min 0,000 mm 0,0 UV-I 80 W/m 15,1 C 25,7 C 5,7 km/h 100,00 %
20.06.2021 19:59 25,7 C 52 % 1006,4 hPa 0,0 l/m 4,9 km/h SW 231 0 min 0,000 mm 0,0 UV-I 85 W/m 15,1 C 25,7 C 7,7 km/h 100,00 %
20.06.2021 19:58 25,7 C 52 % 1006,4 hPa 0,0 l/m 2,7 km/h SW 234 0 min 0,000 mm 0,0 UV-I 90 W/m 15,1 C 25,7 C 7,7 km/h 100,00 %
20.06.2021 19:57 25,7 C 52 % 1006,4 hPa 0,0 l/m 1,3 km/h W-NW 290 0 min 0,000 mm 0,0 UV-I 95 W/m 15,1 C 25,7 C 3,8 km/h 99,01 %
20.06.2021 19:56 25,8 C 51 % 1006,4 hPa 0,0 l/m 3,0 km/h W-NW 290 0 min 0,000 mm 0,0 UV-I 101 W/m 14,9 C 25,8 C 7,7 km/h 100,00 %
20.06.2021 19:55 25,8 C 52 % 1006,4 hPa 0,0 l/m 3,2 km/h W-NW 290 0 min 0,000 mm 0,0 UV-I 109 W/m 15,2 C 25,8 C 7,7 km/h 100,00 %
20.06.2021 19:54 25,9 C 51 % 1006,4 hPa 0,0 l/m 2,3 km/h W-NW 291 0 min 0,000 mm 0,0 UV-I 118 W/m 15,0 C 25,9 C 5,7 km/h 100,00 %
20.06.2021 19:53 25,9 C 51 % 1006,5 hPa 0,0 l/m 3,8 km/h W-NW 292 0 min 0,000 mm 0,0 UV-I 129 W/m 15,0 C 25,9 C 7,7 km/h 100,00 %
20.06.2021 19:52 26,1 C 51 % 1006,5 hPa 0,0 l/m 4,0 km/h NW 309 0 min 0,000 mm 0,0 UV-I 141 W/m 15,2 C 26,1 C 7,7 km/h 100,00 %
20.06.2021 19:51 26,1 C 51 % 1006,6 hPa 0,0 l/m 5,3 km/h NW 319 0 min 0,000 mm 0,0 UV-I 154 W/m 15,2 C 26,1 C 7,7 km/h 100,00 %
20.06.2021 19:50 26,2 C 52 % 1006,5 hPa 0,0 l/m 5,1 km/h NW 325 0 min 0,000 mm 0,0 UV-I 169 W/m 15,6 C 26,2 C 7,7 km/h 100,00 %
20.06.2021 19:49 26,2 C 52 % 1006,5 hPa 0,0 l/m 1,5 km/h S-SW 210 0 min 0,000 mm 0,0 UV-I 194 W/m 15,6 C 26,2 C 3,8 km/h 100,00 %
20.06.2021 19:48 26,2 C 52 % 1006,6 hPa 0,0 l/m 2,6 km/h S-SW 210 0 min 0,000 mm 0,5 UV-I 258 W/m 15,6 C 26,2 C 3,8 km/h 100,00 %
20.06.2021 19:47 26,2 C 52 % 1006,6 hPa 0,0 l/m 4,2 km/h S-SW 210 0 min 0,000 mm 0,5 UV-I 200 W/m 15,6 C 26,2 C 7,7 km/h 100,00 %
20.06.2021 19:46 26,3 C 52 % 1006,6 hPa 0,0 l/m 3,7 km/h S-SW 213 0 min 0,000 mm 0,5 UV-I 267 W/m 15,6 C 26,3 C 7,7 km/h 95,83 %
20.06.2021 19:45 26,3 C 52 % 1006,7 hPa 0,0 l/m 3,7 km/h S-SW 202 0 min 0,000 mm 0,6 UV-I 282 W/m 15,6 C 26,3 C 7,7 km/h 96,15 %
20.06.2021 19:44 26,3 C 51 % 1006,7 hPa 0,0 l/m 3,7 km/h S-SW 198 0 min 0,000 mm 0,6 UV-I 282 W/m 15,3 C 26,3 C 5,7 km/h 100,00 %
20.06.2021 19:43 26,3 C 51 % 1006,8 hPa 0,0 l/m 2,2 km/h S-SW 198 1 min 0,000 mm 0,6 UV-I 288 W/m 15,3 C 26,3 C 3,8 km/h 100,00 %
20.06.2021 19:42 26,3 C 51 % 1006,8 hPa 0,0 l/m 2,3 km/h S-SW 198 1 min 0,000 mm 0,6 UV-I 303 W/m 15,3 C 26,3 C 3,8 km/h 100,00 %
20.06.2021 19:41 26,2 C 52 % 1006,7 hPa 0,0 l/m 3,3 km/h S-SW 198 1 min 0,000 mm 0,6 UV-I 331 W/m 15,6 C 26,2 C 5,7 km/h 95,65 %
20.06.2021 19:40 26,2 C 52 % 1006,7 hPa 0,0 l/m 2,7 km/h S-SW 198 1 min 0,000 mm 0,7 UV-I 358 W/m 15,6 C 26,2 C 3,8 km/h 100,00 %
20.06.2021 19:39 26,2 C 52 % 1006,8 hPa 0,0 l/m 1,5 km/h S-SW 198 1 min 0,000 mm 0,7 UV-I 367 W/m 15,6 C 26,2 C 3,8 km/h 100,00 %
20.06.2021 19:38 26,1 C 53 % 1006,8 hPa 0,0 l/m 3,0 km/h S-SW 198 1 min 0,000 mm 0,7 UV-I 369 W/m 15,8 C 26,1 C 3,8 km/h 100,00 %
20.06.2021 19:37 26,1 C 53 % 1006,8 hPa 0,0 l/m 3,3 km/h S-SW 198 1 min 0,000 mm 0,7 UV-I 365 W/m 15,8 C 26,1 C 5,7 km/h 100,00 %
20.06.2021 19:36 26,0 C 53 % 1006,8 hPa 0,0 l/m 3,3 km/h S-SW 198 1 min 0,000 mm 0,7 UV-I 356 W/m 15,7 C 26,0 C 5,7 km/h 99,00 %
20.06.2021 19:35 25,9 C 54 % 1006,8 hPa 0,0 l/m 2,1 km/h S-SW 198 1 min 0,000 mm 0,7 UV-I 353 W/m 15,9 C 25,9 C 3,8 km/h 100,00 %
20.06.2021 19:34 25,9 C 55 % 1006,9 hPa 0,0 l/m 1,2 km/h S-SW 198 1 min 0,000 mm 0,7 UV-I 355 W/m 16,2 C 25,9 C 3,8 km/h 100,00 %
20.06.2021 19:33 25,8 C 54 % 1006,9 hPa 0,0 l/m 3,7 km/h S-SW 198 1 min 0,000 mm 0,7 UV-I 358 W/m 15,8 C 25,8 C 7,7 km/h 100,00 %
20.06.2021 19:32 25,8 C 54 % 1006,9 hPa 0,0 l/m 5,4 km/h S-SW 198 1 min 0,000 mm 0,7 UV-I 338 W/m 15,8 C 25,8 C 7,7 km/h 100,00 %
20.06.2021 19:31 25,8 C 54 % 1006,9 hPa 0,0 l/m 6,0 km/h S-SW 196 1 min 0,000 mm 0,7 UV-I 319 W/m 15,8 C 25,8 C 9,6 km/h 100,00 %
20.06.2021 19:30 25,8 C 53 % 1006,9 hPa 0,0 l/m 2,9 km/h S 187 1 min 0,000 mm 0,7 UV-I 338 W/m 15,5 C 25,8 C 3,8 km/h 100,00 %
20.06.2021 19:29 25,8 C 53 % 1006,9 hPa 0,0 l/m 3,5 km/h S 187 1 min 0,000 mm 0,7 UV-I 352 W/m 15,5 C 25,8 C 5,7 km/h 100,00 %
20.06.2021 19:28 25,8 C 53 % 1006,9 hPa 0,0 l/m 3,4 km/h S 187 1 min 0,000 mm 0,7 UV-I 354 W/m 15,5 C 25,8 C 5,7 km/h 100,00 %
20.06.2021 19:27 25,8 C 53 % 1006,9 hPa 0,0 l/m 3,3 km/h S 188 1 min 0,000 mm 0,7 UV-I 363 W/m 15,5 C 25,8 C 5,7 km/h 100,00 %
20.06.2021 19:26 25,8 C 53 % 1006,9 hPa 0,0 l/m 5,1 km/h S 188 1 min 0,000 mm 0,7 UV-I 369 W/m 15,5 C 25,8 C 7,7 km/h 100,00 %
20.06.2021 19:25 25,8 C 54 % 1006,9 hPa 0,0 l/m 4,6 km/h S 185 1 min 0,000 mm 0,7 UV-I 367 W/m 15,8 C 25,8 C 7,7 km/h 100,00 %
20.06.2021 19:24 25,8 C 53 % 1006,9 hPa 0,0 l/m 3,0 km/h S 177 1 min 0,000 mm 0,7 UV-I 366 W/m 15,5 C 25,8 C 5,7 km/h 100,00 %
20.06.2021 19:23 25,8 C 52 % 1007,0 hPa 0,0 l/m 6,1 km/h S 177 1 min 0,000 mm 0,8 UV-I 350 W/m 15,2 C 25,8 C 7,7 km/h 100,00 %
20.06.2021 19:22 25,9 C 53 % 1007,0 hPa 0,0 l/m 4,7 km/h S 191 1 min 0,000 mm 0,8 UV-I 351 W/m 15,6 C 25,9 C 7,7 km/h 97,56 %
20.06.2021 19:21 25,9 C 53 % 1007,0 hPa 0,0 l/m 4,1 km/h S 191 1 min 0,000 mm 0,8 UV-I 356 W/m 15,6 C 25,9 C 7,7 km/h 100,00 %
20.06.2021 19:20 25,9 C 52 % 1007,1 hPa 0,0 l/m 5,2 km/h S-SW 212 1 min 0,000 mm 0,8 UV-I 367 W/m 15,3 C 25,9 C 7,7 km/h 100,00 %
20.06.2021 19:19 25,9 C 53 % 1007,1 hPa 0,0 l/m 4,2 km/h S-SW 197 1 min 0,000 mm 0,8 UV-I 359 W/m 15,6 C 25,9 C 5,7 km/h 100,00 %
20.06.2021 19:18 26,0 C 53 % 1007,0 hPa 0,0 l/m 3,8 km/h S-SW 202 1 min 0,000 mm 0,9 UV-I 335 W/m 15,7 C 26,0 C 5,7 km/h 100,00 %
20.06.2021 19:17 25,9 C 52 % 1007,1 hPa 0,0 l/m 4,9 km/h S-SW 213 1 min 0,000 mm 0,9 UV-I 341 W/m 15,3 C 25,9 C 7,7 km/h 100,00 %
20.06.2021 19:16 25,9 C 53 % 1007,1 hPa 0,0 l/m 2,9 km/h NW 310 1 min 0,000 mm 0,9 UV-I 334 W/m 15,6 C 25,9 C 9,6 km/h 100,00 %
20.06.2021 19:15 25,9 C 53 % 1007,1 hPa 0,0 l/m 1,3 km/h S-SW 211 1 min 0,000 mm 0,9 UV-I 353 W/m 15,6 C 25,9 C 3,8 km/h 100,00 %
20.06.2021 19:14 25,9 C 53 % 1007,0 hPa 0,0 l/m 1,7 km/h S-SW 211 1 min 0,000 mm 0,9 UV-I 343 W/m 15,6 C 25,9 C 3,8 km/h 100,00 %
20.06.2021 19:13 25,9 C 53 % 1007,1 hPa 0,0 l/m 4,2 km/h S-SW 211 1 min 0,000 mm 0,9 UV-I 331 W/m 15,6 C 25,9 C 7,7 km/h 95,83 %
20.06.2021 19:12 25,9 C 53 % 1007,1 hPa 0,0 l/m 1,7 km/h S-SW 211 1 min 0,000 mm 0,9 UV-I 308 W/m 15,6 C 25,9 C 3,8 km/h 100,00 %
20.06.2021 19:11 25,9 C 53 % 1007,1 hPa 0,0 l/m 0,7 km/h S-SW 211 1 min 0,000 mm 0,9 UV-I 328 W/m 15,6 C 25,9 C 1,9 km/h 96,15 %
20.06.2021 19:10 25,9 C 52 % 1007,1 hPa 0,0 l/m 3,4 km/h S-SW 211 1 min 0,000 mm 0,9 UV-I 289 W/m 15,3 C 25,9 C 5,7 km/h 100,00 %
20.06.2021 19:09 25,9 C 52 % 1007,2 hPa 0,0 l/m 3,8 km/h S-SW 211 0 min 0,000 mm 0,9 UV-I 246 W/m 15,3 C 25,9 C 5,7 km/h 96,15 %
20.06.2021 19:08 26,0 C 52 % 1007,2 hPa 0,0 l/m 4,3 km/h S-SW 211 0 min 0,000 mm 0,9 UV-I 220 W/m 15,4 C 26,0 C 7,7 km/h 100,00 %
20.06.2021 19:07 26,0 C 53 % 1007,2 hPa 0,0 l/m 4,5 km/h S-SW 211 0 min 0,000 mm 0,9 UV-I 238 W/m 15,7 C 26,0 C 7,7 km/h 92,86 %
20.06.2021 19:06 26,1 C 52 % 1007,2 hPa 0,0 l/m 5,5 km/h S-SW 206 0 min 0,000 mm 0,9 UV-I 239 W/m 15,5 C 26,1 C 7,7 km/h 100,00 %
20.06.2021 19:05 26,1 C 52 % 1007,2 hPa 0,0 l/m 5,7 km/h S-SW 206 0 min 0,000 mm 0,9 UV-I 221 W/m 15,5 C 26,1 C 9,6 km/h 95,65 %
20.06.2021 19:04 26,2 C 52 % 1007,2 hPa 0,0 l/m 2,9 km/h S-SW 212 0 min 0,000 mm 0,9 UV-I 256 W/m 15,6 C 26,2 C 3,8 km/h 95,83 %
20.06.2021 19:03 26,2 C 52 % 1007,2 hPa 0,0 l/m 6,8 km/h S-SW 212 1 min 0,000 mm 1,0 UV-I 310 W/m 15,6 C 26,1 C 9,6 km/h 97,37 %
20.06.2021 19:02 26,2 C 52 % 1007,2 hPa 0,0 l/m 3,3 km/h S-SW 211 1 min 0,000 mm 1,0 UV-I 333 W/m 15,6 C 26,2 C 5,7 km/h 91,67 %
20.06.2021 19:01 26,2 C 52 % 1007,2 hPa 0,0 l/m 3,8 km/h S-SW 212 1 min 0,305 mm 1,0 UV-I 328 W/m 15,6 C 26,2 C 7,7 km/h 100,00 %
20.06.2021 19:00 26,3 C 52 % 1007,2 hPa 0,0 l/m 4,6 km/h S-SW 212 1 min 0,000 mm 1,0 UV-I 334 W/m 15,6 C 26,3 C 7,7 km/h 91,30 %
20.06.2021 18:59 26,3 C 52 % 1007,2 hPa 0,0 l/m 5,5 km/h SW 219 1 min 0,000 mm 1,0 UV-I 350 W/m 15,6 C 26,3 C 7,7 km/h 100,00 %
20.06.2021 18:58 26,3 C 52 % 1007,2 hPa 0,0 l/m 5,2 km/h SW 217 1 min 0,000 mm 1,1 UV-I 363 W/m 15,6 C 26,3 C 9,6 km/h 96,15 %
20.06.2021 18:57 26,2 C 52 % 1007,2 hPa 0,0 l/m 3,8 km/h SW 224 1 min 0,000 mm 1,1 UV-I 342 W/m 15,6 C 26,2 C 5,7 km/h 100,00 %
20.06.2021 18:56 26,2 C 52 % 1007,2 hPa 0,0 l/m 4,8 km/h SW 224 1 min 0,000 mm 1,1 UV-I 336 W/m 15,6 C 26,2 C 7,7 km/h 94,12 %
20.06.2021 18:55 26,1 C 52 % 1007,2 hPa 0,0 l/m 2,9 km/h SW 230 1 min 0,000 mm 1,1 UV-I 354 W/m 15,5 C 26,1 C 7,7 km/h 97,62 %
20.06.2021 18:54 26,1 C 51 % 1007,3 hPa 0,0 l/m 0,5 km/h NW 306 1 min 0,000 mm 1,1 UV-I 377 W/m 15,2 C 26,1 C 1,9 km/h 100,00 %
20.06.2021 18:53 26,1 C 51 % 1007,3 hPa 0,0 l/m 2,4 km/h NW 306 1 min 0,000 mm 1,2 UV-I 385 W/m 15,2 C 26,1 C 5,7 km/h 91,67 %
20.06.2021 18:52 26,1 C 52 % 1007,3 hPa 0,0 l/m 3,6 km/h NW 306 1 min 0,000 mm 1,2 UV-I 400 W/m 15,5 C 26,1 C 5,7 km/h 100,00 %
20.06.2021 18:51 26,1 C 52 % 1007,3 hPa 0,0 l/m 1,1 km/h SW 221 1 min 0,000 mm 1,3 UV-I 415 W/m 15,5 C 26,1 C 3,8 km/h 96,30 %
20.06.2021 18:50 26,1 C 52 % 1007,3 hPa 0,0 l/m 0,0 km/h SW 221 1 min 0,000 mm 1,3 UV-I 435 W/m 15,5 C 26,1 C 0,0 km/h 96,15 %
20.06.2021 18:49 26,1 C 53 % 1007,4 hPa 0,0 l/m 2,2 km/h SW 221 1 min 0,000 mm 1,3 UV-I 462 W/m 15,8 C 26,1 C 3,8 km/h 96,30 %
20.06.2021 18:48 26,1 C 53 % 1007,4 hPa 0,0 l/m 2,3 km/h SW 221 1 min 0,000 mm 1,3 UV-I 457 W/m 15,8 C 26,1 C 3,8 km/h 100,00 %
20.06.2021 18:47 26,0 C 53 % 1007,4 hPa 0,0 l/m 4,2 km/h SW 221 1 min 0,000 mm 1,4 UV-I 457 W/m 15,7 C 26,0 C 5,7 km/h 95,83 %
20.06.2021 18:46 25,9 C 52 % 1007,4 hPa 0,0 l/m 4,5 km/h SW 222 1 min 0,000 mm 1,4 UV-I 458 W/m 15,3 C 25,9 C 9,6 km/h 100,00 %
20.06.2021 18:45 25,9 C 52 % 1007,4 hPa 0,0 l/m 3,6 km/h SW 215 1 min 0,000 mm 1,4 UV-I 480 W/m 15,3 C 25,9 C 5,7 km/h 95,83 %
20.06.2021 18:44 25,9 C 52 % 1007,4 hPa 0,0 l/m 2,6 km/h SW 219 1 min 0,000 mm 1,4 UV-I 459 W/m 15,3 C 25,9 C 3,8 km/h 95,65 %
20.06.2021 18:43 25,9 C 53 % 1007,4 hPa 0,0 l/m 2,3 km/h SW 217 1 min 0,000 mm 1,4 UV-I 447 W/m 15,6 C 25,9 C 3,8 km/h 100,00 %
20.06.2021 18:42 25,9 C 53 % 1007,4 hPa 0,0 l/m 2,8 km/h SW 217 1 min 0,000 mm 1,4 UV-I 439 W/m 15,6 C 25,9 C 3,8 km/h 93,33 %
20.06.2021 18:41 25,9 C 54 % 1007,4 hPa 0,0 l/m 4,0 km/h SW 217 1 min 0,000 mm 1,4 UV-I 426 W/m 15,9 C 25,9 C 5,7 km/h 100,00 %
20.06.2021 18:40 25,8 C 54 % 1007,5 hPa 0,0 l/m 3,4 km/h SW 217 1 min 0,000 mm 1,4 UV-I 435 W/m 15,8 C 25,8 C 5,7 km/h 95,83 %
20.06.2021 18:39 25,8 C 54 % 1007,5 hPa 0,0 l/m 6,4 km/h SW 217 1 min 0,000 mm 1,4 UV-I 459 W/m 15,8 C 25,8 C 9,6 km/h 100,00 %
20.06.2021 18:38 25,8 C 53 % 1007,5 hPa 0,0 l/m 4,9 km/h SW 219 1 min 0,000 mm 1,4 UV-I 413 W/m 15,5 C 25,8 C 7,7 km/h 93,33 %
20.06.2021 18:37 25,8 C 54 % 1007,5 hPa 0,0 l/m 5,6 km/h SW 223 1 min 0,000 mm 1,3 UV-I 423 W/m 15,8 C 25,8 C 9,6 km/h 100,00 %
20.06.2021 18:36 25,8 C 54 % 1007,5 hPa 0,0 l/m 6,7 km/h S-SW 210 1 min 0,000 mm 1,4 UV-I 446 W/m 15,8 C 25,7 C 9,6 km/h 96,30 %
20.06.2021 18:35 25,7 C 54 % 1007,5 hPa 0,0 l/m 8,6 km/h SW 229 1 min 0,000 mm 1,4 UV-I 429 W/m 15,7 C 25,2 C 13,4 km/h 96,15 %
20.06.2021 18:34 25,7 C 53 % 1007,5 hPa 0,0 l/m 4,9 km/h W-NW 291 1 min 0,000 mm 1,4 UV-I 425 W/m 15,4 C 25,7 C 7,7 km/h 100,00 %
20.06.2021 18:33 25,7 C 53 % 1007,5 hPa 0,0 l/m 9,3 km/h S-SW 200 1 min 0,000 mm 1,5 UV-I 467 W/m 15,4 C 25,1 C 15,3 km/h 95,65 %
20.06.2021 18:32 25,7 C 52 % 1007,5 hPa 0,0 l/m 4,1 km/h W-NW 296 1 min 0,000 mm 1,5 UV-I 483 W/m 15,1 C 25,7 C 7,7 km/h 100,00 %
20.06.2021 18:31 25,8 C 52 % 1007,4 hPa 0,0 l/m 4,8 km/h NW 311 1 min 0,000 mm 1,5 UV-I 483 W/m 15,2 C 25,8 C 7,7 km/h 92,31 %
20.06.2021 18:30 25,8 C 52 % 1007,5 hPa 0,0 l/m 6,4 km/h W-NW 296 1 min 0,000 mm 1,6 UV-I 482 W/m 15,2 C 25,8 C 9,6 km/h 100,00 %
20.06.2021 18:29 25,9 C 52 % 1007,4 hPa 0,0 l/m 4,5 km/h NW 321 1 min 0,000 mm 1,5 UV-I 449 W/m 15,3 C 25,9 C 9,6 km/h 96,15 %
20.06.2021 18:28 25,9 C 53 % 1007,4 hPa 0,0 l/m 3,3 km/h NW 316 1 min 0,000 mm 1,4 UV-I 332 W/m 15,6 C 25,9 C 5,7 km/h 100,00 %
20.06.2021 18:27 25,9 C 53 % 1007,4 hPa 0,0 l/m 4,5 km/h N-NW 329 1 min 0,000 mm 1,4 UV-I 348 W/m 15,6 C 25,9 C 7,7 km/h 100,00 %
20.06.2021 18:26 25,9 C 54 % 1007,4 hPa 0,0 l/m 1,8 km/h W 273 1 min 0,000 mm 1,4 UV-I 408 W/m 15,9 C 25,9 C 3,8 km/h 95,83 %
20.06.2021 18:25 25,8 C 52 % 1007,4 hPa 0,0 l/m 5,7 km/h W 273 1 min 0,000 mm 1,5 UV-I 466 W/m 15,2 C 25,8 C 13,4 km/h 100,00 %
20.06.2021 18:24 25,9 C 52 % 1007,5 hPa 0,0 l/m 7,0 km/h W-NW 300 1 min 0,000 mm 1,6 UV-I 494 W/m 15,3 C 25,8 C 11,5 km/h 93,33 %
20.06.2021 18:23 25,9 C 52 % 1007,5 hPa 0,0 l/m 8,1 km/h W-NW 300 1 min 0,000 mm 1,6 UV-I 532 W/m 15,3 C 25,5 C 13,4 km/h 100,00 %
20.06.2021 18:22 25,9 C 53 % 1007,5 hPa 0,0 l/m 3,0 km/h W-NW 298 1 min 0,000 mm 1,7 UV-I 545 W/m 15,6 C 25,9 C 7,7 km/h 96,15 %
20.06.2021 18:21 25,9 C 52 % 1007,6 hPa 0,0 l/m 3,5 km/h SW 235 1 min 0,000 mm 1,7 UV-I 549 W/m 15,3 C 25,9 C 5,7 km/h 96,43 %
20.06.2021 18:20 25,9 C 52 % 1007,6 hPa 0,0 l/m 3,6 km/h SW 235 1 min 0,000 mm 1,7 UV-I 524 W/m 15,3 C 25,9 C 7,7 km/h 100,00 %
20.06.2021 18:19 25,9 C 52 % 1007,6 hPa 0,0 l/m 3,6 km/h W-SW 250 1 min 0,000 mm 1,6 UV-I 471 W/m 15,3 C 25,9 C 7,7 km/h 95,83 %
20.06.2021 18:18 26,0 C 53 % 1007,7 hPa 0,0 l/m 2,4 km/h W 261 1 min 0,000 mm 1,6 UV-I 376 W/m 15,7 C 26,0 C 5,7 km/h 100,00 %
20.06.2021 18:17 26,0 C 52 % 1007,7 hPa 0,0 l/m 7,3 km/h W-NW 297 1 min 0,000 mm 1,5 UV-I 375 W/m 15,4 C 25,8 C 13,4 km/h 93,33 %
20.06.2021 18:16 26,1 C 53 % 1007,7 hPa 0,0 l/m 2,4 km/h W 263 1 min 0,000 mm 1,6 UV-I 407 W/m 15,8 C 26,1 C 5,7 km/h 100,00 %
20.06.2021 18:15 26,0 C 53 % 1007,7 hPa 0,0 l/m 2,4 km/h W 277 1 min 0,000 mm 1,5 UV-I 514 W/m 15,7 C 26,0 C 5,7 km/h 95,83 %
20.06.2021 18:14 26,0 C 53 % 1007,7 hPa 0,0 l/m 4,4 km/h W 279 1 min 0,000 mm 1,7 UV-I 545 W/m 15,7 C 26,0 C 5,7 km/h 100,00 %
20.06.2021 18:13 26,0 C 54 % 1007,7 hPa 0,0 l/m 1,4 km/h S-SW 207 1 min 0,000 mm 1,7 UV-I 531 W/m 16,0 C 26,0 C 3,8 km/h 95,83 %
20.06.2021 18:12 25,9 C 54 % 1007,8 hPa 0,0 l/m 2,4 km/h S-SW 207 1 min 0,000 mm 1,7 UV-I 546 W/m 15,9 C 25,9 C 5,7 km/h 96,15 %
20.06.2021 18:11 25,8 C 54 % 1007,8 hPa 0,0 l/m 3,0 km/h S-SW 209 1 min 0,000 mm 1,8 UV-I 539 W/m 15,8 C 25,8 C 3,8 km/h 100,00 %
20.06.2021 18:10 25,8 C 54 % 1007,8 hPa 0,0 l/m 4,0 km/h S-SW 209 1 min 0,000 mm 1,8 UV-I 554 W/m 15,8 C 25,8 C 5,7 km/h 100,00 %
20.06.2021 18:09 25,8 C 53 % 1007,8 hPa 0,0 l/m 2,3 km/h S-SW 210 1 min 0,000 mm 1,7 UV-I 505 W/m 15,5 C 25,8 C 3,8 km/h 100,00 %
20.06.2021 18:08 25,7 C 54 % 1007,8 hPa 0,0 l/m 2,0 km/h S-SW 210 1 min 0,000 mm 1,7 UV-I 461 W/m 15,7 C 25,7 C 3,8 km/h 100,00 %
20.06.2021 18:07 25,7 C 54 % 1007,8 hPa 0,0 l/m 4,0 km/h S-SW 210 1 min 0,000 mm 1,6 UV-I 427 W/m 15,7 C 25,7 C 5,7 km/h 100,00 %
20.06.2021 18:06 25,7 C 54 % 1007,8 hPa 0,0 l/m 1,8 km/h S-SW 210 1 min 0,000 mm 1,6 UV-I 383 W/m 15,7 C 25,7 C 3,8 km/h 100,00 %
20.06.2021 18:05 25,7 C 55 % 1007,9 hPa 0,0 l/m 1,7 km/h S-SW 210 1 min 0,000 mm 1,4 UV-I 345 W/m 16,0 C 25,7 C 3,8 km/h 100,00 %
20.06.2021 18:04 25,6 C 54 % 1007,8 hPa 0,0 l/m 2,2 km/h S-SW 210 1 min 0,000 mm 1,4 UV-I 308 W/m 15,6 C 25,6 C 5,7 km/h 95,83 %
20.06.2021 18:03 25,6 C 54 % 1007,8 hPa 0,0 l/m 1,8 km/h S-SW 210 1 min 0,000 mm 1,4 UV-I 308 W/m 15,6 C 25,6 C 3,8 km/h 100,00 %
20.06.2021 18:02 25,6 C 54 % 1007,9 hPa 0,0 l/m 2,3 km/h S-SW 210 1 min 0,000 mm 1,4 UV-I 308 W/m 15,6 C 25,6 C 5,7 km/h 100,00 %
20.06.2021 18:01 25,6 C 54 % 1007,9 hPa 0,0 l/m 4,8 km/h S-SW 210 1 min 0,203 mm 1,4 UV-I 305 W/m 15,6 C 25,6 C 7,7 km/h 100,00 %
20.06.2021 18:00 25,6 C 54 % 1007,9 hPa 0,0 l/m 5,4 km/h S-SW 210 1 min 0,000 mm 1,5 UV-I 300 W/m 15,6 C 25,6 C 9,6 km/h 100,00 %
20.06.2021 17:59 25,6 C 54 % 1007,9 hPa 0,0 l/m 4,4 km/h SW 221 1 min 0,000 mm 1,5 UV-I 315 W/m 15,6 C 25,6 C 5,7 km/h 95,65 %
20.06.2021 17:58 25,6 C 54 % 1007,8 hPa 0,0 l/m 1,7 km/h SW 220 1 min 0,000 mm 1,5 UV-I 328 W/m 15,6 C 25,6 C 3,8 km/h 100,00 %
20.06.2021 17:57 25,5 C 54 % 1007,7 hPa 0,0 l/m 2,6 km/h SW 220 1 min 0,000 mm 1,5 UV-I 318 W/m 15,5 C 25,5 C 7,7 km/h 100,00 %
20.06.2021 17:56 25,4 C 55 % 1007,8 hPa 0,0 l/m 4,1 km/h SW 222 1 min 0,000 mm 1,5 UV-I 332 W/m 15,7 C 25,4 C 7,7 km/h 96,30 %
20.06.2021 17:55 25,4 C 55 % 1007,7 hPa 0,0 l/m 5,1 km/h SW 222 1 min 0,000 mm 1,6 UV-I 487 W/m 15,7 C 25,4 C 7,7 km/h 100,00 %
20.06.2021 17:54 25,4 C 55 % 1007,7 hPa 0,0 l/m 3,2 km/h SW 235 1 min 0,000 mm 1,7 UV-I 470 W/m 15,7 C 25,4 C 5,7 km/h 100,00 %
20.06.2021 17:53 25,3 C 55 % 1007,7 hPa 0,0 l/m 6,2 km/h SW 235 1 min 0,000 mm 1,7 UV-I 441 W/m 15,6 C 25,3 C 11,5 km/h 96,15 %
20.06.2021 17:52 25,3 C 56 % 1007,7 hPa 0,0 l/m 4,8 km/h SW 231 1 min 0,000 mm 1,7 UV-I 435 W/m 15,9 C 25,3 C 9,6 km/h 100,00 %
20.06.2021 17:51 25,3 C 55 % 1007,7 hPa 0,0 l/m 1,3 km/h SW 222 1 min 0,000 mm 1,6 UV-I 412 W/m 15,6 C 25,3 C 3,8 km/h 100,00 %
20.06.2021 17:50 25,2 C 55 % 1007,7 hPa 0,0 l/m 3,5 km/h SW 222 1 min 0,000 mm 1,5 UV-I 377 W/m 15,5 C 25,2 C 5,7 km/h 100,00 %
20.06.2021 17:49 25,2 C 55 % 1007,6 hPa 0,0 l/m 4,3 km/h SW 222 1 min 0,000 mm 1,4 UV-I 341 W/m 15,5 C 25,2 C 7,7 km/h 100,00 %
20.06.2021 17:48 25,2 C 55 % 1007,7 hPa 0,0 l/m 4,9 km/h W 275 1 min 0,000 mm 1,3 UV-I 329 W/m 15,5 C 25,2 C 7,7 km/h 100,00 %
20.06.2021 17:47 25,2 C 56 % 1007,6 hPa 0,0 l/m 1,7 km/h SW 229 1 min 0,000 mm 1,2 UV-I 290 W/m 15,8 C 25,2 C 3,8 km/h 95,65 %
20.06.2021 17:46 25,1 C 55 % 1007,7 hPa 0,0 l/m 2,3 km/h SW 229 0 min 0,000 mm 1,2 UV-I 276 W/m 15,4 C 25,1 C 3,8 km/h 100,00 %
20.06.2021 17:45 25,1 C 55 % 1007,6 hPa 0,0 l/m 5,0 km/h W-NW 286 0 min 0,000 mm 1,1 UV-I 254 W/m 15,4 C 25,1 C 9,6 km/h 92,31 %
20.06.2021 17:44 25,1 C 56 % 1007,6 hPa 0,0 l/m 2,4 km/h W-NW 284 0 min 0,000 mm 1,1 UV-I 237 W/m 15,7 C 25,1 C 11,5 km/h 100,00 %
20.06.2021 17:43 25,1 C 56 % 1007,5 hPa 0,0 l/m 2,5 km/h SW 227 0 min 0,000 mm 1,1 UV-I 223 W/m 15,7 C 25,1 C 3,8 km/h 95,83 %
20.06.2021 17:42 25,1 C 56 % 1007,5 hPa 0,0 l/m 3,3 km/h SW 228 0 min 0,000 mm 1,1 UV-I 222 W/m 15,7 C 25,1 C 5,7 km/h 100,00 %
20.06.2021 17:41 25,0 C 57 % 1007,5 hPa 0,0 l/m 3,2 km/h SW 223 0 min 0,000 mm 1,1 UV-I 219 W/m 15,9 C 25,0 C 5,7 km/h 96,15 %
20.06.2021 17:40 25,1 C 56 % 1007,6 hPa 0,0 l/m 2,6 km/h SW 223 0 min 0,000 mm 1,1 UV-I 216 W/m 15,7 C 25,1 C 5,7 km/h 100,00 %
20.06.2021 17:39 25,1 C 56 % 1007,6 hPa 0,0 l/m 5,5 km/h SW 223 0 min 0,000 mm 1,1 UV-I 218 W/m 15,7 C 25,1 C 9,6 km/h 100,00 %
20.06.2021 17:38 25,1 C 56 % 1007,6 hPa 0,0 l/m 6,5 km/h SW 231 0 min 0,000 mm 1,1 UV-I 220 W/m 15,7 C 25,1 C 7,7 km/h 96,15 %
20.06.2021 17:37 25,1 C 56 % 1007,6 hPa 0,0 l/m 7,7 km/h S-SW 211 0 min 0,000 mm 1,1 UV-I 221 W/m 15,7 C 24,8 C 11,5 km/h 100,00 %
20.06.2021 17:36 25,2 C 55 % 1007,5 hPa 0,0 l/m 9,2 km/h W-SW 238 0 min 0,000 mm 1,1 UV-I 222 W/m 15,5 C 24,5 C 13,4 km/h 92,86 %
20.06.2021 17:35 25,2 C 56 % 1007,5 hPa 0,0 l/m 5,0 km/h SW 225 0 min 0,000 mm 1,1 UV-I 223 W/m 15,8 C 25,2 C 7,7 km/h 100,00 %
20.06.2021 17:34 25,2 C 55 % 1007,4 hPa 0,0 l/m 5,3 km/h SW 227 0 min 0,000 mm 1,1 UV-I 224 W/m 15,5 C 25,2 C 7,7 km/h 100,00 %
20.06.2021 17:33 25,2 C 55 % 1007,3 hPa 0,0 l/m 4,5 km/h SW 226 0 min 0,000 mm 1,1 UV-I 227 W/m 15,5 C 25,2 C 7,7 km/h 100,00 %
20.06.2021 17:32 25,2 C 55 % 1007,3 hPa 0,0 l/m 5,2 km/h SW 232 0 min 0,000 mm 1,1 UV-I 229 W/m 15,5 C 25,2 C 9,6 km/h 100,00 %
20.06.2021 17:31 25,3 C 55 % 1007,3 hPa 0,0 l/m 7,7 km/h SW 234 0 min 0,000 mm 1,2 UV-I 233 W/m 15,6 C 25,0 C 11,5 km/h 100,00 %
20.06.2021 17:30 25,3 C 56 % 1007,3 hPa 0,0 l/m 3,5 km/h SW 223 0 min 0,000 mm 1,2 UV-I 235 W/m 15,9 C 25,3 C 7,7 km/h 95,65 %
20.06.2021 17:29 25,3 C 55 % 1007,3 hPa 0,0 l/m 6,1 km/h S-SW 213 0 min 0,000 mm 1,2 UV-I 240 W/m 15,6 C 25,3 C 9,6 km/h 100,00 %
20.06.2021 17:28 25,4 C 55 % 1007,3 hPa 0,0 l/m 5,9 km/h SW 234 0 min 0,000 mm 1,2 UV-I 247 W/m 15,7 C 25,4 C 11,5 km/h 100,00 %
20.06.2021 17:27 25,4 C 55 % 1007,3 hPa 0,0 l/m 4,8 km/h SW 235 0 min 0,000 mm 1,3 UV-I 253 W/m 15,7 C 25,4 C 7,7 km/h 100,00 %
20.06.2021 17:26 25,4 C 55 % 1007,3 hPa 0,0 l/m 5,3 km/h SW 234 0 min 0,000 mm 1,3 UV-I 244 W/m 15,7 C 25,4 C 7,7 km/h 100,00 %
20.06.2021 17:25 25,4 C 55 % 1007,4 hPa 0,0 l/m 4,5 km/h SW 226 0 min 0,000 mm 1,3 UV-I 245 W/m 15,7 C 25,4 C 9,6 km/h 100,00 %
20.06.2021 17:24 25,4 C 55 % 1007,4 hPa 0,0 l/m 2,1 km/h W-SW 238 0 min 0,000 mm 1,3 UV-I 251 W/m 15,7 C 25,4 C 3,8 km/h 100,00 %
20.06.2021 17:23 25,5 C 54 % 1007,5 hPa 0,0 l/m 4,3 km/h W-SW 238 0 min 0,000 mm 1,2 UV-I 261 W/m 15,5 C 25,5 C 7,7 km/h 100,00 %
20.06.2021 17:22 25,5 C 54 % 1007,5 hPa 0,0 l/m 3,7 km/h W-SW 238 0 min 0,000 mm 1,4 UV-I 270 W/m 15,5 C 25,5 C 5,7 km/h 100,00 %
20.06.2021 17:21 25,5 C 55 % 1007,5 hPa 0,0 l/m 3,7 km/h W-SW 238 0 min 0,000 mm 1,4 UV-I 277 W/m 15,8 C 25,5 C 5,7 km/h 95,65 %
20.06.2021 17:20 25,5 C 55 % 1007,5 hPa 0,0 l/m 3,2 km/h W-SW 247 0 min 0,000 mm 1,4 UV-I 281 W/m 15,8 C 25,5 C 5,7 km/h 100,00 %
20.06.2021 17:19 25,5 C 55 % 1007,4 hPa 0,0 l/m 2,9 km/h W-NW 292 0 min 0,000 mm 1,5 UV-I 284 W/m 15,8 C 25,5 C 7,7 km/h 96,15 %
20.06.2021 17:18 25,5 C 55 % 1007,5 hPa 0,0 l/m 2,4 km/h SW 216 0 min 0,000 mm 1,4 UV-I 282 W/m 15,8 C 25,5 C 3,8 km/h 100,00 %
20.06.2021 17:17 25,4 C 55 % 1007,5 hPa 0,0 l/m 0,5 km/h SW 216 0 min 0,000 mm 1,4 UV-I 277 W/m 15,7 C 25,4 C 1,9 km/h 100,00 %
20.06.2021 17:16 25,5 C 54 % 1007,4 hPa 0,0 l/m 2,6 km/h SW 216 0 min 0,000 mm 1,4 UV-I 286 W/m 15,5 C 25,5 C 5,7 km/h 100,00 %
20.06.2021 17:15 25,5 C 55 % 1007,4 hPa 0,0 l/m 1,5 km/h SW 215 1 min 0,000 mm 1,5 UV-I 294 W/m 15,8 C 25,5 C 3,8 km/h 100,00 %
20.06.2021 17:14 25,6 C 55 % 1007,3 hPa 0,0 l/m 3,1 km/h SW 215 0 min 0,000 mm 1,4 UV-I 274 W/m 15,9 C 25,6 C 5,7 km/h 95,83 %
20.06.2021 17:13 25,6 C 55 % 1007,3 hPa 0,0 l/m 6,0 km/h SW 216 0 min 0,000 mm 1,4 UV-I 265 W/m 15,9 C 25,6 C 9,6 km/h 100,00 %
20.06.2021 17:12 25,7 C 54 % 1007,4 hPa 0,0 l/m 8,1 km/h SW 225 0 min 0,000 mm 1,4 UV-I 248 W/m 15,7 C 25,3 C 11,5 km/h 100,00 %
20.06.2021 17:11 25,7 C 55 % 1007,4 hPa 0,0 l/m 2,2 km/h SW 234 0 min 0,000 mm 1,4 UV-I 250 W/m 16,0 C 25,7 C 3,8 km/h 100,00 %
20.06.2021 17:10 25,7 C 55 % 1007,4 hPa 0,0 l/m 6,0 km/h SW 234 0 min 0,000 mm 1,4 UV-I 253 W/m 16,0 C 25,7 C 9,6 km/h 96,43 %
20.06.2021 17:09 25,7 C 55 % 1007,4 hPa 0,0 l/m 7,1 km/h SW 219 0 min 0,000 mm 1,5 UV-I 267 W/m 16,0 C 25,5 C 9,6 km/h 100,00 %
20.06.2021 17:08 25,8 C 55 % 1007,3 hPa 0,0 l/m 3,2 km/h SW 235 1 min 0,000 mm 1,6 UV-I 317 W/m 16,1 C 25,8 C 5,7 km/h 100,00 %
20.06.2021 17:07 25,8 C 54 % 1007,3 hPa 0,0 l/m 3,8 km/h W-NW 290 1 min 0,000 mm 1,7 UV-I 339 W/m 15,8 C 25,8 C 7,7 km/h 100,00 %
20.06.2021 17:06 25,8 C 55 % 1007,4 hPa 0,0 l/m 3,4 km/h SW 221 0 min 0,000 mm 1,6 UV-I 286 W/m 16,1 C 25,8 C 5,7 km/h 100,00 %
20.06.2021 17:05 25,8 C 54 % 1007,4 hPa 0,0 l/m 2,0 km/h S-SW 208 0 min 0,000 mm 1,6 UV-I 266 W/m 15,8 C 25,8 C 3,8 km/h 100,00 %
20.06.2021 17:04 25,8 C 54 % 1007,3 hPa 0,0 l/m 0,9 km/h S-SW 208 0 min 0,000 mm 1,7 UV-I 271 W/m 15,8 C 25,8 C 5,7 km/h 96,15 %
20.06.2021 17:03 25,8 C 54 % 1007,4 hPa 0,0 l/m 4,5 km/h S-SW 208 1 min 0,000 mm 1,7 UV-I 288 W/m 15,8 C 25,8 C 7,7 km/h 100,00 %
20.06.2021 17:02 25,9 C 54 % 1007,4 hPa 0,0 l/m 5,4 km/h S-SW 208 1 min 0,000 mm 1,9 UV-I 329 W/m 15,9 C 25,9 C 7,7 km/h 95,65 %
20.06.2021 17:01 25,9 C 54 % 1007,4 hPa 0,0 l/m 7,8 km/h SW 235 1 min 0,356 mm 2,0 UV-I 390 W/m 15,9 C 25,6 C 11,5 km/h 100,00 %
20.06.2021 17:00 25,9 C 55 % 1007,4 hPa 0,0 l/m 9,3 km/h S-SW 213 1 min 0,000 mm 2,2 UV-I 461 W/m 16,2 C 25,3 C 13,4 km/h 100,00 %
20.06.2021 16:59 25,9 C 54 % 1007,3 hPa 0,0 l/m 3,1 km/h SW 226 1 min 0,000 mm 2,4 UV-I 531 W/m 15,9 C 25,9 C 7,7 km/h 100,00 %
20.06.2021 16:58 25,9 C 54 % 1007,4 hPa 0,0 l/m 2,3 km/h W-NW 286 1 min 0,000 mm 2,3 UV-I 524 W/m 15,9 C 25,9 C 5,7 km/h 100,00 %
20.06.2021 16:57 25,8 C 54 % 1007,5 hPa 0,0 l/m 2,2 km/h W-NW 289 1 min 0,000 mm 2,3 UV-I 467 W/m 15,8 C 25,8 C 3,8 km/h 100,00 %
20.06.2021 16:56 25,8 C 55 % 1007,5 hPa 0,0 l/m 0,8 km/h W-NW 289 1 min 0,000 mm 2,2 UV-I 434 W/m 16,1 C 25,8 C 3,8 km/h 100,00 %
20.06.2021 16:55 25,8 C 55 % 1007,5 hPa 0,0 l/m 3,0 km/h S-SW 202 1 min 0,000 mm 2,2 UV-I 460 W/m 16,1 C 25,8 C 5,7 km/h 100,00 %
20.06.2021 16:54 25,8 C 56 % 1007,5 hPa 0,0 l/m 5,8 km/h S-SW 196 1 min 0,000 mm 2,1 UV-I 421 W/m 16,3 C 25,8 C 9,6 km/h 100,00 %
20.06.2021 16:53 25,8 C 55 % 1007,5 hPa 0,0 l/m 2,7 km/h SW 215 1 min 0,000 mm 2,2 UV-I 431 W/m 16,1 C 25,8 C 7,7 km/h 100,00 %
20.06.2021 16:52 25,8 C 54 % 1007,5 hPa 0,0 l/m 7,2 km/h S-SW 211 1 min 0,000 mm 2,2 UV-I 458 W/m 15,8 C 25,6 C 11,5 km/h 100,00 %
20.06.2021 16:51 25,8 C 54 % 1007,5 hPa 0,0 l/m 8,7 km/h SW 232 1 min 0,000 mm 2,2 UV-I 432 W/m 15,8 C 25,3 C 11,5 km/h 93,33 %
20.06.2021 16:50 25,8 C 54 % 1007,6 hPa 0,0 l/m 2,5 km/h SW 233 1 min 0,000 mm 2,2 UV-I 378 W/m 15,8 C 25,8 C 7,7 km/h 100,00 %
20.06.2021 16:49 25,9 C 53 % 1007,6 hPa 0,0 l/m 2,7 km/h SW 233 1 min 0,000 mm 2,0 UV-I 413 W/m 15,6 C 25,9 C 5,7 km/h 100,00 %
20.06.2021 16:48 25,9 C 53 % 1007,6 hPa 0,0 l/m 1,5 km/h SW 236 1 min 0,000 mm 2,2 UV-I 504 W/m 15,6 C 25,9 C 3,8 km/h 100,00 %
20.06.2021 16:47 25,9 C 53 % 1007,6 hPa 0,0 l/m 5,7 km/h SW 236 1 min 0,000 mm 2,6 UV-I 557 W/m 15,6 C 25,9 C 7,7 km/h 96,88 %
20.06.2021 16:46 25,9 C 54 % 1007,7 hPa 0,0 l/m 7,1 km/h SW 236 1 min 0,000 mm 2,6 UV-I 563 W/m 15,9 C 25,7 C 9,6 km/h 100,00 %
20.06.2021 16:45 25,9 C 55 % 1007,7 hPa 0,0 l/m 9,4 km/h SW 236 1 min 0,000 mm 2,9 UV-I 290 W/m 16,2 C 25,3 C 13,4 km/h 95,65 %
20.06.2021 16:44 25,8 C 56 % 1007,7 hPa 0,0 l/m 6,9 km/h S-SW 209 1 min 0,000 mm 3,0 UV-I 290 W/m 16,3 C 25,7 C 15,3 km/h 100,00 %
20.06.2021 16:43 25,8 C 55 % 1007,7 hPa 0,0 l/m 1,7 km/h W-SW 250 1 min 0,000 mm 2,9 UV-I 290 W/m 16,1 C 25,8 C 3,8 km/h 100,00 %
20.06.2021 16:42 25,8 C 54 % 1007,7 hPa 0,0 l/m 3,9 km/h W-SW 250 1 min 0,000 mm 2,2 UV-I 290 W/m 15,8 C 25,8 C 9,6 km/h 100,00 %
20.06.2021 16:41 25,8 C 54 % 1007,7 hPa 0,0 l/m 6,4 km/h W-SW 240 0 min 0,000 mm 1,9 UV-I 285 W/m 15,8 C 25,8 C 15,3 km/h 100,00 %
20.06.2021 16:40 25,8 C 54 % 1007,7 hPa 0,0 l/m 2,8 km/h W-NW 297 0 min 0,000 mm 1,9 UV-I 281 W/m 15,8 C 25,8 C 9,6 km/h 96,30 %
20.06.2021 16:39 25,8 C 54 % 1007,8 hPa 0,0 l/m 2,5 km/h SW 217 0 min 0,000 mm 1,9 UV-I 282 W/m 15,8 C 25,8 C 3,8 km/h 100,00 %
20.06.2021 16:38 25,8 C 54 % 1007,8 hPa 0,0 l/m 3,2 km/h SW 219 1 min 0,000 mm 2,0 UV-I 290 W/m 15,8 C 25,8 C 5,7 km/h 100,00 %
20.06.2021 16:37 25,8 C 54 % 1007,8 hPa 0,0 l/m 5,3 km/h SW 215 1 min 0,000 mm 2,1 UV-I 327 W/m 15,8 C 25,8 C 11,5 km/h 100,00 %
20.06.2021 16:36 25,8 C 54 % 1007,8 hPa 0,0 l/m 5,1 km/h W-SW 248 1 min 0,000 mm 2,4 UV-I 523 W/m 15,8 C 25,8 C 9,6 km/h 100,00 %
20.06.2021 16:35 25,7 C 54 % 1007,8 hPa 0,0 l/m 6,6 km/h SW 232 1 min 0,000 mm 2,9 UV-I 638 W/m 15,7 C 25,7 C 11,5 km/h 96,15 %
20.06.2021 16:34 25,7 C 54 % 1007,8 hPa 0,0 l/m 3,4 km/h W 272 1 min 0,000 mm 3,0 UV-I 536 W/m 15,7 C 25,7 C 5,7 km/h 100,00 %
20.06.2021 16:33 25,7 C 55 % 1007,8 hPa 0,0 l/m 7,0 km/h S-SW 213 1 min 0,000 mm 2,7 UV-I 524 W/m 16,0 C 25,6 C 11,5 km/h 100,00 %
20.06.2021 16:32 25,7 C 55 % 1007,8 hPa 0,0 l/m 7,2 km/h S 188 1 min 0,000 mm 2,6 UV-I 542 W/m 16,0 C 25,5 C 13,4 km/h 100,00 %
20.06.2021 16:31 25,7 C 54 % 1007,9 hPa 0,0 l/m 8,4 km/h W-SW 242 1 min 0,000 mm 2,9 UV-I 679 W/m 15,7 C 25,3 C 17,2 km/h 100,00 %
20.06.2021 16:30 25,7 C 56 % 1007,9 hPa 0,0 l/m 10,5 km/h W-SW 238 1 min 0,000 mm 3,2 UV-I 542 W/m 16,2 C 24,8 C 15,3 km/h 100,00 %
20.06.2021 16:29 25,6 C 56 % 1008,0 hPa 0,0 l/m 5,0 km/h W-SW 243 1 min 0,000 mm 3,1 UV-I 417 W/m 16,2 C 25,6 C 7,7 km/h 100,00 %
20.06.2021 16:28 25,6 C 56 % 1007,9 hPa 0,0 l/m 4,2 km/h S-SO 166 1 min 0,000 mm 2,5 UV-I 417 W/m 16,2 C 25,6 C 7,7 km/h 100,00 %
20.06.2021 16:27 25,5 C 56 % 1008,0 hPa 0,0 l/m 2,2 km/h S-SO 155 1 min 0,000 mm 2,5 UV-I 542 W/m 16,1 C 25,5 C 3,8 km/h 100,00 %
20.06.2021 16:26 25,5 C 56 % 1008,0 hPa 0,0 l/m 2,6 km/h S-SO 154 1 min 0,000 mm 2,9 UV-I 745 W/m 16,1 C 25,5 C 3,8 km/h 100,00 %
20.06.2021 16:25 25,5 C 55 % 1008,0 hPa 0,0 l/m 6,7 km/h S-SO 154 1 min 0,000 mm 3,4 UV-I 790 W/m 15,8 C 25,4 C 9,6 km/h 100,00 %
20.06.2021 16:24 25,6 C 56 % 1008,0 hPa 0,0 l/m 8,4 km/h S-SO 167 1 min 0,000 mm 3,6 UV-I 438 W/m 16,2 C 25,1 C 11,5 km/h 100,00 %
20.06.2021 16:23 25,6 C 56 % 1007,9 hPa 0,0 l/m 8,5 km/h S 182 0 min 0,000 mm 2,7 UV-I 258 W/m 16,2 C 25,1 C 11,5 km/h 100,00 %
20.06.2021 16:22 25,6 C 56 % 1007,9 hPa 0,0 l/m 1,6 km/h S-SW 198 0 min 0,000 mm 2,2 UV-I 257 W/m 16,2 C 25,6 C 3,8 km/h 100,00 %
20.06.2021 16:21 25,6 C 55 % 1007,9 hPa 0,0 l/m 4,4 km/h S-SW 198 0 min 0,000 mm 2,1 UV-I 248 W/m 15,9 C 25,6 C 7,7 km/h 100,00 %
20.06.2021 16:20 25,7 C 55 % 1007,9 hPa 0,0 l/m 5,1 km/h S-SW 198 1 min 0,000 mm 2,2 UV-I 426 W/m 16,0 C 25,7 C 9,6 km/h 100,00 %
20.06.2021 16:19 25,7 C 56 % 1007,9 hPa 0,0 l/m 4,8 km/h S 176 1 min 0,000 mm 2,8 UV-I 668 W/m 16,2 C 25,7 C 5,7 km/h 100,00 %
20.06.2021 16:18 25,7 C 56 % 1007,9 hPa 0,0 l/m 4,8 km/h S 191 1 min 0,000 mm 3,3 UV-I 700 W/m 16,2 C 25,7 C 9,6 km/h 92,31 %
20.06.2021 16:17 25,6 C 55 % 1007,9 hPa 0,0 l/m 4,1 km/h S 184 1 min 0,000 mm 3,7 UV-I 780 W/m 15,9 C 25,6 C 7,7 km/h 100,00 %
20.06.2021 16:16 25,7 C 55 % 1007,9 hPa 0,0 l/m 5,4 km/h S 184 1 min 0,000 mm 3,8 UV-I 811 W/m 16,0 C 25,7 C 7,7 km/h 99,10 %
20.06.2021 16:15 25,7 C 55 % 1007,9 hPa 0,0 l/m 3,3 km/h S 191 1 min 0,000 mm 3,7 UV-I 787 W/m 16,0 C 25,7 C 7,7 km/h 100,00 %
20.06.2021 16:14 25,8 C 55 % 1007,8 hPa 0,0 l/m 6,7 km/h S 191 1 min 0,000 mm 3,4 UV-I 539 W/m 16,1 C 25,7 C 11,5 km/h 100,00 %
20.06.2021 16:13 25,9 C 54 % 1007,8 hPa 0,0 l/m 5,4 km/h S-SW 211 0 min 0,000 mm 3,2 UV-I 227 W/m 15,9 C 25,9 C 7,7 km/h 100,00 %
20.06.2021 16:12 26,0 C 54 % 1007,8 hPa 0,0 l/m 7,7 km/h S-SW 195 0 min 0,000 mm 2,4 UV-I 227 W/m 16,0 C 25,7 C 11,5 km/h 100,00 %
20.06.2021 16:11 26,1 C 54 % 1007,8 hPa 0,0 l/m 8,1 km/h S-SW 208 0 min 0,000 mm 2,1 UV-I 225 W/m 16,0 C 25,7 C 11,5 km/h 95,83 %
20.06.2021 16:10 26,2 C 55 % 1007,8 hPa 0,0 l/m 4,6 km/h SW 227 0 min 0,000 mm 2,1 UV-I 222 W/m 16,4 C 26,2 C 11,5 km/h 100,00 %
20.06.2021 16:09 26,2 C 55 % 1007,8 hPa 0,0 l/m 4,9 km/h S-SW 213 0 min 0,000 mm 2,2 UV-I 276 W/m 16,4 C 26,2 C 7,7 km/h 100,00 %
20.06.2021 16:08 26,2 C 54 % 1007,8 hPa 0,0 l/m 2,2 km/h S-SW 208 0 min 0,000 mm 2,3 UV-I 276 W/m 16,1 C 26,2 C 5,7 km/h 100,00 %
20.06.2021 16:07 26,3 C 53 % 1007,8 hPa 0,0 l/m 9,0 km/h S-SW 209 1 min 0,000 mm 2,2 UV-I 525 W/m 15,9 C 25,8 C 13,4 km/h 100,00 %
20.06.2021 16:06 26,4 C 53 % 1007,8 hPa 0,0 l/m 13,8 km/h SW 219 1 min 0,000 mm 3,3 UV-I 670 W/m 16,0 C 25,2 C 21,0 km/h 100,00 %
20.06.2021 16:05 26,5 C 53 % 1007,8 hPa 0,0 l/m 8,2 km/h SW 232 1 min 0,000 mm 3,4 UV-I 626 W/m 16,1 C 26,1 C 17,2 km/h 100,00 %
20.06.2021 16:04 26,5 C 55 % 1007,8 hPa 0,0 l/m 7,4 km/h SW 235 1 min 0,000 mm 3,2 UV-I 585 W/m 16,7 C 26,3 C 11,5 km/h 100,00 %
20.06.2021 16:03 26,4 C 54 % 1007,8 hPa 0,0 l/m 5,2 km/h S-SW 212 1 min 0,000 mm 3,3 UV-I 589 W/m 16,3 C 26,4 C 11,5 km/h 100,00 %
20.06.2021 16:02 26,5 C 53 % 1007,8 hPa 0,0 l/m 3,7 km/h S-SW 209 1 min 0,000 mm 3,2 UV-I 589 W/m 16,1 C 26,5 C 7,7 km/h 96,30 %
20.06.2021 16:01 26,5 C 53 % 1007,9 hPa 0,0 l/m 8,1 km/h SW 226 1 min 0,457 mm 3,2 UV-I 695 W/m 16,1 C 26,2 C 17,2 km/h 95,83 %
20.06.2021 16:00 26,5 C 55 % 1007,9 hPa 0,0 l/m 8,5 km/h W-SW 248 1 min 0,000 mm 3,7 UV-I 777 W/m 16,7 C 26,1 C 17,2 km/h 100,00 %
20.06.2021 15:59 26,4 C 54 % 1007,9 hPa 0,0 l/m 5,5 km/h S-SW 210 1 min 0,000 mm 4,0 UV-I 850 W/m 16,3 C 26,4 C 7,7 km/h 100,00 %
20.06.2021 15:58 26,3 C 55 % 1007,9 hPa 0,0 l/m 7,7 km/h SW 224 1 min 0,000 mm 3,7 UV-I 860 W/m 16,5 C 26,0 C 11,5 km/h 100,00 %
20.06.2021 15:57 26,1 C 55 % 1007,9 hPa 0,0 l/m 6,5 km/h SW 218 1 min 0,000 mm 3,9 UV-I 860 W/m 16,3 C 26,1 C 9,6 km/h 100,00 %
20.06.2021 15:56 26,1 C 55 % 1008,0 hPa 0,0 l/m 5,7 km/h W-SW 255 1 min 0,000 mm 4,2 UV-I 863 W/m 16,3 C 26,1 C 13,4 km/h 100,00 %
20.06.2021 15:55 25,9 C 56 % 1008,0 hPa 0,0 l/m 8,2 km/h W-SW 244 1 min 0,000 mm 4,3 UV-I 869 W/m 16,4 C 25,5 C 13,4 km/h 100,00 %
20.06.2021 15:54 25,8 C 56 % 1008,0 hPa 0,0 l/m 7,5 km/h S-SO 165 1 min 0,000 mm 4,2 UV-I 815 W/m 16,3 C 25,6 C 13,4 km/h 100,00 %
20.06.2021 15:53 25,8 C 55 % 1008,0 hPa 0,0 l/m 8,8 km/h SW 219 1 min 0,000 mm 4,0 UV-I 855 W/m 16,1 C 25,3 C 11,5 km/h 100,00 %
20.06.2021 15:52 25,9 C 54 % 1008,1 hPa 0,0 l/m 8,0 km/h S 186 1 min 0,000 mm 4,3 UV-I 898 W/m 15,9 C 25,5 C 9,6 km/h 100,00 %
20.06.2021 15:51 25,9 C 55 % 1008,1 hPa 0,0 l/m 8,2 km/h S 175 1 min 0,000 mm 4,4 UV-I 866 W/m 16,2 C 25,5 C 15,3 km/h 100,00 %
20.06.2021 15:50 25,8 C 57 % 1008,1 hPa 0,0 l/m 8,9 km/h S-SW 212 1 min 0,000 mm 3,4 UV-I 780 W/m 16,6 C 25,3 C 13,4 km/h 100,00 %
20.06.2021 15:49 25,8 C 56 % 1008,1 hPa 0,0 l/m 5,7 km/h S-SW 194 1 min 0,000 mm 3,5 UV-I 780 W/m 16,3 C 25,8 C 9,6 km/h 100,00 %
20.06.2021 15:48 25,7 C 56 % 1008,1 hPa 0,0 l/m 3,4 km/h SW 224 1 min 0,000 mm 4,0 UV-I 807 W/m 16,2 C 25,7 C 5,7 km/h 100,00 %
20.06.2021 15:47 25,7 C 58 % 1008,1 hPa 0,0 l/m 8,4 km/h SW 224 1 min 0,000 mm 3,8 UV-I 768 W/m 16,8 C 25,3 C 13,4 km/h 91,67 %
20.06.2021 15:46 25,6 C 57 % 1008,1 hPa 0,0 l/m 4,1 km/h S-SW 210 1 min 0,000 mm 3,9 UV-I 773 W/m 16,4 C 25,6 C 7,7 km/h 96,55 %
20.06.2021 15:45 25,6 C 57 % 1008,0 hPa 0,0 l/m 2,6 km/h S-SW 210 1 min 0,000 mm 3,5 UV-I 773 W/m 16,4 C 25,6 C 3,8 km/h 100,00 %
20.06.2021 15:44 25,5 C 57 % 1008,1 hPa 0,0 l/m 6,5 km/h S-SW 210 1 min 0,000 mm 3,8 UV-I 773 W/m 16,3 C 25,5 C 9,6 km/h 96,15 %
20.06.2021 15:43 25,4 C 57 % 1008,1 hPa 0,0 l/m 3,2 km/h W-SW 242 1 min 0,000 mm 4,1 UV-I 789 W/m 16,2 C 25,4 C 5,7 km/h 100,00 %
20.06.2021 15:42 25,3 C 56 % 1008,1 hPa 0,0 l/m 5,3 km/h W-SW 242 1 min 0,000 mm 4,1 UV-I 810 W/m 15,9 C 25,3 C 7,7 km/h 100,00 %
20.06.2021 15:41 25,3 C 56 % 1008,1 hPa 0,0 l/m 4,9 km/h W-NW 294 1 min 0,000 mm 4,0 UV-I 771 W/m 15,9 C 25,3 C 13,4 km/h 100,00 %
20.06.2021 15:40 25,3 C 56 % 1008,1 hPa 0,0 l/m 3,3 km/h NW 309 1 min 0,000 mm 3,9 UV-I 724 W/m 15,9 C 25,3 C 5,7 km/h 100,00 %
20.06.2021 15:39 25,4 C 56 % 1008,2 hPa 0,0 l/m 6,3 km/h W-NW 300 1 min 0,000 mm 4,0 UV-I 767 W/m 16,0 C 25,4 C 13,4 km/h 96,30 %
20.06.2021 15:38 25,4 C 56 % 1008,2 hPa 0,0 l/m 5,8 km/h S-SW 203 1 min 0,000 mm 4,2 UV-I 820 W/m 16,0 C 25,4 C 7,7 km/h 100,00 %
20.06.2021 15:37 25,4 C 57 % 1008,2 hPa 0,0 l/m 8,1 km/h S-SW 200 1 min 0,000 mm 4,4 UV-I 743 W/m 16,2 C 25,0 C 11,5 km/h 100,00 %
20.06.2021 15:36 25,4 C 57 % 1008,2 hPa 0,0 l/m 11,1 km/h SW 222 1 min 0,000 mm 4,2 UV-I 710 W/m 16,2 C 24,4 C 23,0 km/h 96,55 %
20.06.2021 15:35 25,4 C 57 % 1008,2 hPa 0,0 l/m 7,6 km/h S 169 1 min 0,000 mm 3,1 UV-I 710 W/m 16,2 C 25,1 C 13,4 km/h 100,00 %
20.06.2021 15:34 25,4 C 56 % 1008,2 hPa 0,0 l/m 9,2 km/h S-SW 192 1 min 0,000 mm 3,8 UV-I 709 W/m 16,0 C 24,8 C 15,3 km/h 100,00 %
20.06.2021 15:33 25,5 C 58 % 1008,3 hPa 0,0 l/m 8,8 km/h S-SW 212 1 min 0,000 mm 3,8 UV-I 680 W/m 16,6 C 25,0 C 15,3 km/h 100,00 %
20.06.2021 15:32 25,4 C 57 % 1008,3 hPa 0,0 l/m 5,1 km/h SW 215 1 min 0,000 mm 3,5 UV-I 631 W/m 16,2 C 25,4 C 7,7 km/h 100,00 %
20.06.2021 15:31 25,4 C 56 % 1008,3 hPa 0,0 l/m 3,4 km/h S-SW 200 1 min 0,000 mm 3,8 UV-I 660 W/m 16,0 C 25,4 C 7,7 km/h 100,00 %
20.06.2021 15:30 25,4 C 56 % 1008,2 hPa 0,0 l/m 1,0 km/h S-SW 200 1 min 0,000 mm 3,6 UV-I 614 W/m 16,0 C 25,4 C 3,8 km/h 100,00 %
20.06.2021 15:29 25,4 C 57 % 1008,2 hPa 0,0 l/m 6,0 km/h S-SW 200 1 min 0,000 mm 4,1 UV-I 599 W/m 16,2 C 25,4 C 7,7 km/h 100,00 %
20.06.2021 15:28 25,4 C 57 % 1008,2 hPa 0,0 l/m 4,2 km/h S-SW 199 1 min 0,000 mm 4,1 UV-I 599 W/m 16,2 C 25,4 C 7,7 km/h 100,00 %
20.06.2021 15:27 25,4 C 56 % 1008,2 hPa 0,0 l/m 6,5 km/h SO 146 1 min 0,000 mm 3,3 UV-I 579 W/m 16,0 C 25,4 C 9,6 km/h 95,65 %
20.06.2021 15:26 25,4 C 57 % 1008,3 hPa 0,0 l/m 8,3 km/h S 188 1 min 0,000 mm 3,2 UV-I 550 W/m 16,2 C 25,0 C 13,4 km/h 100,00 %
20.06.2021 15:25 25,4 C 57 % 1008,2 hPa 0,0 l/m 12,4 km/h SW 220 1 min 0,000 mm 3,0 UV-I 530 W/m 16,2 C 24,2 C 17,2 km/h 100,00 %
20.06.2021 15:24 25,4 C 57 % 1008,3 hPa 0,0 l/m 5,9 km/h S-SW 201 1 min 0,000 mm 2,8 UV-I 597 W/m 16,2 C 25,4 C 11,5 km/h 100,00 %
20.06.2021 15:23 25,4 C 57 % 1008,3 hPa 0,0 l/m 13,6 km/h SW 219 1 min 0,000 mm 3,4 UV-I 643 W/m 16,2 C 24,0 C 19,1 km/h 100,00 %
20.06.2021 15:22 25,4 C 57 % 1008,3 hPa 0,0 l/m 13,1 km/h SW 219 1 min 0,000 mm 2,9 UV-I 812 W/m 16,2 C 24,1 C 19,1 km/h 100,00 %
20.06.2021 15:21 25,3 C 57 % 1008,3 hPa 0,0 l/m 13,3 km/h W-SW 237 1 min 0,000 mm 3,4 UV-I 812 W/m 16,2 C 23,9 C 19,1 km/h 100,00 %
20.06.2021 15:20 25,2 C 56 % 1008,3 hPa 0,0 l/m 7,1 km/h N 11 1 min 0,000 mm 4,0 UV-I 812 W/m 15,8 C 25,0 C 15,3 km/h 100,00 %
20.06.2021 15:19 25,2 C 57 % 1008,3 hPa 0,0 l/m 4,9 km/h W-NW 288 1 min 0,000 mm 4,0 UV-I 820 W/m 16,1 C 25,2 C 7,7 km/h 100,00 %
20.06.2021 15:18 25,1 C 57 % 1008,4 hPa 0,0 l/m 7,1 km/h SW 221 1 min 0,000 mm 4,2 UV-I 824 W/m 16,0 C 24,9 C 11,5 km/h 100,00 %
20.06.2021 15:17 25,1 C 57 % 1008,4 hPa 0,0 l/m 6,8 km/h W-SW 246 1 min 0,000 mm 4,1 UV-I 793 W/m 16,0 C 25,0 C 13,4 km/h 100,00 %
20.06.2021 15:16 25,1 C 57 % 1008,4 hPa 0,0 l/m 10,4 km/h SW 232 1 min 0,000 mm 3,8 UV-I 615 W/m 16,0 C 24,2 C 13,4 km/h 100,00 %
20.06.2021 15:15 25,1 C 56 % 1008,4 hPa 0,0 l/m 9,0 km/h SW 223 1 min 0,000 mm 3,0 UV-I 313 W/m 15,7 C 24,5 C 13,4 km/h 100,00 %
20.06.2021 15:14 25,2 C 56 % 1008,5 hPa 0,0 l/m 11,7 km/h W-SW 242 1 min 0,000 mm 2,4 UV-I 292 W/m 15,8 C 24,1 C 17,2 km/h 100,00 %
20.06.2021 15:13 25,2 C 57 % 1008,5 hPa 0,0 l/m 8,6 km/h W-SW 243 0 min 0,000 mm 2,3 UV-I 268 W/m 16,1 C 24,7 C 11,5 km/h 100,00 %
20.06.2021 15:12 25,2 C 56 % 1008,5 hPa 0,0 l/m 7,5 km/h S-SW 198 1 min 0,000 mm 2,8 UV-I 705 W/m 15,8 C 24,9 C 11,5 km/h 100,00 %
20.06.2021 15:11 25,2 C 56 % 1008,5 hPa 0,0 l/m 14,1 km/h S 188 1 min 0,000 mm 3,8 UV-I 714 W/m 15,8 C 23,7 C 21,0 km/h 100,00 %
20.06.2021 15:10 25,2 C 56 % 1008,5 hPa 0,0 l/m 14,5 km/h SW 232 1 min 0,000 mm 4,0 UV-I 705 W/m 15,8 C 23,6 C 23,0 km/h 100,00 %
20.06.2021 15:09 25,3 C 55 % 1008,5 hPa 0,0 l/m 15,6 km/h W-SW 257 1 min 0,000 mm 3,8 UV-I 591 W/m 15,6 C 23,6 C 23,0 km/h 100,00 %
20.06.2021 15:08 25,3 C 56 % 1008,4 hPa 0,0 l/m 14,4 km/h SW 233 1 min 0,000 mm 3,4 UV-I 389 W/m 15,9 C 23,8 C 23,0 km/h 100,00 %
20.06.2021 15:07 25,3 C 56 % 1008,4 hPa 0,0 l/m 10,4 km/h SW 234 0 min 0,000 mm 2,6 UV-I 244 W/m 15,9 C 24,4 C 17,2 km/h 100,00 %
20.06.2021 15:06 25,3 C 56 % 1008,3 hPa 0,0 l/m 7,5 km/h SW 233 0 min 0,000 mm 2,6 UV-I 241 W/m 15,9 C 25,0 C 11,5 km/h 100,00 %
20.06.2021 15:05 25,3 C 56 % 1008,3 hPa 0,0 l/m 7,1 km/h S 191 0 min 0,000 mm 2,9 UV-I 287 W/m 15,9 C 25,1 C 11,5 km/h 100,00 %
20.06.2021 15:04 25,3 C 56 % 1008,4 hPa 0,0 l/m 7,6 km/h S-SW 213 0 min 0,000 mm 4,4 UV-I 287 W/m 15,9 C 25,0 C 15,3 km/h 100,00 %
20.06.2021 15:03 25,3 C 55 % 1008,3 hPa 0,0 l/m 8,7 km/h W 269 0 min 0,000 mm 5,1 UV-I 287 W/m 15,6 C 24,8 C 17,2 km/h 96,30 %
20.06.2021 15:02 25,3 C 56 % 1008,3 hPa 0,0 l/m 10,0 km/h W-SW 246 0 min 0,000 mm 3,7 UV-I 287 W/m 15,9 C 24,5 C 19,1 km/h 100,00 %
20.06.2021 15:01 25,4 C 56 % 1008,3 hPa 0,0 l/m 6,8 km/h W-SW 243 1 min 0,508 mm 4,8 UV-I 323 W/m 16,0 C 25,3 C 9,6 km/h 100,00 %
20.06.2021 15:00 25,4 C 56 % 1008,3 hPa 0,0 l/m 5,6 km/h S-SW 198 0 min 0,000 mm 2,5 UV-I 248 W/m 16,0 C 25,4 C 11,5 km/h 95,65 %
20.06.2021 14:59 25,4 C 56 % 1008,3 hPa 0,0 l/m 7,6 km/h W-SW 253 0 min 0,000 mm 2,5 UV-I 247 W/m 16,0 C 25,1 C 9,6 km/h 100,00 %
20.06.2021 14:58 25,5 C 57 % 1008,4 hPa 0,0 l/m 5,7 km/h SW 231 0 min 0,000 mm 3,2 UV-I 264 W/m 16,3 C 25,5 C 9,6 km/h 100,00 %
20.06.2021 14:57 25,5 C 57 % 1008,4 hPa 0,0 l/m 3,4 km/h SW 219 0 min 0,000 mm 4,6 UV-I 264 W/m 16,3 C 25,5 C 7,7 km/h 100,00 %
20.06.2021 14:56 25,6 C 56 % 1008,4 hPa 0,0 l/m 4,0 km/h SW 219 0 min 0,000 mm 3,9 UV-I 264 W/m 16,2 C 25,6 C 7,7 km/h 100,00 %
20.06.2021 14:55 25,6 C 56 % 1008,4 hPa 0,0 l/m 5,4 km/h S 188 0 min 0,000 mm 2,5 UV-I 232 W/m 16,2 C 25,6 C 9,6 km/h 100,00 %
20.06.2021 14:54 25,7 C 57 % 1008,4 hPa 0,0 l/m 4,1 km/h S-SW 213 0 min 0,000 mm 2,4 UV-I 230 W/m 16,5 C 25,7 C 11,5 km/h 100,00 %
20.06.2021 14:53 25,7 C 56 % 1008,4 hPa 0,0 l/m 5,7 km/h SW 223 0 min 0,000 mm 2,6 UV-I 241 W/m 16,2 C 25,7 C 9,6 km/h 100,00 %
20.06.2021 14:52 25,7 C 55 % 1008,4 hPa 0,0 l/m 7,2 km/h W-SW 238 0 min 0,000 mm 2,7 UV-I 249 W/m 16,0 C 25,5 C 11,5 km/h 91,67 %
20.06.2021 14:51 25,8 C 55 % 1008,4 hPa 0,0 l/m 8,9 km/h SW 217 1 min 0,000 mm 2,7 UV-I 511 W/m 16,1 C 25,3 C 15,3 km/h 96,30 %
20.06.2021 14:50 25,9 C 56 % 1008,4 hPa 0,0 l/m 11,5 km/h S-SW 201 1 min 0,000 mm 2,9 UV-I 902 W/m 16,4 C 24,9 C 15,3 km/h 100,00 %
20.06.2021 14:49 25,8 C 58 % 1008,3 hPa 0,0 l/m 6,4 km/h SW 225 1 min 0,000 mm 3,2 UV-I 902 W/m 16,9 C 25,8 C 9,6 km/h 96,30 %
20.06.2021 14:48 25,7 C 58 % 1008,3 hPa 0,0 l/m 7,1 km/h S-SW 209 1 min 0,000 mm 5,0 UV-I 902 W/m 16,8 C 25,5 C 11,5 km/h 100,00 %
20.06.2021 14:47 25,6 C 56 % 1008,3 hPa 0,0 l/m 6,6 km/h S 190 1 min 0,000 mm 5,0 UV-I 954 W/m 16,2 C 25,6 C 11,5 km/h 96,15 %
20.06.2021 14:46 25,5 C 57 % 1008,3 hPa 0,0 l/m 4,9 km/h S-SW 194 1 min 0,000 mm 5,1 UV-I 963 W/m 16,3 C 25,5 C 11,5 km/h 100,00 %
20.06.2021 14:45 25,3 C 57 % 1008,3 hPa 0,0 l/m 1,9 km/h W-SW 248 1 min 0,000 mm 5,2 UV-I 950 W/m 16,2 C 25,3 C 3,8 km/h 92,86 %
20.06.2021 14:44 25,3 C 55 % 1008,3 hPa 0,0 l/m 1,4 km/h S-SO 161 1 min 0,000 mm 5,1 UV-I 941 W/m 15,6 C 25,3 C 3,8 km/h 100,00 %
20.06.2021 14:43 25,2 C 56 % 1008,3 hPa 0,0 l/m 1,5 km/h S-SO 161 1 min 0,000 mm 5,3 UV-I 1019 W/m 15,8 C 25,2 C 3,8 km/h 96,30 %
20.06.2021 14:42 25,2 C 54 % 1008,4 hPa 0,0 l/m 3,9 km/h S-SO 161 1 min 0,000 mm 5,2 UV-I 870 W/m 15,2 C 25,2 C 9,6 km/h 92,59 %
20.06.2021 14:41 25,3 C 55 % 1008,4 hPa 0,0 l/m 6,7 km/h S-SO 162 0 min 0,000 mm 5,0 UV-I 243 W/m 15,6 C 25,2 C 9,6 km/h 100,00 %
20.06.2021 14:40 25,4 C 55 % 1008,4 hPa 0,0 l/m 5,5 km/h S 178 0 min 0,000 mm 3,5 UV-I 243 W/m 15,7 C 25,4 C 9,6 km/h 95,83 %
20.06.2021 14:39 25,5 C 54 % 1008,4 hPa 0,0 l/m 10,7 km/h S-SW 207 0 min 0,000 mm 2,4 UV-I 246 W/m 15,5 C 24,6 C 15,3 km/h 100,00 %
20.06.2021 14:38 25,7 C 54 % 1008,4 hPa 0,0 l/m 9,6 km/h S-SW 211 0 min 0,000 mm 2,4 UV-I 232 W/m 15,7 C 25,0 C 19,1 km/h 95,83 %
20.06.2021 14:37 25,7 C 54 % 1008,4 hPa 0,0 l/m 7,5 km/h S-SW 194 1 min 0,000 mm 2,8 UV-I 715 W/m 15,7 C 25,4 C 13,4 km/h 100,00 %
20.06.2021 14:36 25,8 C 54 % 1008,4 hPa 0,0 l/m 10,5 km/h S-SO 164 1 min 0,000 mm 4,7 UV-I 788 W/m 15,8 C 25,0 C 17,2 km/h 96,30 %
20.06.2021 14:35 25,7 C 55 % 1008,4 hPa 0,0 l/m 5,5 km/h S-SO 151 1 min 0,000 mm 4,7 UV-I 788 W/m 16,0 C 25,7 C 7,7 km/h 96,15 %
20.06.2021 14:34 25,7 C 55 % 1008,4 hPa 0,0 l/m 9,1 km/h S-SW 203 1 min 0,000 mm 4,5 UV-I 827 W/m 16,0 C 25,1 C 19,1 km/h 100,00 %
20.06.2021 14:33 25,6 C 55 % 1008,4 hPa 0,0 l/m 6,2 km/h S 175 1 min 0,000 mm 4,8 UV-I 847 W/m 15,9 C 25,6 C 13,4 km/h 100,00 %
20.06.2021 14:32 25,5 C 55 % 1008,4 hPa 0,0 l/m 14,0 km/h SO 130 1 min 0,000 mm 4,8 UV-I 856 W/m 15,8 C 24,1 C 19,1 km/h 96,30 %
20.06.2021 14:31 25,4 C 54 % 1008,4 hPa 0,0 l/m 11,5 km/h S 180 1 min 0,000 mm 5,1 UV-I 947 W/m 15,4 C 24,3 C 21,0 km/h 96,30 %
20.06.2021 14:30 25,4 C 54 % 1008,4 hPa 0,0 l/m 12,3 km/h S 190 1 min 0,000 mm 5,2 UV-I 941 W/m 15,4 C 24,2 C 21,0 km/h 100,00 %
20.06.2021 14:29 25,4 C 54 % 1008,3 hPa 0,0 l/m 11,6 km/h S 191 1 min 0,000 mm 5,0 UV-I 884 W/m 15,4 C 24,3 C 19,1 km/h 91,67 %
20.06.2021 14:28 25,5 C 54 % 1008,3 hPa 0,0 l/m 9,5 km/h S 184 1 min 0,000 mm 4,6 UV-I 806 W/m 15,5 C 24,8 C 21,0 km/h 100,00 %
20.06.2021 14:27 25,5 C 53 % 1008,2 hPa 0,0 l/m 10,3 km/h SO 146 1 min 0,000 mm 4,6 UV-I 766 W/m 15,2 C 24,7 C 17,2 km/h 96,00 %
20.06.2021 14:26 25,6 C 53 % 1008,2 hPa 0,0 l/m 14,3 km/h SW 232 1 min 0,000 mm 4,9 UV-I 817 W/m 15,3 C 24,1 C 19,1 km/h 100,00 %
20.06.2021 14:25 25,7 C 54 % 1008,2 hPa 0,0 l/m 15,7 km/h SW 215 1 min 0,000 mm 5,0 UV-I 844 W/m 15,7 C 24,1 C 23,0 km/h 95,83 %
20.06.2021 14:24 25,7 C 54 % 1008,2 hPa 0,0 l/m 14,7 km/h S 191 1 min 0,000 mm 4,9 UV-I 596 W/m 15,7 C 24,2 C 19,1 km/h 100,00 %
20.06.2021 14:23 25,8 C 55 % 1008,2 hPa 0,0 l/m 14,6 km/h SW 221 1 min 0,000 mm 4,8 UV-I 596 W/m 16,1 C 24,3 C 23,0 km/h 95,83 %
20.06.2021 14:22 25,8 C 55 % 1008,2 hPa 0,0 l/m 11,3 km/h SW 224 1 min 0,000 mm 4,8 UV-I 596 W/m 16,1 C 24,8 C 21,0 km/h 95,65 %
20.06.2021 14:21 25,7 C 55 % 1008,2 hPa 0,0 l/m 13,2 km/h S 181 1 min 0,000 mm 3,9 UV-I 596 W/m 16,0 C 24,4 C 19,1 km/h 100,00 %
20.06.2021 14:20 25,6 C 55 % 1008,3 hPa 0,0 l/m 7,7 km/h W-SW 243 1 min 0,000 mm 4,7 UV-I 596 W/m 15,9 C 25,3 C 23,0 km/h 96,15 %
20.06.2021 14:19 25,6 C 55 % 1008,3 hPa 0,0 l/m 8,6 km/h SW 223 1 min 0,000 mm 4,9 UV-I 596 W/m 15,9 C 25,1 C 13,4 km/h 100,00 %
20.06.2021 14:18 25,6 C 55 % 1008,3 hPa 0,0 l/m 9,8 km/h SW 229 1 min 0,000 mm 4,0 UV-I 596 W/m 15,9 C 24,9 C 15,3 km/h 92,86 %
20.06.2021 14:17 25,6 C 55 % 1008,3 hPa 0,0 l/m 9,7 km/h SW 225 1 min 0,000 mm 4,1 UV-I 596 W/m 15,9 C 24,9 C 17,2 km/h 100,00 %
20.06.2021 14:16 25,6 C 55 % 1008,3 hPa 0,0 l/m 13,9 km/h S-SW 211 1 min 0,000 mm 4,2 UV-I 596 W/m 15,9 C 24,2 C 23,0 km/h 92,31 %
20.06.2021 14:15 25,6 C 55 % 1008,2 hPa 0,0 l/m 7,1 km/h S 177 1 min 0,000 mm 3,6 UV-I 919 W/m 15,9 C 25,4 C 11,5 km/h 95,83 %
20.06.2021 14:14 25,6 C 55 % 1008,3 hPa 0,0 l/m 9,7 km/h SW 229 1 min 0,000 mm 4,7 UV-I 1113 W/m 15,9 C 24,9 C 15,3 km/h 97,56 %
20.06.2021 14:13 25,6 C 56 % 1008,3 hPa 0,0 l/m 9,4 km/h S 191 1 min 0,000 mm 4,6 UV-I 1113 W/m 16,2 C 24,9 C 13,4 km/h 99,18 %
20.06.2021 14:12 25,6 C 56 % 1008,2 hPa 0,0 l/m 11,0 km/h S-SW 212 1 min 0,000 mm 5,5 UV-I 1114 W/m 16,2 C 24,6 C 19,1 km/h 100,00 %
20.06.2021 14:11 25,5 C 56 % 1008,2 hPa 0,0 l/m 10,0 km/h S 181 1 min 0,000 mm 5,7 UV-I 1124 W/m 16,1 C 24,7 C 15,3 km/h 96,30 %
20.06.2021 14:10 25,6 C 54 % 1008,2 hPa 0,0 l/m 12,5 km/h S-SW 213 1 min 0,000 mm 5,9 UV-I 1121 W/m 15,6 C 24,4 C 19,1 km/h 100,00 %
20.06.2021 14:09 25,7 C 54 % 1008,2 hPa 0,0 l/m 18,0 km/h SW 227 1 min 0,000 mm 5,5 UV-I 1114 W/m 15,7 C 23,8 C 23,0 km/h 92,31 %
20.06.2021 14:08 25,7 C 54 % 1008,2 hPa 0,0 l/m 9,9 km/h W-SW 237 1 min 0,000 mm 5,1 UV-I 1114 W/m 15,7 C 25,0 C 19,1 km/h 100,00 %
20.06.2021 14:07 25,7 C 54 % 1008,3 hPa 0,0 l/m 13,6 km/h S 182 1 min 0,000 mm 5,2 UV-I 1011 W/m 15,7 C 24,4 C 26,8 km/h 95,65 %
20.06.2021 14:06 25,7 C 55 % 1008,3 hPa 0,0 l/m 11,6 km/h SW 223 1 min 0,000 mm 4,2 UV-I 1007 W/m 16,0 C 24,7 C 19,1 km/h 100,00 %
20.06.2021 14:05 25,7 C 57 % 1008,3 hPa 0,0 l/m 14,9 km/h SW 215 1 min 0,000 mm 5,0 UV-I 1007 W/m 16,5 C 24,2 C 23,0 km/h 93,75 %
20.06.2021 14:04 25,7 C 57 % 1008,3 hPa 0,0 l/m 13,8 km/h S 169 1 min 0,000 mm 5,7 UV-I 1007 W/m 16,5 C 24,3 C 19,1 km/h 93,33 %
20.06.2021 14:03 25,6 C 56 % 1008,3 hPa 0,0 l/m 6,8 km/h S-SW 205 1 min 0,000 mm 5,9 UV-I 970 W/m 16,2 C 25,5 C 11,5 km/h 100,00 %
20.06.2021 14:02 25,6 C 57 % 1008,3 hPa 0,0 l/m 3,3 km/h S-SW 204 1 min 0,000 mm 5,6 UV-I 963 W/m 16,4 C 25,6 C 9,6 km/h 96,30 %
20.06.2021 14:01 25,4 C 58 % 1008,3 hPa 0,0 l/m 6,3 km/h S-SW 197 1 min 0,000 mm 3,8 UV-I 963 W/m 16,5 C 25,4 C 9,6 km/h 100,00 %
20.06.2021 14:00 25,4 C 58 % 1008,3 hPa 0,0 l/m 7,9 km/h SW 226 1 min 0,508 mm 5,8 UV-I 963 W/m 16,5 C 25,0 C 13,4 km/h 96,67 %
20.06.2021 13:59 25,3 C 56 % 1008,3 hPa 0,0 l/m 9,7 km/h W-SW 252 1 min 0,000 mm 5,4 UV-I 963 W/m 15,9 C 24,6 C 15,3 km/h 92,31 %
20.06.2021 13:58 25,3 C 56 % 1008,2 hPa 0,0 l/m 9,7 km/h W-SW 242 1 min 0,000 mm 5,2 UV-I 936 W/m 15,9 C 24,6 C 17,2 km/h 100,00 %
20.06.2021 13:57 25,3 C 57 % 1008,2 hPa 0,0 l/m 14,0 km/h SW 214 1 min 0,000 mm 5,1 UV-I 818 W/m 16,2 C 23,8 C 19,1 km/h 95,65 %
20.06.2021 13:56 25,4 C 56 % 1008,3 hPa 0,0 l/m 9,6 km/h S-SW 194 1 min 0,000 mm 3,8 UV-I 777 W/m 16,0 C 24,7 C 15,3 km/h 100,00 %
20.06.2021 13:55 25,4 C 57 % 1008,3 hPa 0,0 l/m 10,4 km/h S-SW 212 1 min 0,000 mm 5,1 UV-I 777 W/m 16,2 C 24,5 C 15,3 km/h 91,67 %
20.06.2021 13:54 25,4 C 57 % 1008,2 hPa 0,0 l/m 7,7 km/h S-SW 207 1 min 0,000 mm 4,7 UV-I 777 W/m 16,2 C 25,1 C 11,5 km/h 100,00 %
20.06.2021 13:53 25,4 C 57 % 1008,3 hPa 0,0 l/m 7,6 km/h SW 236 1 min 0,000 mm 4,2 UV-I 752 W/m 16,2 C 25,1 C 15,3 km/h 96,55 %
20.06.2021 13:52 25,4 C 57 % 1008,4 hPa 0,0 l/m 9,1 km/h SW 229 1 min 0,000 mm 4,0 UV-I 502 W/m 16,2 C 24,8 C 15,3 km/h 96,43 %
20.06.2021 13:51 25,4 C 58 % 1008,3 hPa 0,0 l/m 10,8 km/h SW 214 1 min 0,000 mm 3,4 UV-I 408 W/m 16,5 C 24,5 C 15,3 km/h 100,00 %
20.06.2021 13:50 25,3 C 59 % 1008,4 hPa 0,0 l/m 10,4 km/h S-SW 194 1 min 0,000 mm 3,6 UV-I 408 W/m 16,7 C 24,4 C 15,3 km/h 100,00 %
20.06.2021 13:49 25,2 C 59 % 1008,4 hPa 0,0 l/m 6,2 km/h SW 227 1 min 0,000 mm 3,3 UV-I 440 W/m 16,6 C 25,2 C 9,6 km/h 96,00 %
20.06.2021 13:48 25,2 C 58 % 1008,3 hPa 0,0 l/m 3,0 km/h S-SW 207 1 min 0,000 mm 3,2 UV-I 594 W/m 16,3 C 25,2 C 5,7 km/h 95,65 %
20.06.2021 13:47 25,1 C 57 % 1008,3 hPa 0,0 l/m 4,2 km/h S-SW 207 1 min 0,000 mm 3,6 UV-I 594 W/m 16,0 C 25,1 C 7,7 km/h 100,00 %
20.06.2021 13:46 25,1 C 57 % 1008,3 hPa 0,0 l/m 12,2 km/h S-SW 206 1 min 0,000 mm 3,7 UV-I 620 W/m 16,0 C 23,9 C 19,1 km/h 96,15 %
20.06.2021 13:45 25,1 C 58 % 1008,4 hPa 0,0 l/m 5,9 km/h S 178 1 min 0,000 mm 3,7 UV-I 616 W/m 16,2 C 25,1 C 9,6 km/h 100,00 %
20.06.2021 13:44 25,0 C 58 % 1008,4 hPa 0,0 l/m 6,5 km/h S 182 1 min 0,000 mm 3,5 UV-I 613 W/m 16,1 C 25,0 C 13,4 km/h 95,65 %
20.06.2021 13:43 24,9 C 58 % 1008,4 hPa 0,0 l/m 5,0 km/h S-SW 206 1 min 0,000 mm 3,7 UV-I 807 W/m 16,1 C 24,9 C 15,3 km/h 100,00 %
20.06.2021 13:42 24,9 C 57 % 1008,4 hPa 0,0 l/m 6,5 km/h S 188 1 min 0,000 mm 3,9 UV-I 807 W/m 15,8 C 24,9 C 13,4 km/h 95,65 %
20.06.2021 13:41 24,9 C 56 % 1008,4 hPa 0,0 l/m 11,9 km/h W 264 1 min 0,000 mm 4,3 UV-I 807 W/m 15,5 C 23,7 C 17,2 km/h 96,30 %
20.06.2021 13:40 25,0 C 57 % 1008,5 hPa 0,0 l/m 14,4 km/h S 185 1 min 0,000 mm 4,4 UV-I 807 W/m 15,9 C 23,4 C 21,0 km/h 100,00 %
20.06.2021 13:39 25,1 C 58 % 1008,5 hPa 0,0 l/m 8,5 km/h S 178 1 min 0,000 mm 4,5 UV-I 688 W/m 16,2 C 24,6 C 17,2 km/h 96,30 %
20.06.2021 13:38 25,0 C 58 % 1008,5 hPa 0,0 l/m 6,0 km/h S 191 1 min 0,000 mm 4,1 UV-I 649 W/m 16,1 C 25,0 C 9,6 km/h 100,00 %
20.06.2021 13:37 25,0 C 58 % 1008,5 hPa 0,0 l/m 12,8 km/h S-SW 209 1 min 0,000 mm 3,7 UV-I 612 W/m 16,1 C 23,7 C 21,0 km/h 95,83 %
20.06.2021 13:36 24,9 C 58 % 1008,5 hPa 0,0 l/m 11,6 km/h S-SW 211 1 min 0,000 mm 3,9 UV-I 678 W/m 16,1 C 23,7 C 17,2 km/h 100,00 %
20.06.2021 13:35 24,9 C 58 % 1008,5 hPa 0,0 l/m 12,7 km/h SW 234 1 min 0,000 mm 4,3 UV-I 789 W/m 16,1 C 23,6 C 19,1 km/h 94,87 %
20.06.2021 13:34 24,8 C 58 % 1008,5 hPa 0,0 l/m 8,7 km/h S 189 1 min 0,000 mm 4,1 UV-I 641 W/m 16,0 C 24,2 C 17,2 km/h 92,86 %
20.06.2021 13:33 24,8 C 58 % 1008,4 hPa 0,0 l/m 7,3 km/h S-SW 213 1 min 0,000 mm 3,7 UV-I 582 W/m 16,0 C 24,6 C 11,5 km/h 100,00 %
20.06.2021 13:32 24,8 C 57 % 1008,4 hPa 0,0 l/m 8,7 km/h S-SW 207 1 min 0,000 mm 4,5 UV-I 463 W/m 15,7 C 24,2 C 15,3 km/h 100,00 %
20.06.2021 13:31 24,8 C 58 % 1008,4 hPa 0,0 l/m 9,9 km/h S-SW 202 1 min 0,000 mm 3,6 UV-I 450 W/m 16,0 C 24,0 C 15,3 km/h 96,15 %
20.06.2021 13:30 24,8 C 57 % 1008,5 hPa 0,0 l/m 11,7 km/h SW 217 1 min 0,000 mm 3,9 UV-I 401 W/m 15,7 C 23,6 C 21,0 km/h 96,15 %
20.06.2021 13:29 24,9 C 57 % 1008,5 hPa 0,0 l/m 15,6 km/h S 178 1 min 0,000 mm 4,5 UV-I 341 W/m 15,8 C 23,1 C 24,9 km/h 96,30 %
20.06.2021 13:28 25,0 C 56 % 1008,4 hPa 0,0 l/m 7,5 km/h S 179 1 min 0,000 mm 2,9 UV-I 341 W/m 15,6 C 24,7 C 15,3 km/h 93,33 %
20.06.2021 13:27 25,1 C 56 % 1008,5 hPa 0,0 l/m 12,8 km/h SW 218 1 min 0,000 mm 3,1 UV-I 483 W/m 15,7 C 23,8 C 19,1 km/h 100,00 %
20.06.2021 13:26 25,1 C 56 % 1008,5 hPa 0,0 l/m 11,8 km/h S 181 1 min 0,000 mm 3,9 UV-I 497 W/m 15,7 C 23,9 C 17,2 km/h 96,30 %
20.06.2021 13:25 25,2 C 56 % 1008,4 hPa 0,0 l/m 14,1 km/h W-SW 247 1 min 0,000 mm 3,8 UV-I 554 W/m 15,8 C 23,7 C 23,0 km/h 100,00 %
20.06.2021 13:24 25,2 C 57 % 1008,5 hPa 0,0 l/m 14,5 km/h SW 229 1 min 0,000 mm 4,2 UV-I 804 W/m 16,1 C 23,6 C 24,9 km/h 95,83 %
20.06.2021 13:23 25,2 C 58 % 1008,4 hPa 0,0 l/m 10,2 km/h S 179 1 min 0,000 mm 4,2 UV-I 1051 W/m 16,3 C 24,3 C 15,3 km/h 95,83 %
20.06.2021 13:22 25,2 C 58 % 1008,4 hPa 0,0 l/m 11,0 km/h S-SW 198 1 min 0,000 mm 4,3 UV-I 1051 W/m 16,3 C 24,2 C 19,1 km/h 100,00 %
20.06.2021 13:21 25,1 C 57 % 1008,3 hPa 0,0 l/m 7,0 km/h SW 225 1 min 0,000 mm 3,6 UV-I 1051 W/m 16,0 C 25,0 C 9,6 km/h 96,15 %
20.06.2021 13:20 25,1 C 58 % 1008,4 hPa 0,0 l/m 6,5 km/h S 186 1 min 0,000 mm 5,0 UV-I 987 W/m 16,2 C 25,1 C 11,5 km/h 100,00 %
20.06.2021 13:19 25,1 C 58 % 1008,4 hPa 0,0 l/m 7,9 km/h S-SW 202 1 min 0,000 mm 4,9 UV-I 410 W/m 16,2 C 24,7 C 19,1 km/h 96,15 %
20.06.2021 13:18 25,1 C 58 % 1008,5 hPa 0,0 l/m 12,0 km/h S-SO 159 1 min 0,000 mm 4,3 UV-I 410 W/m 16,2 C 23,9 C 17,2 km/h 100,00 %
20.06.2021 13:17 25,1 C 59 % 1008,5 hPa 0,0 l/m 6,7 km/h S 188 1 min 0,000 mm 3,3 UV-I 662 W/m 16,5 C 25,0 C 7,7 km/h 96,55 %
20.06.2021 13:16 25,0 C 59 % 1008,5 hPa 0,0 l/m 9,8 km/h SW 215 1 min 0,000 mm 5,8 UV-I 863 W/m 16,4 C 24,2 C 21,0 km/h 100,00 %
20.06.2021 13:15 24,9 C 58 % 1008,4 hPa 0,0 l/m 11,2 km/h S-SW 208 1 min 0,000 mm 5,0 UV-I 863 W/m 16,1 C 23,8 C 21,0 km/h 92,59 %
20.06.2021 13:14 24,9 C 57 % 1008,4 hPa 0,0 l/m 18,3 km/h S-SW 200 1 min 0,000 mm 5,6 UV-I 863 W/m 15,8 C 22,7 C 24,9 km/h 96,15 %
20.06.2021 13:13 24,9 C 57 % 1008,4 hPa 0,0 l/m 16,3 km/h S-SW 200 1 min 0,000 mm 5,8 UV-I 863 W/m 15,8 C 23,0 C 24,9 km/h 100,00 %
20.06.2021 13:12 25,1 C 56 % 1008,5 hPa 0,0 l/m 17,0 km/h SW 217 1 min 0,000 mm 5,8 UV-I 779 W/m 15,7 C 23,2 C 23,0 km/h 93,33 %
20.06.2021 13:11 25,1 C 56 % 1008,6 hPa 0,0 l/m 13,4 km/h S-SW 194 1 min 0,000 mm 5,0 UV-I 654 W/m 15,7 C 23,7 C 21,0 km/h 100,00 %
20.06.2021 13:10 25,2 C 56 % 1008,5 hPa 0,0 l/m 14,7 km/h SW 227 1 min 0,000 mm 4,1 UV-I 616 W/m 15,8 C 23,6 C 19,1 km/h 96,88 %
20.06.2021 13:09 25,2 C 57 % 1008,5 hPa 0,0 l/m 11,7 km/h W-SW 249 1 min 0,000 mm 3,8 UV-I 1078 W/m 16,1 C 24,1 C 17,2 km/h 100,00 %
20.06.2021 13:08 25,2 C 58 % 1008,5 hPa 0,0 l/m 12,8 km/h SW 229 1 min 0,000 mm 3,2 UV-I 1164 W/m 16,3 C 23,9 C 19,1 km/h 95,65 %
20.06.2021 13:07 25,1 C 59 % 1008,5 hPa 0,0 l/m 19,7 km/h S-SW 206 1 min 0,000 mm 5,0 UV-I 1164 W/m 16,5 C 22,8 C 26,8 km/h 100,00 %
20.06.2021 13:06 24,9 C 60 % 1008,5 hPa 0,0 l/m 16,3 km/h SW 216 1 min 0,000 mm 6,0 UV-I 1151 W/m 16,6 C 23,0 C 24,9 km/h 88,46 %
20.06.2021 13:05 24,8 C 59 % 1008,4 hPa 0,0 l/m 7,7 km/h S-SW 207 1 min 0,000 mm 5,8 UV-I 1122 W/m 16,2 C 24,5 C 13,4 km/h 95,83 %
20.06.2021 13:04 24,7 C 58 % 1008,4 hPa 0,0 l/m 11,8 km/h S-SO 163 1 min 0,000 mm 5,8 UV-I 1098 W/m 15,9 C 23,5 C 19,1 km/h 95,65 %
20.06.2021 13:03 24,7 C 58 % 1008,6 hPa 0,0 l/m 15,9 km/h S-SO 150 1 min 0,000 mm 5,6 UV-I 876 W/m 15,9 C 22,8 C 24,9 km/h 96,67 %
20.06.2021 13:02 24,8 C 58 % 1008,6 hPa 0,0 l/m 9,9 km/h S 190 1 min 0,000 mm 5,4 UV-I 885 W/m 16,0 C 24,0 C 19,1 km/h 100,00 %
20.06.2021 13:01 24,8 C 58 % 1008,6 hPa 0,0 l/m 12,1 km/h S 180 1 min 0,584 mm 5,3 UV-I 1025 W/m 16,0 C 23,5 C 19,1 km/h 100,00 %
20.06.2021 13:00 24,9 C 58 % 1008,6 hPa 0,0 l/m 16,4 km/h S 174 1 min 0,000 mm 5,5 UV-I 1025 W/m 16,1 C 23,0 C 21,0 km/h 100,00 %
20.06.2021 12:59 25,0 C 58 % 1008,7 hPa 0,0 l/m 13,2 km/h SO 141 1 min 0,000 mm 5,6 UV-I 1054 W/m 16,1 C 23,6 C 19,1 km/h 96,30 %
20.06.2021 12:58 25,1 C 58 % 1008,7 hPa 0,0 l/m 15,4 km/h S-SO 166 1 min 0,000 mm 5,4 UV-I 1063 W/m 16,2 C 23,4 C 21,0 km/h 96,15 %
20.06.2021 12:57 25,1 C 58 % 1008,7 hPa 0,0 l/m 17,3 km/h S-SW 197 1 min 0,000 mm 5,1 UV-I 1062 W/m 16,2 C 23,1 C 30,6 km/h 100,00 %
20.06.2021 12:56 25,1 C 58 % 1008,7 hPa 0,0 l/m 15,1 km/h S-SW 204 1 min 0,000 mm 5,5 UV-I 1058 W/m 16,2 C 23,4 C 24,9 km/h 100,00 %
20.06.2021 12:55 25,1 C 58 % 1008,7 hPa 0,0 l/m 15,1 km/h S-SW 205 1 min 0,000 mm 5,7 UV-I 1063 W/m 16,2 C 23,4 C 21,0 km/h 100,00 %
20.06.2021 12:54 25,0 C 58 % 1008,8 hPa 0,0 l/m 14,4 km/h SW 236 1 min 0,000 mm 5,7 UV-I 1070 W/m 16,1 C 23,4 C 23,0 km/h 100,00 %
20.06.2021 12:53 24,9 C 59 % 1008,7 hPa 0,0 l/m 8,6 km/h S 182 1 min 0,000 mm 5,5 UV-I 1031 W/m 16,3 C 24,4 C 19,1 km/h 100,00 %
20.06.2021 12:52 24,8 C 59 % 1008,7 hPa 0,0 l/m 9,3 km/h S 170 1 min 0,000 mm 5,3 UV-I 1036 W/m 16,2 C 24,1 C 15,3 km/h 100,00 %
20.06.2021 12:51 24,7 C 58 % 1008,8 hPa 0,0 l/m 10,6 km/h S 178 1 min 0,000 mm 5,1 UV-I 1044 W/m 15,9 C 23,7 C 17,2 km/h 100,00 %
20.06.2021 12:50 24,7 C 58 % 1008,8 hPa 0,0 l/m 9,8 km/h S 188 1 min 0,000 mm 5,6 UV-I 1046 W/m 15,9 C 23,9 C 17,2 km/h 96,30 %
20.06.2021 12:49 24,6 C 58 % 1008,7 hPa 0,0 l/m 17,3 km/h S 183 1 min 0,000 mm 5,7 UV-I 1065 W/m 15,8 C 22,5 C 26,8 km/h 92,31 %
20.06.2021 12:48 24,6 C 58 % 1008,7 hPa 0,0 l/m 13,9 km/h S 179 1 min 0,000 mm 5,6 UV-I 1002 W/m 15,8 C 23,0 C 23,0 km/h 100,00 %
20.06.2021 12:47 24,6 C 58 % 1008,7 hPa 0,0 l/m 18,2 km/h S-SW 203 1 min 0,000 mm 5,3 UV-I 918 W/m 15,8 C 22,4 C 26,8 km/h 96,15 %
20.06.2021 12:46 24,6 C 58 % 1008,7 hPa 0,0 l/m 17,6 km/h S 179 1 min 0,000 mm 5,5 UV-I 940 W/m 15,8 C 22,5 C 30,6 km/h 96,00 %
20.06.2021 12:45 24,6 C 59 % 1008,6 hPa 0,0 l/m 18,5 km/h S 170 1 min 0,000 mm 5,5 UV-I 974 W/m 16,0 C 22,3 C 24,9 km/h 100,00 %
20.06.2021 12:44 24,6 C 58 % 1008,8 hPa 0,0 l/m 14,4 km/h W-SW 240 1 min 0,000 mm 5,5 UV-I 976 W/m 15,8 C 22,9 C 26,8 km/h 100,00 %
20.06.2021 12:43 24,6 C 58 % 1008,8 hPa 0,0 l/m 17,3 km/h S 186 1 min 0,000 mm 5,5 UV-I 981 W/m 15,8 C 22,5 C 30,6 km/h 100,00 %
20.06.2021 12:42 24,6 C 59 % 1008,8 hPa 0,0 l/m 14,6 km/h S-SW 200 1 min 0,000 mm 5,5 UV-I 976 W/m 16,0 C 22,9 C 26,8 km/h 100,00 %
20.06.2021 12:41 24,6 C 60 % 1008,8 hPa 0,0 l/m 14,3 km/h S 182 1 min 0,000 mm 5,5 UV-I 737 W/m 16,3 C 22,9 C 23,0 km/h 96,15 %
20.06.2021 12:40 24,5 C 60 % 1008,8 hPa 0,0 l/m 15,1 km/h S 182 1 min 0,000 mm 4,5 UV-I 610 W/m 16,2 C 22,7 C 23,0 km/h 100,00 %
20.06.2021 12:39 24,4 C 60 % 1008,7 hPa 0,0 l/m 14,9 km/h S 173 1 min 0,000 mm 5,6 UV-I 610 W/m 16,1 C 22,6 C 23,0 km/h 100,00 %
20.06.2021 12:38 24,3 C 60 % 1008,7 hPa 0,0 l/m 16,2 km/h S-SW 211 1 min 0,000 mm 5,6 UV-I 610 W/m 16,0 C 22,3 C 24,9 km/h 100,00 %
20.06.2021 12:37 24,2 C 62 % 1008,8 hPa 0,0 l/m 10,9 km/h SW 226 1 min 0,000 mm 5,0 UV-I 610 W/m 16,4 C 23,1 C 19,1 km/h 100,00 %
20.06.2021 12:36 24,1 C 62 % 1008,8 hPa 0,0 l/m 8,4 km/h S-SO 157 1 min 0,000 mm 5,5 UV-I 889 W/m 16,4 C 23,6 C 19,1 km/h 100,00 %
20.06.2021 12:35 23,9 C 62 % 1008,8 hPa 0,0 l/m 13,4 km/h SW 221 1 min 0,000 mm 5,8 UV-I 1125 W/m 16,2 C 22,3 C 21,0 km/h 100,00 %
20.06.2021 12:34 23,9 C 61 % 1008,8 hPa 0,0 l/m 14,3 km/h S-SW 203 1 min 0,000 mm 5,5 UV-I 463 W/m 15,9 C 22,1 C 23,0 km/h 100,00 %
20.06.2021 12:33 23,8 C 61 % 1008,8 hPa 0,0 l/m 14,0 km/h S 176 1 min 0,000 mm 4,0 UV-I 346 W/m 15,8 C 22,0 C 23,0 km/h 100,00 %
20.06.2021 12:32 23,9 C 61 % 1008,8 hPa 0,0 l/m 11,3 km/h S 169 1 min 0,000 mm 2,9 UV-I 407 W/m 15,9 C 22,7 C 19,1 km/h 95,65 %
20.06.2021 12:31 23,9 C 61 % 1008,8 hPa 0,0 l/m 8,7 km/h S-SO 156 1 min 0,000 mm 3,2 UV-I 554 W/m 15,9 C 23,3 C 15,3 km/h 100,00 %
20.06.2021 12:30 23,9 C 61 % 1008,9 hPa 0,0 l/m 14,0 km/h S-SO 167 1 min 0,000 mm 3,7 UV-I 495 W/m 15,9 C 22,1 C 19,1 km/h 100,00 %
20.06.2021 12:29 24,0 C 61 % 1008,9 hPa 0,0 l/m 11,4 km/h S 178 1 min 0,000 mm 3,3 UV-I 455 W/m 16,0 C 22,8 C 15,3 km/h 100,00 %
20.06.2021 12:28 24,1 C 61 % 1008,9 hPa 0,0 l/m 9,6 km/h S-SW 211 1 min 0,000 mm 3,0 UV-I 455 W/m 16,1 C 23,3 C 17,2 km/h 100,00 %
20.06.2021 12:27 24,2 C 60 % 1008,9 hPa 0,0 l/m 14,2 km/h S 180 1 min 0,000 mm 2,7 UV-I 371 W/m 15,9 C 22,5 C 17,2 km/h 100,00 %
20.06.2021 12:26 24,2 C 60 % 1008,9 hPa 0,0 l/m 14,9 km/h S-SO 161 1 min 0,000 mm 2,5 UV-I 333 W/m 15,9 C 22,4 C 23,0 km/h 100,00 %
20.06.2021 12:25 24,3 C 59 % 1008,9 hPa 0,0 l/m 11,6 km/h W-SW 243 1 min 0,000 mm 2,5 UV-I 392 W/m 15,8 C 23,1 C 21,0 km/h 100,00 %
20.06.2021 12:24 24,3 C 59 % 1008,8 hPa 0,0 l/m 14,4 km/h S 180 1 min 0,000 mm 2,9 UV-I 473 W/m 15,8 C 22,6 C 19,1 km/h 100,00 %
20.06.2021 12:23 24,4 C 59 % 1008,8 hPa 0,0 l/m 15,6 km/h S 177 1 min 0,000 mm 3,3 UV-I 580 W/m 15,9 C 22,5 C 23,0 km/h 95,83 %
20.06.2021 12:22 24,4 C 60 % 1008,8 hPa 0,0 l/m 13,6 km/h S 173 1 min 0,000 mm 3,6 UV-I 615 W/m 16,1 C 22,8 C 26,8 km/h 100,00 %
20.06.2021 12:21 24,5 C 59 % 1008,8 hPa 0,0 l/m 14,9 km/h S 187 1 min 0,000 mm 3,8 UV-I 640 W/m 15,9 C 22,7 C 30,6 km/h 100,00 %
20.06.2021 12:20 24,6 C 60 % 1008,8 hPa 0,0 l/m 19,5 km/h S-SW 196 1 min 0,000 mm 3,7 UV-I 757 W/m 16,3 C 22,2 C 34,4 km/h 95,65 %
20.06.2021 12:19 24,6 C 61 % 1008,8 hPa 0,0 l/m 13,6 km/h SW 226 1 min 0,000 mm 3,2 UV-I 1009 W/m 16,6 C 23,0 C 19,1 km/h 100,00 %
20.06.2021 12:18 24,5 C 60 % 1008,8 hPa 0,0 l/m 7,6 km/h SW 229 1 min 0,000 mm 3,5 UV-I 1009 W/m 16,2 C 24,2 C 17,2 km/h 100,00 %
20.06.2021 12:17 24,4 C 60 % 1008,8 hPa 0,0 l/m 11,4 km/h S 183 1 min 0,000 mm 5,0 UV-I 1009 W/m 16,1 C 23,2 C 17,2 km/h 100,00 %
20.06.2021 12:16 24,4 C 59 % 1008,9 hPa 0,0 l/m 18,4 km/h S-SW 205 1 min 0,000 mm 5,4 UV-I 1027 W/m 15,9 C 22,1 C 23,0 km/h 96,15 %
20.06.2021 12:15 24,4 C 61 % 1008,8 hPa 0,0 l/m 15,1 km/h S-SW 201 1 min 0,000 mm 5,1 UV-I 965 W/m 16,4 C 22,6 C 21,0 km/h 96,30 %
20.06.2021 12:14 24,4 C 61 % 1008,8 hPa 0,0 l/m 18,3 km/h S-SW 207 1 min 0,000 mm 5,1 UV-I 968 W/m 16,4 C 22,1 C 38,3 km/h 100,00 %
20.06.2021 12:13 24,3 C 61 % 1008,8 hPa 0,0 l/m 17,5 km/h SW 225 1 min 0,000 mm 5,3 UV-I 998 W/m 16,3 C 22,1 C 26,8 km/h 100,00 %
20.06.2021 12:12 24,3 C 61 % 1008,8 hPa 0,0 l/m 15,4 km/h S-SW 211 1 min 0,000 mm 5,2 UV-I 974 W/m 16,3 C 22,4 C 23,0 km/h 100,00 %
20.06.2021 12:11 24,3 C 61 % 1008,8 hPa 0,0 l/m 14,5 km/h S-SW 197 1 min 0,000 mm 5,2 UV-I 966 W/m 16,3 C 22,5 C 26,8 km/h 100,00 %
20.06.2021 12:10 24,3 C 61 % 1008,7 hPa 0,0 l/m 15,4 km/h S 190 1 min 0,000 mm 5,2 UV-I 965 W/m 16,3 C 22,4 C 26,8 km/h 100,00 %
20.06.2021 12:09 24,3 C 61 % 1008,8 hPa 0,0 l/m 18,1 km/h S-SO 158 1 min 0,000 mm 5,2 UV-I 960 W/m 16,3 C 22,0 C 30,6 km/h 100,00 %
20.06.2021 12:08 24,3 C 61 % 1008,8 hPa 0,0 l/m 14,8 km/h SO 141 1 min 0,000 mm 5,2 UV-I 957 W/m 16,3 C 22,5 C 21,0 km/h 100,00 %
20.06.2021 12:07 24,3 C 62 % 1008,8 hPa 0,0 l/m 17,3 km/h S-SW 211 1 min 0,000 mm 5,1 UV-I 952 W/m 16,5 C 22,1 C 30,6 km/h 100,00 %
20.06.2021 12:06 24,2 C 62 % 1008,8 hPa 0,0 l/m 14,4 km/h SW 234 1 min 0,000 mm 5,1 UV-I 954 W/m 16,4 C 22,4 C 24,9 km/h 100,00 %
20.06.2021 12:05 24,2 C 62 % 1008,8 hPa 0,0 l/m 13,8 km/h SW 217 1 min 0,000 mm 5,1 UV-I 907 W/m 16,4 C 22,5 C 21,0 km/h 96,15 %
20.06.2021 12:04 24,2 C 62 % 1008,8 hPa 0,0 l/m 13,7 km/h S 186 1 min 0,000 mm 5,0 UV-I 895 W/m 16,4 C 22,6 C 19,1 km/h 100,00 %
20.06.2021 12:03 24,1 C 64 % 1008,8 hPa 0,0 l/m 12,3 km/h SW 217 1 min 0,000 mm 4,9 UV-I 893 W/m 16,9 C 22,7 C 19,1 km/h 100,00 %
20.06.2021 12:02 24,0 C 64 % 1008,7 hPa 0,0 l/m 11,8 km/h S 177 1 min 0,000 mm 4,9 UV-I 889 W/m 16,8 C 22,7 C 21,0 km/h 100,00 %
20.06.2021 12:01 23,9 C 63 % 1008,7 hPa 0,0 l/m 11,0 km/h SW 233 1 min 0,381 mm 4,9 UV-I 870 W/m 16,4 C 22,7 C 15,3 km/h 100,00 %
20.06.2021 12:00 23,9 C 63 % 1008,7 hPa 0,0 l/m 11,6 km/h SW 215 1 min 0,000 mm 4,8 UV-I 863 W/m 16,4 C 22,6 C 21,0 km/h 100,00 %
20.06.2021 11:59 23,9 C 64 % 1008,7 hPa 0,0 l/m 15,2 km/h S-SW 207 1 min 0,000 mm 4,7 UV-I 871 W/m 16,7 C 21,9 C 21,0 km/h 100,00 %
20.06.2021 11:58 23,8 C 65 % 1008,8 hPa 0,0 l/m 14,8 km/h SW 219 1 min 0,000 mm 4,8 UV-I 908 W/m 16,8 C 21,9 C 21,0 km/h 100,00 %
20.06.2021 11:57 23,8 C 64 % 1008,7 hPa 0,0 l/m 13,5 km/h S-SW 196 1 min 0,000 mm 4,9 UV-I 692 W/m 16,6 C 22,1 C 21,0 km/h 95,65 %
20.06.2021 11:56 23,7 C 64 % 1008,6 hPa 0,0 l/m 10,9 km/h SW 233 0 min 0,000 mm 4,4 UV-I 229 W/m 16,5 C 22,5 C 19,1 km/h 100,00 %
20.06.2021 11:55 23,7 C 63 % 1008,6 hPa 0,0 l/m 10,7 km/h S 174 1 min 0,000 mm 2,6 UV-I 707 W/m 16,2 C 22,6 C 17,2 km/h 100,00 %
20.06.2021 11:54 23,6 C 65 % 1008,6 hPa 0,0 l/m 17,9 km/h SW 215 1 min 0,000 mm 4,6 UV-I 912 W/m 16,6 C 21,2 C 24,9 km/h 100,00 %
20.06.2021 11:53 23,6 C 64 % 1008,6 hPa 0,0 l/m 13,6 km/h SW 215 1 min 0,000 mm 4,0 UV-I 912 W/m 16,4 C 21,9 C 26,8 km/h 100,00 %
20.06.2021 11:52 23,5 C 64 % 1008,6 hPa 0,0 l/m 19,1 km/h S-SW 212 1 min 0,000 mm 4,9 UV-I 912 W/m 16,3 C 20,9 C 30,6 km/h 95,83 %
20.06.2021 11:51 23,5 C 65 % 1008,6 hPa 0,0 l/m 16,9 km/h SW 224 1 min 0,000 mm 4,8 UV-I 911 W/m 16,5 C 21,2 C 28,7 km/h 100,00 %
20.06.2021 11:50 23,4 C 65 % 1008,6 hPa 0,0 l/m 16,2 km/h S 191 1 min 0,000 mm 3,8 UV-I 907 W/m 16,4 C 21,2 C 24,9 km/h 96,15 %
20.06.2021 11:49 23,4 C 66 % 1008,6 hPa 0,0 l/m 18,6 km/h S-SO 167 1 min 0,000 mm 3,0 UV-I 907 W/m 16,7 C 20,8 C 28,7 km/h 100,00 %
20.06.2021 11:48 23,4 C 66 % 1008,6 hPa 0,0 l/m 14,5 km/h S-SW 205 1 min 0,000 mm 4,6 UV-I 950 W/m 16,7 C 21,5 C 23,0 km/h 95,65 %
20.06.2021 11:47 23,3 C 66 % 1008,5 hPa 0,0 l/m 15,4 km/h S 183 1 min 0,000 mm 4,8 UV-I 943 W/m 16,6 C 21,2 C 21,0 km/h 100,00 %
20.06.2021 11:46 23,3 C 66 % 1008,6 hPa 0,0 l/m 14,3 km/h S-SW 194 1 min 0,000 mm 4,7 UV-I 967 W/m 16,6 C 21,4 C 17,2 km/h 100,00 %
20.06.2021 11:45 23,3 C 66 % 1008,6 hPa 0,0 l/m 15,5 km/h S-SW 199 1 min 0,000 mm 3,5 UV-I 983 W/m 16,6 C 21,2 C 23,0 km/h 100,00 %
20.06.2021 11:44 23,2 C 67 % 1008,7 hPa 0,0 l/m 14,9 km/h W-SW 253 1 min 0,000 mm 3,1 UV-I 983 W/m 16,7 C 21,1 C 19,1 km/h 100,00 %
20.06.2021 11:43 23,1 C 67 % 1008,7 hPa 0,0 l/m 12,4 km/h S-SW 203 1 min 0,000 mm 3,6 UV-I 643 W/m 16,6 C 21,5 C 17,2 km/h 100,00 %
20.06.2021 11:42 23,1 C 67 % 1008,7 hPa 0,0 l/m 10,7 km/h S-SW 194 1 min 0,000 mm 3,3 UV-I 408 W/m 16,6 C 21,9 C 15,3 km/h 100,00 %
20.06.2021 11:41 23,0 C 67 % 1008,7 hPa 0,0 l/m 10,6 km/h SW 231 1 min 0,000 mm 4,6 UV-I 408 W/m 16,5 C 21,8 C 17,2 km/h 100,00 %
20.06.2021 11:40 22,9 C 67 % 1008,7 hPa 0,0 l/m 9,8 km/h SW 220 1 min 0,000 mm 4,0 UV-I 389 W/m 16,4 C 21,9 C 17,2 km/h 100,00 %
20.06.2021 11:39 22,9 C 66 % 1008,7 hPa 0,0 l/m 10,1 km/h S 185 1 min 0,000 mm 2,8 UV-I 309 W/m 16,2 C 21,8 C 17,2 km/h 100,00 %
20.06.2021 11:38 22,9 C 67 % 1008,7 hPa 0,0 l/m 14,5 km/h SW 223 1 min 0,000 mm 3,3 UV-I 303 W/m 16,4 C 20,9 C 23,0 km/h 100,00 %
20.06.2021 11:37 23,0 C 67 % 1008,7 hPa 0,0 l/m 7,5 km/h S-SO 157 0 min 0,000 mm 2,1 UV-I 243 W/m 16,5 C 22,7 C 13,4 km/h 100,00 %
20.06.2021 11:36 23,0 C 67 % 1008,7 hPa 0,0 l/m 14,8 km/h S-SW 205 0 min 0,000 mm 1,8 UV-I 198 W/m 16,5 C 20,9 C 23,0 km/h 100,00 %
20.06.2021 11:35 23,1 C 67 % 1008,7 hPa 0,0 l/m 11,2 km/h S-SW 196 0 min 0,000 mm 1,8 UV-I 190 W/m 16,6 C 21,8 C 17,2 km/h 100,00 %
20.06.2021 11:34 23,1 C 66 % 1008,7 hPa 0,0 l/m 15,8 km/h S 178 0 min 0,000 mm 2,0 UV-I 228 W/m 16,4 C 20,9 C 24,9 km/h 100,00 %
20.06.2021 11:33 23,1 C 67 % 1008,7 hPa 0,0 l/m 15,7 km/h S 172 1 min 0,000 mm 2,3 UV-I 366 W/m 16,6 C 20,9 C 23,0 km/h 100,00 %
20.06.2021 11:32 23,1 C 68 % 1008,6 hPa 0,0 l/m 12,7 km/h S 189 1 min 0,000 mm 2,7 UV-I 470 W/m 16,9 C 21,5 C 24,9 km/h 95,83 %
20.06.2021 11:31 23,1 C 69 % 1008,6 hPa 0,0 l/m 10,9 km/h S 188 1 min 0,000 mm 3,1 UV-I 575 W/m 17,1 C 21,8 C 21,0 km/h 100,00 %
20.06.2021 11:30 23,0 C 69 % 1008,6 hPa 0,0 l/m 13,1 km/h S 176 1 min 0,000 mm 3,7 UV-I 684 W/m 17,0 C 21,3 C 21,0 km/h 100,00 %
20.06.2021 11:29 23,0 C 69 % 1008,6 hPa 0,0 l/m 11,2 km/h S-SW 211 1 min 0,000 mm 3,8 UV-I 720 W/m 17,0 C 21,7 C 23,0 km/h 100,00 %
20.06.2021 11:28 23,0 C 69 % 1008,6 hPa 0,0 l/m 7,2 km/h S-SW 210 1 min 0,000 mm 3,8 UV-I 578 W/m 17,0 C 22,7 C 15,3 km/h 100,00 %
20.06.2021 11:27 23,0 C 69 % 1008,6 hPa 0,0 l/m 8,7 km/h S 184 0 min 0,000 mm 2,7 UV-I 178 W/m 17,0 C 22,3 C 13,4 km/h 100,00 %
20.06.2021 11:26 23,1 C 69 % 1008,5 hPa 0,0 l/m 8,5 km/h S 182 0 min 0,000 mm 1,9 UV-I 162 W/m 17,1 C 22,5 C 15,3 km/h 100,00 %
20.06.2021 11:25 23,1 C 69 % 1008,5 hPa 0,0 l/m 8,5 km/h S-SO 151 0 min 0,000 mm 1,8 UV-I 149 W/m 17,1 C 22,5 C 13,4 km/h 96,15 %
20.06.2021 11:24 23,1 C 69 % 1008,5 hPa 0,0 l/m 10,9 km/h S 181 1 min 0,000 mm 1,8 UV-I 759 W/m 17,1 C 21,8 C 17,2 km/h 100,00 %
20.06.2021 11:23 23,1 C 69 % 1008,5 hPa 0,0 l/m 17,4 km/h SW 225 1 min 0,000 mm 2,7 UV-I 861 W/m 17,1 C 20,6 C 26,8 km/h 100,00 %
20.06.2021 11:22 23,0 C 70 % 1008,5 hPa 0,0 l/m 11,1 km/h SW 232 1 min 0,000 mm 4,1 UV-I 863 W/m 17,2 C 21,7 C 17,2 km/h 100,00 %
20.06.2021 11:21 22,9 C 70 % 1008,5 hPa 0,0 l/m 11,0 km/h S-SW 194 1 min 0,000 mm 4,1 UV-I 846 W/m 17,1 C 21,6 C 17,2 km/h 100,00 %
20.06.2021 11:20 22,9 C 71 % 1008,5 hPa 0,0 l/m 11,2 km/h S-SW 195 1 min 0,000 mm 4,1 UV-I 476 W/m 17,4 C 21,6 C 19,1 km/h 100,00 %
20.06.2021 11:19 22,8 C 70 % 1008,4 hPa 0,0 l/m 6,2 km/h SW 214 0 min 0,000 mm 2,6 UV-I 188 W/m 17,0 C 22,8 C 7,7 km/h 100,00 %
20.06.2021 11:18 22,8 C 70 % 1008,4 hPa 0,0 l/m 7,3 km/h SW 226 0 min 0,000 mm 3,6 UV-I 223 W/m 17,0 C 22,5 C 9,6 km/h 100,00 %
20.06.2021 11:17 22,8 C 70 % 1008,5 hPa 0,0 l/m 10,4 km/h S-SO 155 1 min 0,000 mm 2,2 UV-I 881 W/m 17,0 C 21,6 C 23,0 km/h 96,55 %
20.06.2021 11:16 22,8 C 70 % 1008,5 hPa 0,0 l/m 11,5 km/h SW 233 1 min 0,000 mm 3,0 UV-I 881 W/m 17,0 C 21,4 C 15,3 km/h 100,00 %
20.06.2021 11:15 22,8 C 70 % 1008,6 hPa 0,0 l/m 8,7 km/h SW 223 1 min 0,000 mm 4,0 UV-I 667 W/m 17,0 C 22,1 C 13,4 km/h 100,00 %
20.06.2021 11:14 22,8 C 70 % 1008,5 hPa 0,0 l/m 8,6 km/h S-SW 194 0 min 0,000 mm 3,4 UV-I 167 W/m 17,0 C 22,1 C 15,3 km/h 100,00 %
20.06.2021 11:13 22,8 C 70 % 1008,5 hPa 0,0 l/m 10,5 km/h SW 222 0 min 0,000 mm 2,2 UV-I 160 W/m 17,0 C 21,6 C 15,3 km/h 100,00 %
20.06.2021 11:12 22,8 C 70 % 1008,5 hPa 0,0 l/m 6,9 km/h S-SW 212 0 min 0,000 mm 3,1 UV-I 179 W/m 17,0 C 22,6 C 11,5 km/h 100,00 %
20.06.2021 11:11 22,9 C 70 % 1008,5 hPa 0,0 l/m 7,8 km/h S 175 0 min 0,000 mm 1,6 UV-I 141 W/m 17,1 C 22,5 C 15,3 km/h 100,00 %
20.06.2021 11:10 22,9 C 70 % 1008,5 hPa 0,0 l/m 6,1 km/h S 171 0 min 0,000 mm 1,4 UV-I 138 W/m 17,1 C 22,9 C 9,6 km/h 92,86 %
20.06.2021 11:09 22,9 C 70 % 1008,5 hPa 0,0 l/m 8,7 km/h S 173 0 min 0,000 mm 1,4 UV-I 152 W/m 17,1 C 22,2 C 11,5 km/h 100,00 %
20.06.2021 11:08 22,9 C 70 % 1008,5 hPa 0,0 l/m 9,6 km/h S 180 0 min 0,000 mm 1,7 UV-I 248 W/m 17,1 C 21,9 C 15,3 km/h 100,00 %
20.06.2021 11:07 22,9 C 70 % 1008,5 hPa 0,0 l/m 8,4 km/h S-SW 209 1 min 0,000 mm 3,4 UV-I 302 W/m 17,1 C 22,3 C 13,4 km/h 100,00 %
20.06.2021 11:06 22,8 C 69 % 1008,4 hPa 0,0 l/m 5,6 km/h S-SW 196 1 min 0,000 mm 2,3 UV-I 302 W/m 16,8 C 22,8 C 9,6 km/h 100,00 %
20.06.2021 11:05 22,8 C 69 % 1008,4 hPa 0,0 l/m 9,6 km/h S-SW 198 0 min 0,000 mm 2,3 UV-I 276 W/m 16,8 C 21,8 C 19,1 km/h 100,00 %
20.06.2021 11:04 22,7 C 69 % 1008,4 hPa 0,0 l/m 7,2 km/h S 186 0 min 0,000 mm 3,1 UV-I 276 W/m 16,7 C 22,4 C 9,6 km/h 100,00 %
20.06.2021 11:03 22,7 C 70 % 1008,4 hPa 0,0 l/m 11,3 km/h SO 133 0 min 0,000 mm 2,9 UV-I 276 W/m 16,9 C 21,3 C 15,3 km/h 100,00 %
20.06.2021 11:02 22,7 C 69 % 1008,5 hPa 0,0 l/m 11,6 km/h S-SO 165 0 min 0,001 mm 2,0 UV-I 276 W/m 16,7 C 21,2 C 21,0 km/h 100,00 %
20.06.2021 11:01 22,7 C 69 % 1008,5 hPa 0,0 l/m 11,2 km/h SW 220 0 min 0,330 mm 1,9 UV-I 276 W/m 16,7 C 21,3 C 19,1 km/h 100,00 %
20.06.2021 11:00 22,7 C 69 % 1008,6 hPa 0,0 l/m 10,9 km/h W-SW 238 0 min 0,000 mm 1,4 UV-I 229 W/m 16,7 C 21,4 C 19,1 km/h 97,14 %
20.06.2021 10:59 22,8 C 69 % 1008,7 hPa 0,0 l/m 16,9 km/h S 188 0 min 0,000 mm 1,3 UV-I 209 W/m 16,8 C 20,3 C 24,9 km/h 100,00 %
20.06.2021 10:58 22,9 C 69 % 1008,6 hPa 0,0 l/m 13,8 km/h SW 226 0 min 0,000 mm 1,5 UV-I 223 W/m 16,9 C 21,0 C 23,0 km/h 100,00 %
20.06.2021 10:57 23,0 C 70 % 1008,6 hPa 0,0 l/m 11,4 km/h SO 132 0 min 0,000 mm 1,6 UV-I 233 W/m 17,2 C 21,6 C 17,2 km/h 100,00 %
20.06.2021 10:56 23,1 C 69 % 1008,6 hPa 0,0 l/m 10,5 km/h SW 215 0 min 0,000 mm 1,7 UV-I 242 W/m 17,1 C 21,9 C 17,2 km/h 100,00 %
20.06.2021 10:55 23,2 C 69 % 1008,5 hPa 0,0 l/m 13,6 km/h SW 216 0 min 0,000 mm 1,7 UV-I 240 W/m 17,2 C 21,4 C 23,0 km/h 100,00 %
20.06.2021 10:54 23,3 C 68 % 1008,5 hPa 0,0 l/m 14,6 km/h S-SW 209 0 min 0,000 mm 1,8 UV-I 220 W/m 17,1 C 21,3 C 23,0 km/h 100,00 %
20.06.2021 10:53 23,3 C 69 % 1008,4 hPa 0,0 l/m 9,9 km/h S 177 0 min 0,000 mm 1,8 UV-I 244 W/m 17,3 C 22,3 C 17,2 km/h 100,00 %
20.06.2021 10:52 23,3 C 69 % 1008,4 hPa 0,0 l/m 10,5 km/h SW 225 0 min 0,000 mm 1,7 UV-I 264 W/m 17,3 C 22,2 C 21,0 km/h 100,00 %
20.06.2021 10:51 23,3 C 70 % 1008,4 hPa 0,0 l/m 7,7 km/h S 184 0 min 0,000 mm 1,7 UV-I 264 W/m 17,5 C 22,9 C 15,3 km/h 100,00 %
20.06.2021 10:50 23,2 C 70 % 1008,4 hPa 0,0 l/m 9,7 km/h S-SW 198 1 min 0,000 mm 1,8 UV-I 735 W/m 17,4 C 22,3 C 17,2 km/h 100,00 %
20.06.2021 10:49 23,2 C 69 % 1008,4 hPa 0,0 l/m 11,5 km/h SO 145 1 min 0,000 mm 2,4 UV-I 970 W/m 17,2 C 21,8 C 17,2 km/h 100,00 %
20.06.2021 10:48 23,1 C 69 % 1008,4 hPa 0,0 l/m 8,0 km/h S-SW 206 1 min 0,000 mm 3,6 UV-I 923 W/m 17,1 C 22,6 C 24,9 km/h 100,00 %
20.06.2021 10:47 23,0 C 70 % 1008,4 hPa 0,0 l/m 9,9 km/h S-SW 196 1 min 0,000 mm 3,0 UV-I 918 W/m 17,2 C 22,0 C 17,2 km/h 100,00 %
20.06.2021 10:46 22,9 C 70 % 1008,4 hPa 0,0 l/m 12,6 km/h S 185 1 min 0,000 mm 3,5 UV-I 924 W/m 17,1 C 21,2 C 19,1 km/h 100,00 %
20.06.2021 10:45 22,8 C 71 % 1008,4 hPa 0,0 l/m 16,1 km/h S 191 1 min 0,000 mm 3,8 UV-I 919 W/m 17,3 C 20,4 C 28,7 km/h 100,00 %
20.06.2021 10:44 22,7 C 71 % 1008,4 hPa 0,0 l/m 14,4 km/h S-SW 204 1 min 0,000 mm 3,8 UV-I 892 W/m 17,2 C 20,6 C 28,7 km/h 100,00 %
20.06.2021 10:43 22,6 C 70 % 1008,4 hPa 0,0 l/m 11,2 km/h S-SO 159 1 min 0,000 mm 3,8 UV-I 880 W/m 16,8 C 21,2 C 15,3 km/h 100,00 %
20.06.2021 10:42 22,6 C 70 % 1008,4 hPa 0,0 l/m 12,0 km/h W-SW 254 0 min 0,000 mm 3,6 UV-I 207 W/m 16,8 C 21,0 C 19,1 km/h 100,00 %
20.06.2021 10:41 22,6 C 70 % 1008,4 hPa 0,0 l/m 13,1 km/h S 189 0 min 0,000 mm 2,4 UV-I 207 W/m 16,8 C 20,8 C 17,2 km/h 96,15 %
20.06.2021 10:40 22,6 C 69 % 1008,4 hPa 0,0 l/m 13,3 km/h W-SW 239 0 min 0,000 mm 2,8 UV-I 207 W/m 16,6 C 20,7 C 23,0 km/h 100,00 %
20.06.2021 10:39 22,6 C 69 % 1008,4 hPa 0,0 l/m 16,8 km/h S-SW 192 0 min 0,000 mm 2,5 UV-I 207 W/m 16,6 C 20,1 C 23,0 km/h 100,00 %
20.06.2021 10:38 22,7 C 68 % 1008,4 hPa 0,0 l/m 16,6 km/h S-SO 157 0 min 0,000 mm 1,8 UV-I 197 W/m 16,5 C 20,2 C 30,6 km/h 100,00 %
20.06.2021 10:37 22,7 C 68 % 1008,5 hPa 0,0 l/m 16,1 km/h S-SW 205 0 min 0,000 mm 1,7 UV-I 175 W/m 16,5 C 20,3 C 28,7 km/h 96,67 %
20.06.2021 10:36 22,7 C 68 % 1008,5 hPa 0,0 l/m 12,3 km/h SW 221 0 min 0,000 mm 1,8 UV-I 171 W/m 16,5 C 21,1 C 17,2 km/h 100,00 %
20.06.2021 10:35 22,8 C 68 % 1008,5 hPa 0,0 l/m 15,4 km/h S 178 0 min 0,000 mm 1,8 UV-I 163 W/m 16,6 C 20,6 C 26,8 km/h 100,00 %
20.06.2021 10:34 22,8 C 68 % 1008,4 hPa 0,0 l/m 11,1 km/h S 169 0 min 0,000 mm 1,8 UV-I 138 W/m 16,6 C 21,5 C 19,1 km/h 100,00 %
20.06.2021 10:33 22,8 C 67 % 1008,4 hPa 0,0 l/m 16,5 km/h S 173 0 min 0,000 mm 2,8 UV-I 123 W/m 16,3 C 20,4 C 26,8 km/h 100,00 %
20.06.2021 10:32 22,9 C 67 % 1008,4 hPa 0,0 l/m 17,6 km/h S-SW 208 0 min 0,000 mm 3,2 UV-I 123 W/m 16,4 C 20,3 C 26,8 km/h 100,00 %
20.06.2021 10:31 23,1 C 66 % 1008,4 hPa 0,0 l/m 15,1 km/h SW 226 0 min 0,000 mm 2,5 UV-I 123 W/m 16,4 C 21,0 C 28,7 km/h 100,00 %
20.06.2021 10:30 23,2 C 67 % 1008,5 hPa 0,0 l/m 17,5 km/h SW 220 0 min 0,000 mm 1,7 UV-I 123 W/m 16,7 C 20,7 C 28,7 km/h 100,00 %
20.06.2021 10:29 23,2 C 67 % 1008,6 hPa 0,0 l/m 16,6 km/h S 180 1 min 0,000 mm 1,7 UV-I 352 W/m 16,7 C 20,9 C 38,3 km/h 96,67 %
20.06.2021 10:28 23,2 C 68 % 1008,5 hPa 0,0 l/m 13,6 km/h S-SW 213 1 min 0,000 mm 2,5 UV-I 777 W/m 17,0 C 21,4 C 23,0 km/h 100,00 %
20.06.2021 10:27 23,1 C 69 % 1008,6 hPa 0,0 l/m 13,9 km/h S-SW 204 1 min 0,000 mm 3,2 UV-I 785 W/m 17,1 C 21,2 C 21,0 km/h 100,00 %
20.06.2021 10:26 22,9 C 69 % 1008,5 hPa 0,0 l/m 14,2 km/h S 184 1 min 0,000 mm 3,2 UV-I 798 W/m 16,9 C 20,9 C 23,0 km/h 100,00 %
20.06.2021 10:25 22,8 C 69 % 1008,5 hPa 0,0 l/m 10,3 km/h S 188 1 min 0,000 mm 3,2 UV-I 793 W/m 16,8 C 21,7 C 17,2 km/h 100,00 %
20.06.2021 10:24 22,8 C 69 % 1008,5 hPa 0,0 l/m 19,0 km/h SW 215 1 min 0,000 mm 3,2 UV-I 783 W/m 16,8 C 20,0 C 24,9 km/h 100,00 %
20.06.2021 10:23 22,8 C 68 % 1008,5 hPa 0,0 l/m 17,5 km/h S 171 1 min 0,000 mm 3,1 UV-I 764 W/m 16,6 C 20,2 C 28,7 km/h 100,00 %
20.06.2021 10:22 22,8 C 69 % 1008,5 hPa 0,0 l/m 14,4 km/h S-SO 159 1 min 0,000 mm 2,3 UV-I 819 W/m 16,8 C 20,8 C 23,0 km/h 100,00 %
20.06.2021 10:21 22,8 C 69 % 1008,5 hPa 0,0 l/m 15,9 km/h S 176 1 min 0,000 mm 2,6 UV-I 819 W/m 16,8 C 20,5 C 23,0 km/h 100,00 %
20.06.2021 10:20 22,8 C 69 % 1008,4 hPa 0,0 l/m 17,0 km/h S-SW 207 1 min 0,000 mm 2,2 UV-I 819 W/m 16,8 C 20,3 C 26,8 km/h 86,96 %
20.06.2021 10:19 22,9 C 70 % 1008,4 hPa 0,0 l/m 19,1 km/h S-SO 168 1 min 0,000 mm 2,2 UV-I 819 W/m 17,1 C 20,1 C 30,6 km/h 100,00 %
20.06.2021 10:18 22,9 C 70 % 1008,3 hPa 0,0 l/m 11,8 km/h S-SO 163 1 min 0,000 mm 2,3 UV-I 819 W/m 17,1 C 21,4 C 19,1 km/h 100,00 %
20.06.2021 10:17 22,9 C 70 % 1008,3 hPa 0,0 l/m 17,0 km/h S 171 1 min 0,000 mm 2,8 UV-I 660 W/m 17,1 C 20,4 C 23,0 km/h 100,00 %
20.06.2021 10:16 22,9 C 70 % 1008,3 hPa 0,0 l/m 14,2 km/h S 186 1 min 0,000 mm 2,2 UV-I 315 W/m 17,1 C 20,9 C 28,7 km/h 100,00 %
20.06.2021 10:15 22,9 C 70 % 1008,2 hPa 0,0 l/m 16,0 km/h S 185 1 min 0,000 mm 1,7 UV-I 291 W/m 17,1 C 20,6 C 24,9 km/h 100,00 %
20.06.2021 10:14 22,9 C 71 % 1008,2 hPa 0,0 l/m 16,6 km/h W-SW 240 0 min 0,000 mm 1,7 UV-I 281 W/m 17,4 C 20,5 C 24,9 km/h 100,00 %
20.06.2021 10:13 22,9 C 72 % 1008,2 hPa 0,0 l/m 10,7 km/h S 190 0 min 0,000 mm 2,7 UV-I 283 W/m 17,6 C 21,7 C 21,0 km/h 100,00 %
20.06.2021 10:12 22,8 C 72 % 1008,2 hPa 0,0 l/m 14,3 km/h SW 218 0 min 0,000 mm 2,4 UV-I 283 W/m 17,5 C 20,8 C 26,8 km/h 100,00 %
20.06.2021 10:11 22,8 C 72 % 1008,2 hPa 0,0 l/m 7,9 km/h S-SO 152 0 min 0,000 mm 2,3 UV-I 283 W/m 17,5 C 22,3 C 13,4 km/h 100,00 %
20.06.2021 10:10 22,7 C 72 % 1008,2 hPa 0,0 l/m 6,8 km/h S-SW 211 1 min 0,000 mm 1,8 UV-I 305 W/m 17,4 C 22,6 C 11,5 km/h 100,00 %
20.06.2021 10:09 22,7 C 71 % 1008,2 hPa 0,0 l/m 12,3 km/h S-SO 160 1 min 0,000 mm 1,8 UV-I 376 W/m 17,2 C 21,1 C 21,0 km/h 100,00 %
20.06.2021 10:08 22,7 C 72 % 1008,3 hPa 0,0 l/m 13,1 km/h SW 219 1 min 0,000 mm 1,8 UV-I 484 W/m 17,4 C 20,9 C 19,1 km/h 100,00 %
20.06.2021 10:07 22,7 C 72 % 1008,3 hPa 0,0 l/m 15,8 km/h SW 228 1 min 0,000 mm 1,7 UV-I 510 W/m 17,4 C 20,4 C 23,0 km/h 100,00 %
20.06.2021 10:06 22,7 C 72 % 1008,3 hPa 0,0 l/m 15,9 km/h S 189 1 min 0,000 mm 2,1 UV-I 437 W/m 17,4 C 20,4 C 26,8 km/h 100,00 %
20.06.2021 10:05 22,7 C 73 % 1008,3 hPa 0,0 l/m 12,7 km/h S 188 0 min 0,000 mm 1,7 UV-I 234 W/m 17,6 C 21,0 C 23,0 km/h 99,52 %
20.06.2021 10:04 22,7 C 72 % 1008,3 hPa 0,0 l/m 9,4 km/h S-SW 213 0 min 0,000 mm 1,7 UV-I 234 W/m 17,4 C 21,8 C 15,3 km/h 96,67 %
20.06.2021 10:03 22,7 C 72 % 1008,2 hPa 0,0 l/m 11,5 km/h S-SW 206 0 min 0,000 mm 2,4 UV-I 234 W/m 17,4 C 21,3 C 17,2 km/h 100,00 %
20.06.2021 10:02 22,8 C 72 % 1008,3 hPa 0,0 l/m 13,3 km/h S-SO 167 0 min 0,000 mm 1,5 UV-I 234 W/m 17,5 C 21,0 C 23,0 km/h 100,00 %
20.06.2021 10:01 22,9 C 73 % 1008,2 hPa 0,0 l/m 14,7 km/h S 173 0 min 0,228 mm 1,4 UV-I 236 W/m 17,8 C 20,8 C 19,1 km/h 96,15 %
20.06.2021 10:00 22,9 C 73 % 1008,2 hPa 0,0 l/m 11,1 km/h S-SW 206 1 min 0,000 mm 1,6 UV-I 397 W/m 17,8 C 21,6 C 19,1 km/h 100,00 %
20.06.2021 09:59 22,9 C 73 % 1008,2 hPa 0,0 l/m 13,6 km/h S-SW 202 1 min 0,000 mm 1,8 UV-I 362 W/m 17,8 C 21,0 C 21,0 km/h 100,00 %
20.06.2021 09:58 22,8 C 74 % 1008,2 hPa 0,0 l/m 7,5 km/h S-SW 196 1 min 0,000 mm 1,6 UV-I 308 W/m 17,9 C 22,4 C 11,5 km/h 100,00 %
20.06.2021 09:57 22,8 C 75 % 1008,2 hPa 0,0 l/m 9,0 km/h S 174 1 min 0,000 mm 1,6 UV-I 301 W/m 18,1 C 22,0 C 19,1 km/h 100,00 %
20.06.2021 09:56 22,8 C 75 % 1008,2 hPa 0,0 l/m 9,8 km/h S 172 1 min 0,000 mm 1,7 UV-I 647 W/m 18,1 C 21,8 C 19,1 km/h 99,53 %
20.06.2021 09:55 22,6 C 75 % 1008,1 hPa 0,0 l/m 10,5 km/h S-SO 167 1 min 0,000 mm 2,6 UV-I 694 W/m 17,9 C 21,4 C 17,2 km/h 100,00 %
20.06.2021 09:54 22,5 C 76 % 1008,1 hPa 0,0 l/m 11,1 km/h S-SO 160 1 min 0,000 mm 2,7 UV-I 613 W/m 18,0 C 21,1 C 19,1 km/h 100,00 %
20.06.2021 09:53 22,4 C 76 % 1008,1 hPa 0,0 l/m 7,6 km/h S-SW 209 1 min 0,000 mm 2,6 UV-I 613 W/m 18,0 C 22,0 C 11,5 km/h 100,00 %
20.06.2021 09:52 22,3 C 76 % 1008,1 hPa 0,0 l/m 6,7 km/h S 186 1 min 0,000 mm 1,8 UV-I 376 W/m 17,9 C 22,2 C 9,6 km/h 100,00 %
20.06.2021 09:51 22,2 C 76 % 1008,1 hPa 0,0 l/m 11,4 km/h S-SW 207 0 min 0,000 mm 2,0 UV-I 274 W/m 17,8 C 20,7 C 17,2 km/h 100,00 %
20.06.2021 09:50 22,2 C 75 % 1008,1 hPa 0,0 l/m 14,2 km/h S-SW 198 0 min 0,000 mm 2,1 UV-I 274 W/m 17,5 C 20,1 C 19,1 km/h 96,15 %
20.06.2021 09:49 22,2 C 75 % 1008,2 hPa 0,0 l/m 13,0 km/h SW 218 0 min 0,000 mm 1,5 UV-I 271 W/m 17,5 C 20,3 C 21,0 km/h 100,00 %
20.06.2021 09:48 22,2 C 76 % 1008,1 hPa 0,0 l/m 18,2 km/h S-SO 165 0 min 0,000 mm 1,4 UV-I 250 W/m 17,8 C 19,3 C 30,6 km/h 100,00 %
20.06.2021 09:47 22,2 C 76 % 1008,1 hPa 0,0 l/m 9,6 km/h S 181 0 min 0,000 mm 1,3 UV-I 250 W/m 17,8 C 21,2 C 17,2 km/h 100,00 %
20.06.2021 09:46 22,2 C 76 % 1008,2 hPa 0,0 l/m 12,1 km/h S-SO 153 0 min 0,000 mm 1,4 UV-I 250 W/m 17,8 C 20,5 C 19,1 km/h 100,00 %
20.06.2021 09:45 22,2 C 76 % 1008,2 hPa 0,0 l/m 13,7 km/h SW 227 0 min 0,000 mm 1,4 UV-I 250 W/m 17,8 C 20,2 C 21,0 km/h 100,00 %
20.06.2021 09:44 22,2 C 76 % 1008,1 hPa 0,0 l/m 10,9 km/h S-SO 159 0 min 0,000 mm 1,4 UV-I 227 W/m 17,8 C 20,8 C 21,0 km/h 100,00 %
20.06.2021 09:43 22,2 C 77 % 1008,1 hPa 0,0 l/m 9,0 km/h S-SO 157 0 min 0,000 mm 1,4 UV-I 203 W/m 18,0 C 21,4 C 17,2 km/h 100,00 %
20.06.2021 09:42 22,2 C 76 % 1008,1 hPa 0,0 l/m 7,1 km/h SW 224 0 min 0,000 mm 1,7 UV-I 197 W/m 17,8 C 22,0 C 9,6 km/h 100,00 %
20.06.2021 09:41 22,2 C 76 % 1008,1 hPa 0,0 l/m 6,3 km/h S-SO 163 0 min 0,000 mm 2,0 UV-I 197 W/m 17,8 C 22,2 C 9,6 km/h 100,00 %
20.06.2021 09:40 22,2 C 76 % 1008,1 hPa 0,0 l/m 9,3 km/h S 180 0 min 0,000 mm 1,5 UV-I 149 W/m 17,8 C 21,3 C 17,2 km/h 100,00 %
20.06.2021 09:39 22,2 C 75 % 1008,1 hPa 0,0 l/m 9,3 km/h S 169 0 min 0,000 mm 2,2 UV-I 109 W/m 17,5 C 21,3 C 19,1 km/h 100,00 %
20.06.2021 09:38 22,2 C 76 % 1008,1 hPa 0,0 l/m 17,3 km/h S-SW 209 0 min 0,000 mm 1,6 UV-I 109 W/m 17,8 C 19,5 C 24,9 km/h 100,00 %
20.06.2021 09:37 22,2 C 76 % 1008,1 hPa 0,0 l/m 10,1 km/h SW 216 0 min 0,000 mm 1,9 UV-I 109 W/m 17,8 C 21,0 C 17,2 km/h 100,00 %
20.06.2021 09:36 22,3 C 76 % 1008,0 hPa 0,0 l/m 7,8 km/h S-SW 209 0 min 0,000 mm 1,5 UV-I 105 W/m 17,9 C 21,8 C 11,5 km/h 100,00 %
20.06.2021 09:35 22,3 C 76 % 1008,0 hPa 0,0 l/m 8,4 km/h S 179 0 min 0,000 mm 1,3 UV-I 179 W/m 17,9 C 21,6 C 13,4 km/h 100,00 %
20.06.2021 09:34 22,2 C 76 % 1008,0 hPa 0,0 l/m 8,8 km/h S-SW 202 1 min 0,000 mm 1,8 UV-I 345 W/m 17,8 C 21,4 C 17,2 km/h 100,00 %
20.06.2021 09:33 22,2 C 76 % 1008,0 hPa 0,0 l/m 13,6 km/h S 177 1 min 0,000 mm 2,2 UV-I 334 W/m 17,8 C 20,2 C 23,0 km/h 100,00 %
20.06.2021 09:32 22,2 C 76 % 1008,0 hPa 0,0 l/m 17,1 km/h SW 234 1 min 0,000 mm 2,2 UV-I 328 W/m 17,8 C 19,5 C 30,6 km/h 100,00 %
20.06.2021 09:31 22,2 C 76 % 1008,0 hPa 0,0 l/m 12,5 km/h S-SO 163 1 min 0,000 mm 2,2 UV-I 314 W/m 17,8 C 20,4 C 30,6 km/h 100,00 %
20.06.2021 09:30 22,3 C 76 % 1008,0 hPa 0,0 l/m 17,0 km/h S 169 0 min 0,000 mm 2,2 UV-I 218 W/m 17,9 C 19,7 C 30,6 km/h 100,00 %
20.06.2021 09:29 22,3 C 77 % 1008,0 hPa 0,0 l/m 12,8 km/h S-SW 196 0 min 0,000 mm 2,2 UV-I 84 W/m 18,1 C 20,5 C 21,0 km/h 100,00 %
20.06.2021 09:28 22,3 C 77 % 1007,9 hPa 0,0 l/m 9,9 km/h SW 221 0 min 0,000 mm 1,6 UV-I 85 W/m 18,1 C 21,2 C 17,2 km/h 100,00 %
20.06.2021 09:27 22,3 C 77 % 1008,0 hPa 0,0 l/m 11,0 km/h S-SO 159 0 min 0,000 mm 1,5 UV-I 274 W/m 18,1 C 20,9 C 15,3 km/h 100,00 %
20.06.2021 09:26 22,3 C 77 % 1007,9 hPa 0,0 l/m 12,0 km/h S-SW 212 1 min 0,000 mm 2,2 UV-I 335 W/m 18,1 C 20,7 C 17,2 km/h 97,73 %
20.06.2021 09:25 22,3 C 77 % 1007,9 hPa 0,0 l/m 14,4 km/h S-SO 165 1 min 0,000 mm 2,2 UV-I 323 W/m 18,1 C 20,2 C 23,0 km/h 99,51 %
20.06.2021 09:24 22,2 C 77 % 1007,9 hPa 0,0 l/m 12,6 km/h S-SO 159 1 min 0,000 mm 2,1 UV-I 313 W/m 18,0 C 20,4 C 19,1 km/h 100,00 %
20.06.2021 09:23 22,2 C 77 % 1008,0 hPa 0,0 l/m 18,0 km/h SW 216 1 min 0,000 mm 2,1 UV-I 300 W/m 18,0 C 19,4 C 28,7 km/h 100,00 %
20.06.2021 09:22 22,2 C 77 % 1007,9 hPa 0,0 l/m 15,6 km/h S 187 0 min 0,000 mm 2,1 UV-I 263 W/m 18,0 C 19,8 C 32,5 km/h 100,00 %
20.06.2021 09:21 22,2 C 78 % 1007,9 hPa 0,0 l/m 12,6 km/h S 169 1 min 0,000 mm 2,1 UV-I 315 W/m 18,2 C 20,4 C 21,0 km/h 100,00 %
20.06.2021 09:20 22,2 C 78 % 1007,9 hPa 0,0 l/m 15,9 km/h S-SW 199 1 min 0,000 mm 2,1 UV-I 308 W/m 18,2 C 19,7 C 19,1 km/h 100,00 %
20.06.2021 09:19 22,1 C 78 % 1007,9 hPa 0,0 l/m 19,2 km/h S-SO 152 1 min 0,000 mm 2,0 UV-I 294 W/m 18,1 C 19,0 C 28,7 km/h 100,00 %
20.06.2021 09:18 22,1 C 79 % 1007,9 hPa 0,0 l/m 14,6 km/h S-SW 209 1 min 0,000 mm 2,0 UV-I 314 W/m 18,3 C 19,9 C 24,9 km/h 100,00 %
20.06.2021 09:17 21,9 C 79 % 1007,9 hPa 0,0 l/m 9,5 km/h S-SW 202 1 min 0,000 mm 1,8 UV-I 312 W/m 18,1 C 20,9 C 15,3 km/h 100,00 %
20.06.2021 09:16 21,9 C 79 % 1007,9 hPa 0,0 l/m 17,1 km/h S-SW 200 1 min 0,000 mm 2,0 UV-I 334 W/m 18,1 C 19,1 C 30,6 km/h 96,55 %
20.06.2021 09:15 21,9 C 80 % 1007,9 hPa 0,0 l/m 16,1 km/h N 360 1 min 0,000 mm 1,9 UV-I 320 W/m 18,3 C 19,3 C 23,0 km/h 100,00 %
20.06.2021 09:14 21,8 C 80 % 1007,9 hPa 0,0 l/m 15,4 km/h S 173 1 min 0,000 mm 2,0 UV-I 311 W/m 18,2 C 19,3 C 32,5 km/h 100,00 %
20.06.2021 09:13 21,8 C 79 % 1007,9 hPa 0,0 l/m 11,3 km/h S-SW 202 1 min 0,000 mm 1,9 UV-I 297 W/m 18,0 C 20,3 C 21,0 km/h 100,00 %
20.06.2021 09:12 21,8 C 79 % 1007,9 hPa 0,0 l/m 17,9 km/h S 180 1 min 0,000 mm 1,9 UV-I 291 W/m 18,0 C 18,9 C 24,9 km/h 96,15 %
20.06.2021 09:11 21,7 C 79 % 1007,9 hPa 0,0 l/m 12,9 km/h S-SO 165 0 min 0,000 mm 1,5 UV-I 279 W/m 17,9 C 19,8 C 26,8 km/h 100,00 %
20.06.2021 09:10 21,7 C 79 % 1007,9 hPa 0,0 l/m 10,3 km/h S-SW 206 0 min 0,000 mm 1,4 UV-I 279 W/m 17,9 C 20,4 C 17,2 km/h 100,00 %
20.06.2021 09:09 21,7 C 79 % 1007,8 hPa 0,0 l/m 12,4 km/h S-SW 213 1 min 0,000 mm 1,8 UV-I 297 W/m 17,9 C 19,9 C 21,0 km/h 100,00 %
20.06.2021 09:08 21,7 C 79 % 1007,9 hPa 0,0 l/m 12,0 km/h S 184 0 min 0,000 mm 1,6 UV-I 247 W/m 17,9 C 20,0 C 21,0 km/h 100,00 %
20.06.2021 09:07 21,7 C 79 % 1007,8 hPa 0,0 l/m 14,1 km/h SW 230 1 min 0,000 mm 1,3 UV-I 294 W/m 17,9 C 19,5 C 24,9 km/h 93,33 %
20.06.2021 09:06 21,7 C 79 % 1007,8 hPa 0,0 l/m 17,2 km/h SW 229 1 min 0,000 mm 1,4 UV-I 294 W/m 17,9 C 18,9 C 26,8 km/h 100,00 %
20.06.2021 09:05 21,7 C 79 % 1007,9 hPa 0,0 l/m 12,6 km/h W-SW 238 0 min 0,000 mm 1,6 UV-I 232 W/m 17,9 C 19,8 C 24,9 km/h 100,00 %
20.06.2021 09:04 21,8 C 79 % 1007,9 hPa 0,0 l/m 20,6 km/h SW 217 0 min 0,000 mm 1,3 UV-I 171 W/m 18,0 C 18,4 C 32,5 km/h 100,00 %
20.06.2021 09:03 21,8 C 79 % 1008,0 hPa 0,0 l/m 16,5 km/h S-SO 160 0 min 0,000 mm 1,4 UV-I 277 W/m 18,0 C 19,1 C 28,7 km/h 100,00 %
20.06.2021 09:02 21,8 C 79 % 1008,0 hPa 0,0 l/m 22,2 km/h S 181 1 min 0,001 mm 1,5 UV-I 290 W/m 18,0 C 18,2 C 36,4 km/h 100,00 %
20.06.2021 09:01 21,8 C 79 % 1008,0 hPa 0,0 l/m 16,1 km/h S 187 1 min 0,152 mm 1,2 UV-I 290 W/m 18,0 C 19,2 C 26,8 km/h 95,83 %
20.06.2021 09:00 21,9 C 79 % 1008,0 hPa 0,0 l/m 17,3 km/h S 171 0 min 0,000 mm 1,5 UV-I 257 W/m 18,1 C 19,1 C 30,6 km/h 100,00 %
20.06.2021 08:59 21,8 C 79 % 1008,0 hPa 0,0 l/m 16,6 km/h SW 234 1 min 0,000 mm 1,3 UV-I 334 W/m 18,0 C 19,1 C 24,9 km/h 100,00 %
20.06.2021 08:58 21,9 C 80 % 1008,0 hPa 0,0 l/m 17,0 km/h S 185 1 min 0,000 mm 1,6 UV-I 350 W/m 18,3 C 19,2 C 26,8 km/h 100,00 %
20.06.2021 08:57 21,8 C 80 % 1008,0 hPa 0,0 l/m 13,8 km/h W-SW 241 1 min 0,000 mm 1,6 UV-I 323 W/m 18,2 C 19,7 C 24,9 km/h 100,00 %
20.06.2021 08:56 21,8 C 81 % 1008,1 hPa 0,0 l/m 17,1 km/h SW 215 1 min 0,000 mm 1,5 UV-I 314 W/m 18,4 C 19,0 C 28,7 km/h 96,15 %
20.06.2021 08:55 21,8 C 81 % 1008,0 hPa 0,0 l/m 12,4 km/h S 176 1 min 0,000 mm 1,4 UV-I 322 W/m 18,4 C 20,0 C 19,1 km/h 100,00 %
20.06.2021 08:54 21,7 C 82 % 1008,0 hPa 0,0 l/m 7,7 km/h SW 223 0 min 0,000 mm 1,5 UV-I 273 W/m 18,5 C 21,2 C 13,4 km/h 96,30 %
20.06.2021 08:53 21,7 C 82 % 1008,0 hPa 0,0 l/m 7,3 km/h S-SO 155 0 min 0,000 mm 1,3 UV-I 234 W/m 18,5 C 21,4 C 11,5 km/h 100,00 %
20.06.2021 08:52 21,7 C 82 % 1008,0 hPa 0,0 l/m 10,0 km/h S-SO 168 0 min 0,000 mm 1,0 UV-I 178 W/m 18,5 C 20,5 C 13,4 km/h 100,00 %
20.06.2021 08:51 21,6 C 82 % 1008,0 hPa 0,0 l/m 10,1 km/h S-SW 198 1 min 0,000 mm 1,0 UV-I 326 W/m 18,4 C 20,4 C 15,3 km/h 100,00 %
20.06.2021 08:50 21,5 C 82 % 1008,0 hPa 0,0 l/m 11,5 km/h S-SW 212 1 min 0,000 mm 1,3 UV-I 345 W/m 18,3 C 19,9 C 15,3 km/h 100,00 %
20.06.2021 08:49 21,5 C 82 % 1007,9 hPa 0,0 l/m 9,4 km/h SW 217 1 min 0,000 mm 1,1 UV-I 345 W/m 18,3 C 20,5 C 19,1 km/h 100,00 %
20.06.2021 08:48 21,4 C 82 % 1007,9 hPa 0,0 l/m 11,2 km/h S-SW 209 1 min 0,000 mm 1,2 UV-I 345 W/m 18,2 C 19,9 C 15,3 km/h 100,00 %
20.06.2021 08:47 21,4 C 83 % 1007,9 hPa 0,0 l/m 20,6 km/h S-SO 150 0 min 0,000 mm 1,2 UV-I 282 W/m 18,4 C 17,9 C 28,7 km/h 100,00 %
20.06.2021 08:46 21,4 C 83 % 1007,8 hPa 0,0 l/m 14,1 km/h S 186 0 min 0,000 mm 1,2 UV-I 195 W/m 18,4 C 19,1 C 26,8 km/h 100,00 %
20.06.2021 08:45 21,3 C 83 % 1007,8 hPa 0,0 l/m 12,5 km/h S-SW 213 0 min 0,000 mm 1,3 UV-I 264 W/m 18,3 C 19,4 C 19,1 km/h 100,00 %
20.06.2021 08:44 21,3 C 83 % 1007,8 hPa 0,0 l/m 12,1 km/h S 170 0 min 0,000 mm 1,4 UV-I 279 W/m 18,3 C 19,5 C 19,1 km/h 100,00 %
20.06.2021 08:43 21,3 C 83 % 1007,8 hPa 0,0 l/m 13,2 km/h S 179 0 min 0,000 mm 1,4 UV-I 243 W/m 18,3 C 19,2 C 17,2 km/h 100,00 %
20.06.2021 08:42 21,2 C 84 % 1007,9 hPa 0,0 l/m 10,7 km/h SW 236 0 min 0,000 mm 1,2 UV-I 156 W/m 18,4 C 19,8 C 17,2 km/h 100,00 %
20.06.2021 08:41 21,2 C 84 % 1007,9 hPa 0,0 l/m 11,0 km/h SW 227 0 min 0,000 mm 1,0 UV-I 236 W/m 18,4 C 19,7 C 15,3 km/h 100,00 %
20.06.2021 08:40 21,2 C 84 % 1007,9 hPa 0,0 l/m 11,2 km/h S-SW 212 0 min 0,000 mm 1,1 UV-I 265 W/m 18,4 C 19,6 C 15,3 km/h 100,00 %
20.06.2021 08:39 21,2 C 84 % 1007,9 hPa 0,0 l/m 10,8 km/h SW 236 0 min 0,000 mm 1,1 UV-I 265 W/m 18,4 C 19,7 C 17,2 km/h 100,00 %
20.06.2021 08:38 21,2 C 84 % 1007,9 hPa 0,0 l/m 8,1 km/h S 175 0 min 0,000 mm 1,1 UV-I 256 W/m 18,4 C 20,6 C 13,4 km/h 100,00 %
20.06.2021 08:37 21,2 C 84 % 1007,9 hPa 0,0 l/m 12,9 km/h SW 221 0 min 0,000 mm 1,2 UV-I 172 W/m 18,4 C 19,2 C 24,9 km/h 100,00 %
20.06.2021 08:36 21,2 C 85 % 1007,8 hPa 0,0 l/m 12,0 km/h S-SW 207 0 min 0,000 mm 1,2 UV-I 172 W/m 18,6 C 19,4 C 17,2 km/h 100,00 %
20.06.2021 08:35 21,2 C 85 % 1007,9 hPa 0,0 l/m 9,5 km/h S 175 0 min 0,000 mm 1,2 UV-I 193 W/m 18,6 C 20,1 C 17,2 km/h 100,00 %
20.06.2021 08:34 21,2 C 85 % 1007,9 hPa 0,0 l/m 9,8 km/h S 182 0 min 0,000 mm 1,2 UV-I 160 W/m 18,6 C 20,0 C 19,1 km/h 100,00 %
20.06.2021 08:33 21,2 C 85 % 1007,8 hPa 0,0 l/m 11,7 km/h S-SW 198 0 min 0,000 mm 1,0 UV-I 141 W/m 18,6 C 19,5 C 15,3 km/h 100,00 %
20.06.2021 08:32 21,2 C 85 % 1007,8 hPa 0,0 l/m 7,3 km/h SW 227 0 min 0,000 mm 1,0 UV-I 177 W/m 18,6 C 20,9 C 13,4 km/h 100,00 %
20.06.2021 08:31 21,2 C 86 % 1007,8 hPa 0,0 l/m 9,1 km/h S 179 0 min 0,000 mm 1,0 UV-I 213 W/m 18,8 C 20,2 C 15,3 km/h 100,00 %
20.06.2021 08:30 21,1 C 86 % 1007,7 hPa 0,0 l/m 6,9 km/h S 177 0 min 0,000 mm 0,9 UV-I 177 W/m 18,7 C 20,9 C 9,6 km/h 95,65 %
20.06.2021 08:29 21,1 C 86 % 1007,7 hPa 0,0 l/m 7,5 km/h S 169 0 min 0,000 mm 0,9 UV-I 185 W/m 18,7 C 20,7 C 15,3 km/h 100,00 %
20.06.2021 08:28 21,0 C 86 % 1007,7 hPa 0,0 l/m 7,8 km/h S-SW 198 1 min 0,000 mm 1,0 UV-I 328 W/m 18,6 C 20,5 C 17,2 km/h 100,00 %
20.06.2021 08:27 21,0 C 86 % 1007,8 hPa 0,0 l/m 7,6 km/h S-SW 210 1 min 0,000 mm 1,1 UV-I 348 W/m 18,6 C 20,5 C 17,2 km/h 96,30 %
20.06.2021 08:26 20,9 C 86 % 1007,8 hPa 0,0 l/m 11,9 km/h S 177 0 min 0,000 mm 1,0 UV-I 142 W/m 18,5 C 19,1 C 21,0 km/h 100,00 %
20.06.2021 08:25 20,9 C 86 % 1007,8 hPa 0,0 l/m 10,3 km/h S 183 0 min 0,000 mm 0,8 UV-I 142 W/m 18,5 C 19,5 C 13,4 km/h 100,00 %
20.06.2021 08:24 20,9 C 86 % 1007,8 hPa 0,0 l/m 14,2 km/h SO 130 0 min 0,000 mm 0,7 UV-I 141 W/m 18,5 C 18,5 C 17,2 km/h 99,53 %
20.06.2021 08:23 20,9 C 86 % 1007,8 hPa 0,0 l/m 12,2 km/h S 173 0 min 0,000 mm 0,8 UV-I 153 W/m 18,5 C 19,0 C 19,1 km/h 100,00 %
20.06.2021 08:22 20,9 C 86 % 1007,8 hPa 0,0 l/m 6,7 km/h S-SO 161 0 min 0,000 mm 0,8 UV-I 199 W/m 18,5 C 20,8 C 13,4 km/h 100,00 %
20.06.2021 08:21 20,9 C 86 % 1007,8 hPa 0,0 l/m 8,0 km/h S-SW 195 0 min 0,000 mm 0,8 UV-I 169 W/m 18,5 C 20,3 C 15,3 km/h 100,00 %
20.06.2021 08:20 20,9 C 86 % 1007,8 hPa 0,0 l/m 13,7 km/h S-SW 193 0 min 0,000 mm 0,8 UV-I 153 W/m 18,5 C 18,6 C 24,9 km/h 95,83 %
20.06.2021 08:19 20,8 C 87 % 1007,9 hPa 0,0 l/m 5,7 km/h S-SW 195 0 min 0,000 mm 0,8 UV-I 202 W/m 18,6 C 20,8 C 11,5 km/h 100,00 %
20.06.2021 08:18 20,8 C 87 % 1007,9 hPa 0,0 l/m 10,8 km/h SW 218 0 min 0,000 mm 0,8 UV-I 274 W/m 18,6 C 19,3 C 21,0 km/h 100,00 %
20.06.2021 08:17 20,8 C 87 % 1007,9 hPa 0,0 l/m 14,5 km/h S 178 1 min 0,000 mm 0,9 UV-I 290 W/m 18,6 C 18,3 C 21,0 km/h 100,00 %
20.06.2021 08:16 20,8 C 87 % 1007,9 hPa 0,0 l/m 15,1 km/h S 172 0 min 0,000 mm 1,0 UV-I 269 W/m 18,6 C 18,2 C 21,0 km/h 100,00 %
20.06.2021 08:15 20,7 C 87 % 1007,8 hPa 0,0 l/m 10,5 km/h S-SO 165 0 min 0,000 mm 0,9 UV-I 214 W/m 18,5 C 19,3 C 17,2 km/h 100,00 %
20.06.2021 08:14 20,7 C 87 % 1007,8 hPa 0,0 l/m 8,9 km/h S 190 0 min 0,000 mm 0,9 UV-I 153 W/m 18,5 C 19,8 C 13,4 km/h 100,00 %
20.06.2021 08:13 20,7 C 87 % 1007,8 hPa 0,0 l/m 7,4 km/h S 183 0 min 0,000 mm 0,8 UV-I 148 W/m 18,5 C 20,3 C 15,3 km/h 100,00 %
20.06.2021 08:12 20,7 C 87 % 1007,8 hPa 0,0 l/m 10,8 km/h S-SW 212 0 min 0,000 mm 0,8 UV-I 149 W/m 18,5 C 19,2 C 17,2 km/h 100,00 %
20.06.2021 08:11 20,6 C 87 % 1007,8 hPa 0,0 l/m 9,9 km/h S-SW 212 0 min 0,000 mm 0,9 UV-I 190 W/m 18,4 C 19,3 C 15,3 km/h 100,00 %
20.06.2021 08:10 20,6 C 87 % 1007,8 hPa 0,0 l/m 5,3 km/h S-SW 198 0 min 0,000 mm 0,9 UV-I 192 W/m 18,4 C 20,6 C 11,5 km/h 96,30 %
20.06.2021 08:09 20,5 C 87 % 1007,7 hPa 0,0 l/m 12,1 km/h S 191 0 min 0,000 mm 0,9 UV-I 181 W/m 18,3 C 18,6 C 17,2 km/h 100,00 %
20.06.2021 08:08 20,5 C 88 % 1007,7 hPa 0,0 l/m 8,7 km/h S-SO 152 0 min 0,000 mm 0,8 UV-I 141 W/m 18,4 C 19,6 C 15,3 km/h 100,00 %
20.06.2021 08:07 20,5 C 88 % 1007,8 hPa 0,0 l/m 10,4 km/h S-SO 166 0 min 0,000 mm 0,7 UV-I 140 W/m 18,4 C 19,1 C 17,2 km/h 96,15 %
20.06.2021 08:06 20,5 C 88 % 1007,8 hPa 0,0 l/m 6,2 km/h S 188 0 min 0,000 mm 0,7 UV-I 130 W/m 18,4 C 20,5 C 9,6 km/h 100,00 %
20.06.2021 08:05 20,5 C 88 % 1007,9 hPa 0,0 l/m 9,7 km/h S-SW 200 0 min 0,000 mm 0,6 UV-I 110 W/m 18,4 C 19,3 C 13,4 km/h 100,00 %
20.06.2021 08:04 20,5 C 88 % 1007,9 hPa 0,0 l/m 7,8 km/h S 190 0 min 0,000 mm 0,5 UV-I 86 W/m 18,4 C 20,0 C 13,4 km/h 100,00 %
20.06.2021 08:03 20,5 C 88 % 1007,9 hPa 0,0 l/m 14,4 km/h S 183 0 min 0,000 mm 0,4 UV-I 77 W/m 18,4 C 18,0 C 21,0 km/h 96,15 %
20.06.2021 08:02 20,5 C 88 % 1007,9 hPa 0,0 l/m 7,4 km/h SO 144 0 min 0,000 mm 0,0 UV-I 64 W/m 18,4 C 20,1 C 11,5 km/h 100,00 %
20.06.2021 08:01 20,5 C 88 % 1007,8 hPa 0,0 l/m 9,6 km/h S 182 0 min 0,050 mm 0,0 UV-I 55 W/m 18,4 C 19,3 C 17,2 km/h 100,00 %
20.06.2021 08:00 20,4 C 87 % 1007,8 hPa 0,0 l/m 6,7 km/h S 184 0 min 0,000 mm 0,0 UV-I 52 W/m 18,2 C 20,3 C 13,4 km/h 100,00 %
20.06.2021 07:59 20,5 C 87 % 1007,8 hPa 0,0 l/m 14,0 km/h S-SW 192 0 min 0,000 mm 0,0 UV-I 45 W/m 18,3 C 18,1 C 21,0 km/h 100,00 %
20.06.2021 07:58 20,5 C 87 % 1007,8 hPa 0,0 l/m 12,0 km/h S 171 0 min 0,000 mm 0,0 UV-I 42 W/m 18,3 C 18,6 C 17,2 km/h 100,00 %
20.06.2021 07:57 20,5 C 88 % 1007,8 hPa 0,0 l/m 11,0 km/h S 187 0 min 0,000 mm 0,0 UV-I 34 W/m 18,4 C 18,9 C 17,2 km/h 100,00 %
20.06.2021 07:56 20,5 C 87 % 1007,8 hPa 0,0 l/m 10,8 km/h S-SO 159 0 min 0,000 mm 0,0 UV-I 33 W/m 18,3 C 18,9 C 19,1 km/h 100,00 %
20.06.2021 07:55 20,5 C 87 % 1007,8 hPa 0,0 l/m 7,6 km/h S-SO 165 0 min 0,000 mm 0,0 UV-I 35 W/m 18,3 C 20,0 C 15,3 km/h 100,00 %
20.06.2021 07:54 20,5 C 87 % 1007,8 hPa 0,0 l/m 14,4 km/h S 182 0 min 0,000 mm 0,0 UV-I 38 W/m 18,3 C 18,0 C 23,0 km/h 99,54 %
20.06.2021 07:53 20,5 C 87 % 1007,7 hPa 0,0 l/m 9,4 km/h W-SW 244 0 min 0,000 mm 0,0 UV-I 40 W/m 18,3 C 19,4 C 15,3 km/h 100,00 %
20.06.2021 07:52 20,5 C 87 % 1007,7 hPa 0,0 l/m 11,0 km/h SO 145 0 min 0,000 mm 0,0 UV-I 49 W/m 18,3 C 18,9 C 15,3 km/h 96,55 %
20.06.2021 07:51 20,4 C 87 % 1007,7 hPa 0,0 l/m 12,4 km/h S-SW 198 0 min 0,000 mm 0,0 UV-I 50 W/m 18,2 C 18,4 C 23,0 km/h 100,00 %
20.06.2021 07:50 20,5 C 87 % 1007,7 hPa 0,0 l/m 20,4 km/h S 190 0 min 0,000 mm 0,0 UV-I 52 W/m 18,3 C 16,8 C 32,5 km/h 100,00 %
20.06.2021 07:49 20,5 C 88 % 1007,7 hPa 0,0 l/m 17,0 km/h S-SO 167 0 min 0,000 mm 0,0 UV-I 53 W/m 18,4 C 17,4 C 30,6 km/h 100,00 %
20.06.2021 07:48 20,5 C 88 % 1007,6 hPa 0,0 l/m 13,6 km/h S 178 0 min 0,000 mm 0,0 UV-I 57 W/m 18,4 C 18,2 C 21,0 km/h 100,00 %
20.06.2021 07:47 20,6 C 88 % 1007,6 hPa 0,0 l/m 6,7 km/h S 171 0 min 0,000 mm 0,0 UV-I 63 W/m 18,5 C 20,5 C 9,6 km/h 100,00 %
20.06.2021 07:46 20,5 C 88 % 1007,7 hPa 0,0 l/m 5,7 km/h S 171 0 min 0,000 mm 0,0 UV-I 58 W/m 18,4 C 20,5 C 13,4 km/h 100,00 %
20.06.2021 07:45 20,5 C 88 % 1007,6 hPa 0,0 l/m 10,3 km/h S 171 0 min 0,000 mm 0,0 UV-I 70 W/m 18,4 C 19,1 C 13,4 km/h 100,00 %
20.06.2021 07:44 20,5 C 88 % 1007,6 hPa 0,0 l/m 6,9 km/h S 173 0 min 0,000 mm 0,0 UV-I 106 W/m 18,4 C 20,3 C 11,5 km/h 100,00 %
20.06.2021 07:43 20,4 C 87 % 1007,6 hPa 0,0 l/m 6,2 km/h S-SW 204 0 min 0,000 mm 0,0 UV-I 122 W/m 18,2 C 20,4 C 9,6 km/h 100,00 %
20.06.2021 07:42 20,4 C 87 % 1007,6 hPa 0,0 l/m 10,3 km/h S-SO 167 0 min 0,000 mm 0,5 UV-I 129 W/m 18,2 C 19,0 C 15,3 km/h 100,00 %
20.06.2021 07:41 20,4 C 87 % 1007,6 hPa 0,0 l/m 9,1 km/h S 172 0 min 0,000 mm 0,5 UV-I 118 W/m 18,2 C 19,4 C 15,3 km/h 100,00 %
20.06.2021 07:40 20,4 C 87 % 1007,7 hPa 0,0 l/m 7,7 km/h S-SO 163 0 min 0,000 mm 0,5 UV-I 99 W/m 18,2 C 19,9 C 11,5 km/h 100,00 %
20.06.2021 07:39 20,4 C 87 % 1007,7 hPa 0,0 l/m 6,8 km/h S 175 0 min 0,000 mm 0,5 UV-I 89 W/m 18,2 C 20,2 C 11,5 km/h 100,00 %
20.06.2021 07:38 20,4 C 87 % 1007,6 hPa 0,0 l/m 9,4 km/h S 179 0 min 0,000 mm 0,5 UV-I 77 W/m 18,2 C 19,3 C 15,3 km/h 100,00 %
20.06.2021 07:37 20,4 C 87 % 1007,5 hPa 0,0 l/m 14,4 km/h S 173 0 min 0,000 mm 0,5 UV-I 77 W/m 18,2 C 17,9 C 21,0 km/h 100,00 %
20.06.2021 07:36 20,4 C 87 % 1007,6 hPa 0,0 l/m 10,0 km/h S 175 0 min 0,000 mm 0,0 UV-I 71 W/m 18,2 C 19,1 C 19,1 km/h 100,00 %
20.06.2021 07:35 20,4 C 87 % 1007,5 hPa 0,0 l/m 11,1 km/h S-SW 211 0 min 0,000 mm 0,0 UV-I 64 W/m 18,2 C 18,7 C 17,2 km/h 100,00 %
20.06.2021 07:34 20,4 C 88 % 1007,6 hPa 0,0 l/m 12,1 km/h S 191 0 min 0,000 mm 0,0 UV-I 70 W/m 18,3 C 18,5 C 17,2 km/h 100,00 %
20.06.2021 07:33 20,4 C 88 % 1007,5 hPa 0,0 l/m 14,9 km/h S 173 0 min 0,000 mm 0,0 UV-I 71 W/m 18,3 C 17,8 C 21,0 km/h 100,00 %
20.06.2021 07:32 20,4 C 88 % 1007,5 hPa 0,0 l/m 14,3 km/h S-SW 200 0 min 0,000 mm 0,0 UV-I 56 W/m 18,3 C 17,9 C 23,0 km/h 100,00 %
20.06.2021 07:31 20,4 C 88 % 1007,5 hPa 0,0 l/m 14,4 km/h S-SO 155 0 min 0,000 mm 0,0 UV-I 44 W/m 18,3 C 17,9 C 23,0 km/h 100,00 %
20.06.2021 07:30 20,4 C 88 % 1007,6 hPa 0,0 l/m 12,2 km/h S-SO 160 0 min 0,000 mm 0,0 UV-I 38 W/m 18,3 C 18,4 C 23,0 km/h 100,00 %
20.06.2021 07:29 20,4 C 88 % 1007,5 hPa 0,0 l/m 12,8 km/h S-SO 152 0 min 0,000 mm 0,0 UV-I 39 W/m 18,3 C 18,3 C 30,6 km/h 100,00 %
20.06.2021 07:28 20,4 C 88 % 1007,5 hPa 0,0 l/m 11,6 km/h S 184 0 min 0,000 mm 0,0 UV-I 47 W/m 18,3 C 18,6 C 15,3 km/h 100,00 %
20.06.2021 07:27 20,4 C 88 % 1007,5 hPa 0,0 l/m 9,2 km/h S 186 0 min 0,000 mm 0,0 UV-I 48 W/m 18,3 C 19,3 C 13,4 km/h 100,00 %
20.06.2021 07:26 20,4 C 88 % 1007,5 hPa 0,0 l/m 11,9 km/h S-SW 192 0 min 0,000 mm 0,0 UV-I 42 W/m 18,3 C 18,5 C 17,2 km/h 100,00 %
20.06.2021 07:25 20,4 C 88 % 1007,5 hPa 0,0 l/m 13,0 km/h S-SO 162 0 min 0,000 mm 0,0 UV-I 41 W/m 18,3 C 18,2 C 30,6 km/h 100,00 %
20.06.2021 07:24 20,4 C 88 % 1007,5 hPa 0,0 l/m 12,2 km/h S 180 0 min 0,000 mm 0,0 UV-I 42 W/m 18,3 C 18,4 C 17,2 km/h 96,15 %
20.06.2021 07:23 20,4 C 88 % 1007,5 hPa 0,0 l/m 12,5 km/h SO 144 0 min 0,000 mm 0,0 UV-I 52 W/m 18,3 C 18,4 C 21,0 km/h 100,00 %
20.06.2021 07:22 20,4 C 88 % 1007,4 hPa 0,0 l/m 11,4 km/h S-SO 168 0 min 0,000 mm 0,0 UV-I 48 W/m 18,3 C 18,7 C 17,2 km/h 100,00 %
20.06.2021 07:21 20,4 C 88 % 1007,4 hPa 0,0 l/m 9,8 km/h S 185 0 min 0,000 mm 0,0 UV-I 47 W/m 18,3 C 19,1 C 17,2 km/h 100,00 %
20.06.2021 07:20 20,4 C 88 % 1007,3 hPa 0,0 l/m 8,3 km/h S-SW 206 0 min 0,000 mm 0,0 UV-I 40 W/m 18,3 C 19,7 C 17,2 km/h 95,65 %
20.06.2021 07:19 20,4 C 88 % 1007,3 hPa 0,0 l/m 8,9 km/h S-SW 204 0 min 0,000 mm 0,0 UV-I 32 W/m 18,3 C 19,4 C 17,2 km/h 96,67 %
20.06.2021 07:18 20,4 C 88 % 1007,3 hPa 0,0 l/m 8,1 km/h SW 214 0 min 0,000 mm 0,0 UV-I 32 W/m 18,3 C 19,7 C 13,4 km/h 100,00 %
20.06.2021 07:17 20,4 C 88 % 1007,3 hPa 0,0 l/m 14,9 km/h S 169 0 min 0,000 mm 0,0 UV-I 45 W/m 18,3 C 17,8 C 21,0 km/h 100,00 %
20.06.2021 07:16 20,4 C 88 % 1007,3 hPa 0,0 l/m 8,8 km/h S-SW 196 0 min 0,000 mm 0,0 UV-I 55 W/m 18,3 C 19,5 C 15,3 km/h 100,00 %
20.06.2021 07:15 20,4 C 88 % 1007,2 hPa 0,0 l/m 17,0 km/h S 179 0 min 0,000 mm 0,0 UV-I 62 W/m 18,3 C 17,3 C 28,7 km/h 100,00 %
20.06.2021 07:14 20,4 C 88 % 1007,2 hPa 0,0 l/m 13,2 km/h S-SW 209 0 min 0,000 mm 0,0 UV-I 70 W/m 18,3 C 18,2 C 21,0 km/h 100,00 %
20.06.2021 07:13 20,4 C 88 % 1007,2 hPa 0,0 l/m 10,2 km/h S 188 0 min 0,000 mm 0,0 UV-I 73 W/m 18,3 C 19,0 C 17,2 km/h 100,00 %
20.06.2021 07:12 20,4 C 88 % 1007,2 hPa 0,0 l/m 10,0 km/h S-SW 207 0 min 0,000 mm 0,0 UV-I 81 W/m 18,3 C 19,1 C 19,1 km/h 100,00 %
20.06.2021 07:11 20,4 C 88 % 1007,2 hPa 0,0 l/m 13,5 km/h S-SW 208 0 min 0,000 mm 0,0 UV-I 101 W/m 18,3 C 18,1 C 19,1 km/h 100,00 %
20.06.2021 07:10 20,4 C 88 % 1007,3 hPa 0,0 l/m 12,3 km/h S-SO 148 0 min 0,000 mm 0,0 UV-I 118 W/m 18,3 C 18,4 C 17,2 km/h 100,00 %
20.06.2021 07:09 20,4 C 88 % 1007,2 hPa 0,0 l/m 7,6 km/h S-SO 150 0 min 0,000 mm 0,0 UV-I 112 W/m 18,3 C 19,9 C 11,5 km/h 100,00 %
20.06.2021 07:08 20,4 C 89 % 1007,2 hPa 0,0 l/m 9,0 km/h SO 145 0 min 0,000 mm 0,0 UV-I 84 W/m 18,5 C 19,4 C 13,4 km/h 100,00 %
20.06.2021 07:07 20,3 C 89 % 1007,2 hPa 0,0 l/m 14,1 km/h S 188 0 min 0,000 mm 0,0 UV-I 79 W/m 18,4 C 17,8 C 26,8 km/h 100,00 %
20.06.2021 07:06 20,3 C 89 % 1007,2 hPa 0,0 l/m 15,2 km/h S-SW 205 0 min 0,000 mm 0,0 UV-I 79 W/m 18,4 C 17,6 C 26,8 km/h 100,00 %
20.06.2021 07:05 20,3 C 89 % 1007,1 hPa 0,0 l/m 14,0 km/h S-SO 161 0 min 0,000 mm 0,0 UV-I 73 W/m 18,4 C 17,9 C 19,1 km/h 100,00 %
20.06.2021 07:04 20,3 C 89 % 1007,1 hPa 0,0 l/m 10,9 km/h S-SW 194 0 min 0,000 mm 0,0 UV-I 62 W/m 18,4 C 18,7 C 13,4 km/h 100,00 %
20.06.2021 07:03 20,3 C 89 % 1007,1 hPa 0,0 l/m 9,1 km/h S 190 0 min 0,000 mm 0,0 UV-I 55 W/m 18,4 C 19,3 C 13,4 km/h 100,00 %
20.06.2021 07:02 20,3 C 89 % 1007,0 hPa 0,0 l/m 11,8 km/h S 190 0 min 0,000 mm 0,0 UV-I 54 W/m 18,4 C 18,4 C 17,2 km/h 100,00 %
20.06.2021 07:01 20,3 C 89 % 1007,1 hPa 0,0 l/m 11,5 km/h S-SO 148 0 min 0,000 mm 0,0 UV-I 55 W/m 18,4 C 18,5 C 15,3 km/h 100,00 %
20.06.2021 07:00 20,3 C 89 % 1007,1 hPa 0,0 l/m 13,8 km/h S-SO 163 0 min 0,026 mm 0,0 UV-I 54 W/m 18,4 C 17,9 C 24,9 km/h 100,00 %
20.06.2021 06:59 20,3 C 89 % 1007,0 hPa 0,0 l/m 9,9 km/h S 186 0 min 0,000 mm 0,0 UV-I 53 W/m 18,4 C 19,0 C 17,2 km/h 100,00 %
20.06.2021 06:58 20,3 C 89 % 1007,0 hPa 0,0 l/m 9,1 km/h S 175 0 min 0,000 mm 0,0 UV-I 51 W/m 18,4 C 19,3 C 17,2 km/h 95,83 %
20.06.2021 06:57 20,3 C 89 % 1007,0 hPa 0,0 l/m 8,6 km/h S 180 0 min 0,000 mm 0,0 UV-I 50 W/m 18,4 C 19,4 C 15,3 km/h 95,65 %
20.06.2021 06:56 20,3 C 89 % 1007,0 hPa 0,0 l/m 12,6 km/h S-SW 197 0 min 0,000 mm 0,0 UV-I 50 W/m 18,4 C 18,2 C 19,1 km/h 100,00 %
20.06.2021 06:55 20,3 C 89 % 1007,0 hPa 0,0 l/m 11,4 km/h S-SO 157 0 min 0,000 mm 0,0 UV-I 47 W/m 18,4 C 18,5 C 17,2 km/h 100,00 %
20.06.2021 06:54 20,3 C 89 % 1007,0 hPa 0,0 l/m 16,2 km/h S-SO 166 0 min 0,000 mm 0,0 UV-I 43 W/m 18,4 C 17,3 C 24,9 km/h 100,00 %
20.06.2021 06:53 20,3 C 89 % 1006,9 hPa 0,0 l/m 11,4 km/h S-SW 200 0 min 0,000 mm 0,0 UV-I 44 W/m 18,4 C 18,5 C 23,0 km/h 100,00 %
20.06.2021 06:52 20,3 C 89 % 1007,0 hPa 0,0 l/m 15,9 km/h S-SO 164 0 min 0,000 mm 0,0 UV-I 51 W/m 18,4 C 17,4 C 24,9 km/h 100,00 %
20.06.2021 06:51 20,3 C 89 % 1007,0 hPa 0,0 l/m 10,4 km/h S-SO 156 0 min 0,000 mm 0,0 UV-I 58 W/m 18,4 C 18,8 C 17,2 km/h 100,00 %
20.06.2021 06:50 20,3 C 90 % 1007,0 hPa 0,0 l/m 15,6 km/h S-SO 165 0 min 0,000 mm 0,0 UV-I 61 W/m 18,6 C 17,5 C 23,0 km/h 100,00 %
20.06.2021 06:49 20,3 C 90 % 1007,0 hPa 0,0 l/m 13,2 km/h S-SW 200 0 min 0,000 mm 0,0 UV-I 58 W/m 18,6 C 18,1 C 21,0 km/h 100,00 %
20.06.2021 06:48 20,3 C 90 % 1006,9 hPa 0,0 l/m 10,0 km/h S-SW 193 0 min 0,000 mm 0,0 UV-I 47 W/m 18,6 C 19,0 C 17,2 km/h 100,00 %
20.06.2021 06:47 20,4 C 90 % 1007,0 hPa 0,0 l/m 14,8 km/h S 179 0 min 0,000 mm 0,0 UV-I 38 W/m 18,7 C 17,8 C 21,0 km/h 100,00 %
20.06.2021 06:46 20,4 C 90 % 1006,9 hPa 0,0 l/m 12,0 km/h S 173 0 min 0,000 mm 0,0 UV-I 32 W/m 18,7 C 18,5 C 23,0 km/h 100,00 %
20.06.2021 06:45 20,4 C 90 % 1006,9 hPa 0,0 l/m 9,0 km/h S-SW 202 0 min 0,000 mm 0,0 UV-I 34 W/m 18,7 C 19,4 C 17,2 km/h 100,00 %
20.06.2021 06:44 20,4 C 90 % 1006,9 hPa 0,0 l/m 8,8 km/h S 184 0 min 0,000 mm 0,0 UV-I 39 W/m 18,7 C 19,5 C 11,5 km/h 100,00 %
20.06.2021 06:43 20,4 C 90 % 1006,9 hPa 0,0 l/m 9,6 km/h S 178 0 min 0,000 mm 0,0 UV-I 42 W/m 18,7 C 19,2 C 17,2 km/h 100,00 %
20.06.2021 06:42 20,3 C 90 % 1006,8 hPa 0,0 l/m 13,5 km/h S 184 0 min 0,000 mm 0,0 UV-I 46 W/m 18,6 C 18,0 C 19,1 km/h 100,00 %
20.06.2021 06:41 20,3 C 90 % 1006,8 hPa 0,0 l/m 9,1 km/h S 180 0 min 0,000 mm 0,0 UV-I 43 W/m 18,6 C 19,3 C 21,0 km/h 100,00 %
20.06.2021 06:40 20,3 C 90 % 1006,9 hPa 0,0 l/m 8,7 km/h S 175 0 min 0,000 mm 0,0 UV-I 37 W/m 18,6 C 19,4 C 15,3 km/h 99,49 %
20.06.2021 06:39 20,3 C 90 % 1007,0 hPa 0,0 l/m 18,3 km/h S-SO 164 0 min 0,000 mm 0,0 UV-I 37 W/m 18,6 C 16,9 C 28,7 km/h 100,00 %
20.06.2021 06:38 20,3 C 90 % 1007,0 hPa 0,0 l/m 18,2 km/h S-SO 164 0 min 0,000 mm 0,0 UV-I 46 W/m 18,6 C 16,9 C 34,4 km/h 100,00 %
20.06.2021 06:37 20,3 C 90 % 1007,0 hPa 0,0 l/m 12,1 km/h W-SW 243 0 min 0,000 mm 0,0 UV-I 54 W/m 18,6 C 18,3 C 17,2 km/h 100,00 %
20.06.2021 06:36 20,3 C 90 % 1006,9 hPa 0,0 l/m 11,2 km/h S-SW 211 0 min 0,000 mm 0,0 UV-I 58 W/m 18,6 C 18,6 C 15,3 km/h 100,00 %
20.06.2021 06:35 20,3 C 90 % 1006,9 hPa 0,0 l/m 12,0 km/h S-SO 158 0 min 0,000 mm 0,0 UV-I 59 W/m 18,6 C 18,4 C 19,1 km/h 100,00 %
20.06.2021 06:34 20,3 C 90 % 1006,9 hPa 0,0 l/m 11,3 km/h S 188 0 min 0,000 mm 0,0 UV-I 53 W/m 18,6 C 18,6 C 17,2 km/h 100,00 %
20.06.2021 06:33 20,3 C 90 % 1006,8 hPa 0,0 l/m 9,9 km/h S 170 0 min 0,000 mm 0,0 UV-I 53 W/m 18,6 C 19,0 C 13,4 km/h 100,00 %
20.06.2021 06:32 20,3 C 90 % 1006,8 hPa 0,0 l/m 10,4 km/h S 186 0 min 0,000 mm 0,0 UV-I 55 W/m 18,6 C 18,8 C 17,2 km/h 100,00 %
20.06.2021 06:31 20,3 C 91 % 1006,8 hPa 0,0 l/m 12,4 km/h S-SO 150 0 min 0,000 mm 0,0 UV-I 54 W/m 18,8 C 18,3 C 21,0 km/h 100,00 %
20.06.2021 06:30 20,3 C 91 % 1006,8 hPa 0,0 l/m 17,6 km/h S-SO 148 0 min 0,000 mm 0,0 UV-I 46 W/m 18,8 C 17,1 C 26,8 km/h 94,12 %
20.06.2021 06:29 20,3 C 91 % 1006,8 hPa 0,0 l/m 9,3 km/h S 188 0 min 0,000 mm 0,0 UV-I 37 W/m 18,8 C 19,2 C 17,2 km/h 100,00 %
20.06.2021 06:28 20,3 C 91 % 1006,7 hPa 0,0 l/m 10,4 km/h S 188 0 min 0,000 mm 0,0 UV-I 34 W/m 18,8 C 18,8 C 15,3 km/h 100,00 %
20.06.2021 06:27 20,3 C 91 % 1006,8 hPa 0,0 l/m 9,2 km/h S 186 0 min 0,000 mm 0,0 UV-I 30 W/m 18,8 C 19,2 C 17,2 km/h 100,00 %
20.06.2021 06:26 20,3 C 91 % 1006,7 hPa 0,0 l/m 10,4 km/h S-SW 203 0 min 0,000 mm 0,0 UV-I 27 W/m 18,8 C 18,8 C 17,2 km/h 100,00 %
20.06.2021 06:25 20,3 C 91 % 1006,8 hPa 0,0 l/m 13,4 km/h S-SW 203 0 min 0,000 mm 0,0 UV-I 25 W/m 18,8 C 18,0 C 19,1 km/h 100,00 %
20.06.2021 06:24 20,2 C 91 % 1006,7 hPa 0,0 l/m 7,1 km/h S-SW 209 0 min 0,000 mm 0,0 UV-I 22 W/m 18,7 C 19,9 C 11,5 km/h 100,00 %
20.06.2021 06:23 20,2 C 91 % 1006,6 hPa 0,0 l/m 14,3 km/h S-SW 192 0 min 0,000 mm 0,0 UV-I 19 W/m 18,7 C 17,7 C 21,0 km/h 100,00 %
20.06.2021 06:22 20,2 C 91 % 1006,6 hPa 0,0 l/m 13,8 km/h S-SW 194 0 min 0,000 mm 0,0 UV-I 18 W/m 18,7 C 17,8 C 23,0 km/h 100,00 %
20.06.2021 06:21 20,3 C 91 % 1006,5 hPa 0,0 l/m 10,0 km/h S-SO 151 0 min 0,000 mm 0,0 UV-I 16 W/m 18,8 C 19,0 C 15,3 km/h 100,00 %
20.06.2021 06:20 20,3 C 91 % 1006,6 hPa 0,0 l/m 17,0 km/h S 169 0 min 0,000 mm 0,0 UV-I 15 W/m 18,8 C 17,2 C 28,7 km/h 100,00 %
20.06.2021 06:19 20,3 C 91 % 1006,6 hPa 0,0 l/m 13,9 km/h S-SW 199 0 min 0,000 mm 0,0 UV-I 14 W/m 18,8 C 17,9 C 24,9 km/h 100,00 %
20.06.2021 06:18 20,3 C 91 % 1006,6 hPa 0,0 l/m 13,9 km/h S-SW 200 0 min 0,000 mm 0,0 UV-I 14 W/m 18,8 C 17,9 C 19,1 km/h 96,30 %
20.06.2021 06:17 20,3 C 91 % 1006,7 hPa 0,0 l/m 9,8 km/h S 176 0 min 0,000 mm 0,0 UV-I 12 W/m 18,8 C 19,0 C 13,4 km/h 100,00 %
20.06.2021 06:16 20,3 C 91 % 1006,7 hPa 0,0 l/m 10,2 km/h S-SW 195 0 min 0,000 mm 0,0 UV-I 11 W/m 18,8 C 18,9 C 19,1 km/h 100,00 %
20.06.2021 06:15 20,3 C 91 % 1006,7 hPa 0,0 l/m 9,9 km/h S-SW 202 0 min 0,000 mm 0,0 UV-I 11 W/m 18,8 C 19,0 C 21,0 km/h 100,00 %
20.06.2021 06:14 20,3 C 91 % 1006,7 hPa 0,0 l/m 7,0 km/h S-SW 209 0 min 0,000 mm 0,0 UV-I 11 W/m 18,8 C 20,1 C 23,0 km/h 95,83 %
20.06.2021 06:13 20,3 C 91 % 1006,7 hPa 0,0 l/m 5,7 km/h S-SW 211 0 min 0,000 mm 0,0 UV-I 11 W/m 18,8 C 20,3 C 7,7 km/h 95,65 %
20.06.2021 06:12 20,3 C 91 % 1006,7 hPa 0,0 l/m 9,5 km/h S 173 0 min 0,000 mm 0,0 UV-I 11 W/m 18,8 C 19,1 C 13,4 km/h 100,00 %
20.06.2021 06:11 20,3 C 91 % 1006,7 hPa 0,0 l/m 9,6 km/h S-SO 161 0 min 0,000 mm 0,0 UV-I 12 W/m 18,8 C 19,1 C 13,4 km/h 100,00 %
20.06.2021 06:10 20,3 C 91 % 1006,7 hPa 0,0 l/m 11,1 km/h S 186 0 min 0,000 mm 0,0 UV-I 12 W/m 18,8 C 18,6 C 17,2 km/h 100,00 %
20.06.2021 06:09 20,3 C 91 % 1006,7 hPa 0,0 l/m 12,3 km/h S-SO 167 0 min 0,000 mm 0,0 UV-I 11 W/m 18,8 C 18,3 C 23,0 km/h 100,00 %
20.06.2021 06:08 20,3 C 91 % 1006,7 hPa 0,0 l/m 13,1 km/h S-SW 213 0 min 0,000 mm 0,0 UV-I 11 W/m 18,8 C 18,1 C 23,0 km/h 100,00 %
20.06.2021 06:07 20,3 C 91 % 1006,6 hPa 0,0 l/m 15,5 km/h SO 136 0 min 0,000 mm 0,0 UV-I 9 W/m 18,8 C 17,5 C 21,0 km/h 100,00 %
20.06.2021 06:06 20,3 C 91 % 1006,5 hPa 0,0 l/m 12,9 km/h S 175 0 min 0,000 mm 0,0 UV-I 9 W/m 18,8 C 18,1 C 23,0 km/h 100,00 %
20.06.2021 06:05 20,4 C 91 % 1006,6 hPa 0,0 l/m 15,2 km/h S-SW 192 0 min 0,000 mm 0,0 UV-I 9 W/m 18,9 C 17,7 C 21,0 km/h 100,00 %
20.06.2021 06:04 20,4 C 91 % 1006,6 hPa 0,0 l/m 15,2 km/h S-SO 149 0 min 0,000 mm 0,0 UV-I 8 W/m 18,9 C 17,7 C 21,0 km/h 100,00 %
20.06.2021 06:03 20,4 C 91 % 1006,5 hPa 0,0 l/m 10,2 km/h S-SW 209 0 min 0,000 mm 0,0 UV-I 8 W/m 18,9 C 19,0 C 17,2 km/h 100,00 %
20.06.2021 06:02 20,4 C 91 % 1006,6 hPa 0,0 l/m 12,3 km/h SO 144 0 min 0,000 mm 0,0 UV-I 7 W/m 18,9 C 18,4 C 23,0 km/h 100,00 %
20.06.2021 06:01 20,4 C 91 % 1006,6 hPa 0,0 l/m 10,9 km/h S-SW 194 0 min 0,025 mm 0,0 UV-I 7 W/m 18,9 C 18,8 C 21,0 km/h 96,00 %
20.06.2021 06:00 20,4 C 91 % 1006,5 hPa 0,0 l/m 15,9 km/h S-SO 166 0 min 0,000 mm 0,0 UV-I 7 W/m 18,9 C 17,5 C 26,8 km/h 100,00 %
20.06.2021 05:59 20,4 C 91 % 1006,5 hPa 0,0 l/m 8,5 km/h S 188 0 min 0,000 mm 0,0 UV-I 7 W/m 18,9 C 19,6 C 17,2 km/h 100,00 %
20.06.2021 05:58 20,4 C 91 % 1006,5 hPa 0,0 l/m 11,5 km/h S 176 0 min 0,000 mm 0,0 UV-I 7 W/m 18,9 C 18,6 C 17,2 km/h 100,00 %
20.06.2021 05:57 20,4 C 91 % 1006,5 hPa 0,0 l/m 11,3 km/h SO 146 0 min 0,000 mm 0,0 UV-I 8 W/m 18,9 C 18,7 C 19,1 km/h 96,30 %
20.06.2021 05:56 20,4 C 91 % 1006,5 hPa 0,0 l/m 9,8 km/h S 173 0 min 0,000 mm 0,0 UV-I 9 W/m 18,9 C 19,1 C 17,2 km/h 96,15 %
20.06.2021 05:55 20,4 C 91 % 1006,4 hPa 0,0 l/m 7,3 km/h S 177 0 min 0,000 mm 0,0 UV-I 11 W/m 18,9 C 20,0 C 13,4 km/h 100,00 %
20.06.2021 05:54 20,4 C 91 % 1006,4 hPa 0,0 l/m 8,1 km/h S 175 0 min 0,000 mm 0,0 UV-I 10 W/m 18,9 C 19,7 C 13,4 km/h 100,00 %
20.06.2021 05:53 20,4 C 91 % 1006,3 hPa 0,0 l/m 8,8 km/h S 173 0 min 0,000 mm 0,0 UV-I 9 W/m 18,9 C 19,5 C 15,3 km/h 100,00 %
20.06.2021 05:52 20,4 C 91 % 1006,3 hPa 0,0 l/m 14,1 km/h S-SO 167 0 min 0,000 mm 0,0 UV-I 9 W/m 18,9 C 17,9 C 26,8 km/h 100,00 %
20.06.2021 05:51 20,4 C 91 % 1006,4 hPa 0,0 l/m 16,2 km/h S 169 0 min 0,000 mm 0,0 UV-I 9 W/m 18,9 C 17,5 C 23,0 km/h 100,00 %
20.06.2021 05:50 20,5 C 91 % 1006,4 hPa 0,0 l/m 12,2 km/h S-SO 151 0 min 0,000 mm 0,0 UV-I 9 W/m 19,0 C 18,6 C 21,0 km/h 100,00 %
20.06.2021 05:49 20,5 C 91 % 1006,3 hPa 0,0 l/m 12,0 km/h S 186 0 min 0,000 mm 0,0 UV-I 7 W/m 19,0 C 18,6 C 24,9 km/h 96,15 %
20.06.2021 05:48 20,5 C 91 % 1006,3 hPa 0,0 l/m 16,4 km/h S-SW 192 0 min 0,000 mm 0,0 UV-I 7 W/m 19,0 C 17,5 C 21,0 km/h 100,00 %
20.06.2021 05:47 20,5 C 91 % 1006,2 hPa 0,0 l/m 12,6 km/h S 169 0 min 0,000 mm 0,0 UV-I 7 W/m 19,0 C 18,4 C 19,1 km/h 91,67 %
20.06.2021 05:46 20,6 C 91 % 1006,2 hPa 0,0 l/m 15,1 km/h S-SW 198 0 min 0,000 mm 0,0 UV-I 7 W/m 19,1 C 18,0 C 19,1 km/h 100,00 %
20.06.2021 05:45 20,6 C 91 % 1006,2 hPa 0,0 l/m 11,4 km/h S 176 0 min 0,000 mm 0,0 UV-I 7 W/m 19,1 C 18,9 C 21,0 km/h 100,00 %
20.06.2021 05:44 20,6 C 91 % 1006,2 hPa 0,0 l/m 13,6 km/h S 177 0 min 0,000 mm 0,0 UV-I 7 W/m 19,1 C 18,3 C 19,1 km/h 91,67 %
20.06.2021 05:43 20,6 C 91 % 1006,2 hPa 0,0 l/m 12,5 km/h S-SO 157 0 min 0,000 mm 0,0 UV-I 5 W/m 19,1 C 18,6 C 19,1 km/h 100,00 %
20.06.2021 05:42 20,6 C 91 % 1006,2 hPa 0,0 l/m 14,7 km/h S-SO 163 0 min 0,000 mm 0,0 UV-I 5 W/m 19,1 C 18,0 C 26,8 km/h 100,00 %
20.06.2021 05:41 20,6 C 91 % 1006,2 hPa 0,0 l/m 11,4 km/h S 173 0 min 0,000 mm 0,0 UV-I 5 W/m 19,1 C 18,9 C 17,2 km/h 100,00 %
20.06.2021 05:40 20,6 C 91 % 1006,2 hPa 0,0 l/m 12,3 km/h S-SW 200 0 min 0,000 mm 0,0 UV-I 5 W/m 19,1 C 18,6 C 23,0 km/h 100,00 %
20.06.2021 05:39 20,6 C 91 % 1006,1 hPa 0,0 l/m 13,1 km/h S 182 0 min 0,000 mm 0,0 UV-I 5 W/m 19,1 C 18,4 C 19,1 km/h 100,00 %
20.06.2021 05:38 20,6 C 91 % 1006,1 hPa 0,0 l/m 9,5 km/h S 174 0 min 0,000 mm 0,0 UV-I 5 W/m 19,1 C 19,5 C 13,4 km/h 100,00 %
20.06.2021 05:37 20,6 C 91 % 1006,2 hPa 0,0 l/m 16,9 km/h S 169 0 min 0,000 mm 0,0 UV-I 5 W/m 19,1 C 17,6 C 34,4 km/h 100,00 %
20.06.2021 05:36 20,6 C 91 % 1006,1 hPa 0,0 l/m 12,2 km/h S-SW 194 0 min 0,000 mm 0,0 UV-I 5 W/m 19,1 C 18,7 C 15,3 km/h 100,00 %
20.06.2021 05:35 20,6 C 91 % 1006,2 hPa 0,0 l/m 11,5 km/h S-SO 163 0 min 0,000 mm 0,0 UV-I 5 W/m 19,1 C 18,9 C 21,0 km/h 100,00 %
20.06.2021 05:34 20,6 C 91 % 1006,2 hPa 0,0 l/m 11,4 km/h S 186 0 min 0,000 mm 0,0 UV-I 5 W/m 19,1 C 18,9 C 13,4 km/h 100,00 %
20.06.2021 05:33 20,6 C 91 % 1006,2 hPa 0,0 l/m 18,6 km/h SW 217 0 min 0,000 mm 0,0 UV-I 0 W/m 19,1 C 17,2 C 30,6 km/h 100,00 %
20.06.2021 05:32 20,6 C 91 % 1006,2 hPa 0,0 l/m 18,1 km/h S 171 0 min 0,000 mm 0,0 UV-I 0 W/m 19,1 C 17,3 C 26,8 km/h 100,00 %
20.06.2021 05:31 20,6 C 91 % 1006,2 hPa 0,0 l/m 16,4 km/h S 169 0 min 0,000 mm 0,0 UV-I 0 W/m 19,1 C 17,7 C 21,0 km/h 100,00 %
20.06.2021 05:30 20,6 C 91 % 1006,1 hPa 0,0 l/m 17,2 km/h S 187 0 min 0,000 mm 0,0 UV-I 0 W/m 19,1 C 17,5 C 24,9 km/h 95,83 %
20.06.2021 05:29 20,6 C 91 % 1006,1 hPa 0,0 l/m 11,8 km/h S-SW 209 0 min 0,000 mm 0,0 UV-I 0 W/m 19,1 C 18,8 C 17,2 km/h 96,15 %
20.06.2021 05:28 20,6 C 91 % 1006,1 hPa 0,0 l/m 16,6 km/h S 173 0 min 0,000 mm 0,0 UV-I 0 W/m 19,1 C 17,6 C 23,0 km/h 100,00 %
20.06.2021 05:27 20,6 C 91 % 1006,0 hPa 0,0 l/m 22,2 km/h O-SO 119 0 min 0,000 mm 0,0 UV-I 0 W/m 19,1 C 16,6 C 30,6 km/h 100,00 %
20.06.2021 05:26 20,6 C 91 % 1006,0 hPa 0,0 l/m 14,8 km/h S-SW 206 0 min 0,000 mm 0,0 UV-I 0 W/m 19,1 C 18,0 C 24,9 km/h 100,00 %
20.06.2021 05:25 20,6 C 91 % 1006,0 hPa 0,0 l/m 14,0 km/h S-SO 162 0 min 0,000 mm 0,0 UV-I 0 W/m 19,1 C 18,2 C 21,0 km/h 100,00 %
20.06.2021 05:24 20,6 C 91 % 1006,1 hPa 0,0 l/m 15,2 km/h S-SO 167 0 min 0,000 mm 0,0 UV-I 0 W/m 19,1 C 17,9 C 23,0 km/h 100,00 %
20.06.2021 05:23 20,6 C 91 % 1006,1 hPa 0,0 l/m 18,9 km/h S 186 0 min 0,000 mm 0,0 UV-I 0 W/m 19,1 C 17,2 C 30,6 km/h 100,00 %
20.06.2021 05:22 20,6 C 91 % 1006,1 hPa 0,0 l/m 13,6 km/h S-SO 160 0 min 0,000 mm 0,0 UV-I 0 W/m 19,1 C 18,3 C 21,0 km/h 100,00 %
20.06.2021 05:21 20,6 C 91 % 1006,1 hPa 0,0 l/m 10,5 km/h S 187 0 min 0,000 mm 0,0 UV-I 0 W/m 19,1 C 19,1 C 17,2 km/h 100,00 %
20.06.2021 05:20 20,6 C 91 % 1006,1 hPa 0,0 l/m 14,7 km/h S-SO 158 0 min 0,000 mm 0,0 UV-I 0 W/m 19,1 C 18,0 C 23,0 km/h 100,00 %
20.06.2021 05:19 20,6 C 91 % 1006,1 hPa 0,0 l/m 13,0 km/h S-SO 160 0 min 0,000 mm 0,0 UV-I 0 W/m 19,1 C 18,5 C 19,1 km/h 100,00 %
20.06.2021 05:18 20,6 C 91 % 1006,1 hPa 0,0 l/m 11,2 km/h S-SW 194 0 min 0,000 mm 0,0 UV-I 0 W/m 19,1 C 18,9 C 17,2 km/h 100,00 %
20.06.2021 05:17 20,6 C 91 % 1006,2 hPa 0,0 l/m 13,9 km/h S 186 0 min 0,000 mm 0,0 UV-I 0 W/m 19,1 C 18,2 C 21,0 km/h 100,00 %
20.06.2021 05:16 20,6 C 91 % 1006,2 hPa 0,0 l/m 15,2 km/h S 178 0 min 0,000 mm 0,0 UV-I 0 W/m 19,1 C 17,9 C 21,0 km/h 96,30 %
20.06.2021 05:15 20,6 C 91 % 1006,2 hPa 0,0 l/m 16,6 km/h S-SO 167 0 min 0,000 mm 0,0 UV-I 0 W/m 19,1 C 17,6 C 30,6 km/h 100,00 %
20.06.2021 05:14 20,5 C 91 % 1006,1 hPa 0,0 l/m 17,3 km/h SO 144 0 min 0,000 mm 0,0 UV-I 0 W/m 19,0 C 17,4 C 36,4 km/h 100,00 %
20.06.2021 05:13 20,5 C 91 % 1006,2 hPa 0,0 l/m 20,9 km/h S 181 0 min 0,000 mm 0,0 UV-I 0 W/m 19,0 C 16,7 C 30,6 km/h 100,00 %
20.06.2021 05:12 20,5 C 91 % 1006,1 hPa 0,0 l/m 18,2 km/h S 175 0 min 0,000 mm 0,0 UV-I 0 W/m 19,0 C 17,2 C 26,8 km/h 95,65 %
20.06.2021 05:11 20,5 C 91 % 1006,1 hPa 0,0 l/m 9,5 km/h S 180 0 min 0,000 mm 0,0 UV-I 0 W/m 19,0 C 19,4 C 19,1 km/h 100,00 %
20.06.2021 05:10 20,4 C 91 % 1006,1 hPa 0,0 l/m 14,2 km/h S-SO 162 0 min 0,000 mm 0,0 UV-I 0 W/m 18,9 C 17,9 C 21,0 km/h 95,65 %
20.06.2021 05:09 20,4 C 91 % 1006,1 hPa 0,0 l/m 12,5 km/h S 174 0 min 0,000 mm 0,0 UV-I 0 W/m 18,9 C 18,4 C 24,9 km/h 93,33 %
20.06.2021 05:08 20,4 C 91 % 1006,1 hPa 0,0 l/m 20,4 km/h S 184 0 min 0,000 mm 0,0 UV-I 0 W/m 18,9 C 16,7 C 30,6 km/h 100,00 %
20.06.2021 05:07 20,4 C 91 % 1006,1 hPa 0,0 l/m 12,6 km/h S 171 0 min 0,000 mm 0,0 UV-I 0 W/m 18,9 C 18,3 C 21,0 km/h 100,00 %
20.06.2021 05:06 20,4 C 92 % 1006,0 hPa 0,0 l/m 10,7 km/h S 179 0 min 0,000 mm 0,0 UV-I 0 W/m 19,1 C 18,9 C 19,1 km/h 100,00 %
20.06.2021 05:05 20,4 C 92 % 1006,0 hPa 0,0 l/m 24,4 km/h SO 135 0 min 0,000 mm 0,0 UV-I 0 W/m 19,1 C 16,0 C 34,4 km/h 100,00 %
20.06.2021 05:04 20,4 C 92 % 1006,0 hPa 0,0 l/m 13,1 km/h S-SO 147 0 min 0,000 mm 0,0 UV-I 0 W/m 19,1 C 18,2 C 21,0 km/h 100,00 %
20.06.2021 05:03 20,4 C 92 % 1005,9 hPa 0,0 l/m 10,6 km/h S 171 0 min 0,000 mm 0,0 UV-I 0 W/m 19,1 C 18,9 C 15,3 km/h 100,00 %
20.06.2021 05:02 20,4 C 92 % 1005,8 hPa 0,0 l/m 12,0 km/h S 170 0 min 0,001 mm 0,0 UV-I 0 W/m 19,1 C 18,5 C 17,2 km/h 100,00 %
20.06.2021 05:01 20,4 C 92 % 1005,8 hPa 0,0 l/m 17,1 km/h S-SO 160 0 min 0,025 mm 0,0 UV-I 0 W/m 19,1 C 17,3 C 28,7 km/h 96,15 %
20.06.2021 05:00 20,3 C 92 % 1005,7 hPa 0,0 l/m 12,4 km/h SO 138 0 min 0,000 mm 0,0 UV-I 0 W/m 19,0 C 18,3 C 19,1 km/h 100,00 %
20.06.2021 04:59 20,4 C 92 % 1005,7 hPa 0,0 l/m 10,3 km/h S-SO 150 0 min 0,000 mm 0,0 UV-I 0 W/m 19,1 C 19,0 C 19,1 km/h 100,00 %
20.06.2021 04:58 20,4 C 92 % 1005,6 hPa 0,0 l/m 7,3 km/h S 182 0 min 0,000 mm 0,0 UV-I 0 W/m 19,1 C 20,0 C 13,4 km/h 100,00 %
20.06.2021 04:57 20,4 C 92 % 1005,6 hPa 0,0 l/m 9,0 km/h S 188 0 min 0,000 mm 0,0 UV-I 0 W/m 19,1 C 19,4 C 13,4 km/h 100,00 %
20.06.2021 04:56 20,3 C 92 % 1005,6 hPa 0,0 l/m 6,9 km/h S 172 0 min 0,000 mm 0,0 UV-I 0 W/m 19,0 C 20,1 C 19,1 km/h 100,00 %
20.06.2021 04:55 20,3 C 91 % 1005,6 hPa 0,0 l/m 16,7 km/h S 178 0 min 0,000 mm 0,0 UV-I 0 W/m 18,8 C 17,2 C 28,7 km/h 100,00 %
20.06.2021 04:54 20,3 C 91 % 1005,5 hPa 0,0 l/m 12,2 km/h S-SO 147 0 min 0,000 mm 0,0 UV-I 0 W/m 18,8 C 18,3 C 19,1 km/h 100,00 %
20.06.2021 04:53 20,3 C 91 % 1005,5 hPa 0,0 l/m 9,6 km/h S-SW 193 0 min 0,000 mm 0,0 UV-I 0 W/m 18,8 C 19,1 C 17,2 km/h 100,00 %
20.06.2021 04:52 20,3 C 91 % 1005,6 hPa 0,0 l/m 11,2 km/h S 184 0 min 0,000 mm 0,0 UV-I 0 W/m 18,8 C 18,6 C 28,7 km/h 100,00 %
20.06.2021 04:51 20,3 C 91 % 1005,7 hPa 0,0 l/m 11,2 km/h S-SO 159 0 min 0,000 mm 0,0 UV-I 0 W/m 18,8 C 18,6 C 19,1 km/h 100,00 %
20.06.2021 04:50 20,3 C 91 % 1005,7 hPa 0,0 l/m 11,0 km/h S-SO 166 0 min 0,000 mm 0,0 UV-I 0 W/m 18,8 C 18,7 C 21,0 km/h 100,00 %
20.06.2021 04:49 20,3 C 91 % 1005,7 hPa 0,0 l/m 10,3 km/h S 174 0 min 0,000 mm 0,0 UV-I 0 W/m 18,8 C 18,9 C 15,3 km/h 100,00 %
20.06.2021 04:48 20,3 C 91 % 1005,8 hPa 0,0 l/m 11,8 km/h S-SO 150 0 min 0,000 mm 0,0 UV-I 0 W/m 18,8 C 18,4 C 19,1 km/h 100,00 %
20.06.2021 04:47 20,3 C 91 % 1005,8 hPa 0,0 l/m 11,7 km/h SO 124 0 min 0,000 mm 0,0 UV-I 0 W/m 18,8 C 18,5 C 19,1 km/h 100,00 %
20.06.2021 04:46 20,3 C 91 % 1005,8 hPa 0,0 l/m 14,1 km/h S 172 0 min 0,000 mm 0,0 UV-I 0 W/m 18,8 C 17,8 C 21,0 km/h 100,00 %
20.06.2021 04:45 20,3 C 91 % 1005,7 hPa 0,0 l/m 7,3 km/h S-SW 194 0 min 0,000 mm 0,0 UV-I 0 W/m 18,8 C 19,9 C 13,4 km/h 100,00 %
20.06.2021 04:44 20,3 C 91 % 1005,6 hPa 0,0 l/m 7,6 km/h S 176 0 min 0,000 mm 0,0 UV-I 0 W/m 18,8 C 19,8 C 11,5 km/h 100,00 %
20.06.2021 04:43 20,3 C 91 % 1005,6 hPa 0,0 l/m 8,4 km/h S-SO 167 0 min 0,000 mm 0,0 UV-I 0 W/m 18,8 C 19,5 C 13,4 km/h 100,00 %
20.06.2021 04:42 20,3 C 91 % 1005,5 hPa 0,0 l/m 7,8 km/h S-SO 160 0 min 0,000 mm 0,0 UV-I 0 W/m 18,8 C 19,7 C 11,5 km/h 100,00 %
20.06.2021 04:41 20,3 C 91 % 1005,5 hPa 0,0 l/m 6,3 km/h S 171 0 min 0,000 mm 0,0 UV-I 0 W/m 18,8 C 20,3 C 11,5 km/h 100,00 %
20.06.2021 04:40 20,4 C 91 % 1005,5 hPa 0,0 l/m 9,6 km/h S 187 0 min 0,000 mm 0,0 UV-I 0 W/m 18,9 C 19,2 C 17,2 km/h 100,00 %
20.06.2021 04:39 20,4 C 91 % 1005,4 hPa 0,0 l/m 5,9 km/h S-SO 160 0 min 0,000 mm 0,0 UV-I 0 W/m 18,9 C 20,4 C 11,5 km/h 100,00 %
20.06.2021 04:38 20,4 C 91 % 1005,3 hPa 0,0 l/m 7,3 km/h S-SO 160 0 min 0,000 mm 0,0 UV-I 0 W/m 18,9 C 20,0 C 11,5 km/h 100,00 %
20.06.2021 04:37 20,4 C 91 % 1005,3 hPa 0,0 l/m 8,0 km/h S-SO 159 0 min 0,000 mm 0,0 UV-I 0 W/m 18,9 C 19,8 C 13,4 km/h 100,00 %
20.06.2021 04:36 20,4 C 92 % 1005,3 hPa 0,0 l/m 9,7 km/h S 174 0 min 0,000 mm 0,0 UV-I 0 W/m 19,1 C 19,2 C 15,3 km/h 100,00 %
20.06.2021 04:35 20,4 C 92 % 1005,2 hPa 0,0 l/m 14,6 km/h S-SO 157 0 min 0,000 mm 0,0 UV-I 0 W/m 19,1 C 17,8 C 23,0 km/h 100,00 %
20.06.2021 04:34 20,4 C 92 % 1005,3 hPa 0,0 l/m 8,0 km/h S 175 0 min 0,000 mm 0,0 UV-I 0 W/m 19,1 C 19,8 C 17,2 km/h 100,00 %
20.06.2021 04:33 20,4 C 92 % 1005,1 hPa 0,0 l/m 6,3 km/h S 176 0 min 0,000 mm 0,0 UV-I 0 W/m 19,1 C 20,4 C 9,6 km/h 96,67 %
20.06.2021 04:32 20,4 C 92 % 1005,1 hPa 0,0 l/m 6,1 km/h O-SO 121 0 min 0,000 mm 0,0 UV-I 0 W/m 19,1 C 20,4 C 9,6 km/h 100,00 %
20.06.2021 04:31 20,4 C 92 % 1005,1 hPa 0,0 l/m 3,9 km/h S 180 0 min 0,000 mm 0,0 UV-I 0 W/m 19,1 C 20,4 C 7,7 km/h 100,00 %
20.06.2021 04:30 20,4 C 92 % 1005,1 hPa 0,0 l/m 4,6 km/h S-SO 153 0 min 0,000 mm 0,0 UV-I 0 W/m 19,1 C 20,4 C 7,7 km/h 100,00 %
20.06.2021 04:29 20,4 C 92 % 1004,9 hPa 0,0 l/m 4,1 km/h S-SO 157 0 min 0,000 mm 0,0 UV-I 0 W/m 19,1 C 20,4 C 5,7 km/h 100,00 %
20.06.2021 04:28 20,4 C 92 % 1004,9 hPa 0,0 l/m 2,0 km/h S-SO 157 0 min 0,000 mm 0,0 UV-I 0 W/m 19,1 C 20,4 C 3,8 km/h 95,65 %
20.06.2021 04:27 20,4 C 92 % 1004,9 hPa 0,0 l/m 2,5 km/h S-SO 157 0 min 0,000 mm 0,0 UV-I 0 W/m 19,1 C 20,4 C 3,8 km/h 100,00 %
20.06.2021 04:26 20,4 C 92 % 1004,9 hPa 0,0 l/m 4,1 km/h S-SO 157 0 min 0,000 mm 0,0 UV-I 0 W/m 19,1 C 20,4 C 9,6 km/h 100,00 %
20.06.2021 04:25 20,4 C 92 % 1005,0 hPa 0,0 l/m 2,5 km/h S-SO 159 0 min 0,000 mm 0,0 UV-I 0 W/m 19,1 C 20,4 C 3,8 km/h 100,00 %
20.06.2021 04:24 20,4 C 92 % 1005,1 hPa 0,0 l/m 3,3 km/h S-SO 159 0 min 0,000 mm 0,0 UV-I 0 W/m 19,1 C 20,4 C 3,8 km/h 100,00 %
20.06.2021 04:23 20,4 C 92 % 1005,1 hPa 0,0 l/m 5,2 km/h S-SO 160 0 min 0,000 mm 0,0 UV-I 0 W/m 19,1 C 20,4 C 9,6 km/h 100,00 %
20.06.2021 04:22 20,4 C 92 % 1005,1 hPa 0,0 l/m 5,4 km/h S 175 0 min 0,000 mm 0,0 UV-I 0 W/m 19,1 C 20,4 C 9,6 km/h 100,00 %
20.06.2021 04:21 20,4 C 92 % 1005,1 hPa 0,0 l/m 4,0 km/h S 172 0 min 0,000 mm 0,0 UV-I 0 W/m 19,1 C 20,4 C 5,7 km/h 100,00 %
20.06.2021 04:20 20,4 C 92 % 1005,1 hPa 0,0 l/m 3,5 km/h S 175 0 min 0,000 mm 0,0 UV-I 0 W/m 19,1 C 20,4 C 7,7 km/h 100,00 %
20.06.2021 04:19 20,4 C 92 % 1005,1 hPa 0,0 l/m 4,2 km/h SO 132 0 min 0,000 mm 0,0 UV-I 0 W/m 19,1 C 20,4 C 7,7 km/h 100,00 %
20.06.2021 04:18 20,4 C 92 % 1005,0 hPa 0,0 l/m 4,2 km/h SO 130 0 min 0,000 mm 0,0 UV-I 0 W/m 19,1 C 20,4 C 7,7 km/h 100,00 %
20.06.2021 04:17 20,4 C 92 % 1004,9 hPa 0,0 l/m 6,0 km/h SO 127 0 min 0,000 mm 0,0 UV-I 0 W/m 19,1 C 20,4 C 13,4 km/h 100,00 %
20.06.2021 04:16 20,4 C 92 % 1004,9 hPa 0,0 l/m 9,3 km/h S-SO 156 0 min 0,000 mm 0,0 UV-I 0 W/m 19,1 C 19,3 C 15,3 km/h 100,00 %
20.06.2021 04:15 20,4 C 92 % 1004,8 hPa 0,0 l/m 8,2 km/h SO 135 0 min 0,000 mm 0,0 UV-I 0 W/m 19,1 C 19,7 C 13,4 km/h 100,00 %
20.06.2021 04:14 20,4 C 92 % 1004,8 hPa 0,0 l/m 7,0 km/h O 101 0 min 0,000 mm 0,0 UV-I 0 W/m 19,1 C 20,2 C 13,4 km/h 100,00 %
20.06.2021 04:13 20,5 C 92 % 1004,8 hPa 0,0 l/m 5,4 km/h O-SO 111 0 min 0,000 mm 0,0 UV-I 0 W/m 19,2 C 20,5 C 11,5 km/h 100,00 %
20.06.2021 04:12 20,5 C 92 % 1004,8 hPa 0,0 l/m 12,1 km/h O-SO 109 0 min 0,000 mm 0,0 UV-I 0 W/m 19,2 C 18,6 C 19,1 km/h 100,00 %
20.06.2021 04:11 20,5 C 93 % 1004,7 hPa 0,0 l/m 9,0 km/h O-SO 113 0 min 0,000 mm 0,0 UV-I 0 W/m 19,3 C 19,5 C 17,2 km/h 100,00 %
20.06.2021 04:10 20,6 C 93 % 1004,8 hPa 0,0 l/m 6,9 km/h O-SO 114 0 min 0,000 mm 0,0 UV-I 0 W/m 19,4 C 20,4 C 13,4 km/h 100,00 %
20.06.2021 04:09 20,6 C 93 % 1005,0 hPa 0,0 l/m 6,7 km/h O-SO 115 0 min 0,000 mm 0,0 UV-I 0 W/m 19,4 C 20,5 C 11,5 km/h 100,00 %
20.06.2021 04:08 20,6 C 93 % 1004,9 hPa 0,0 l/m 4,7 km/h O-SO 115 0 min 0,000 mm 0,0 UV-I 0 W/m 19,4 C 20,6 C 11,5 km/h 100,00 %
20.06.2021 04:07 20,6 C 93 % 1005,0 hPa 0,0 l/m 5,4 km/h O-SO 113 0 min 0,000 mm 0,0 UV-I 0 W/m 19,4 C 20,6 C 7,7 km/h 100,00 %
20.06.2021 04:06 20,6 C 93 % 1005,0 hPa 0,0 l/m 4,9 km/h O-SO 112 0 min 0,000 mm 0,0 UV-I 0 W/m 19,4 C 20,6 C 7,7 km/h 100,00 %
20.06.2021 04:05 20,6 C 93 % 1005,0 hPa 0,0 l/m 3,3 km/h O-SO 113 0 min 0,000 mm 0,0 UV-I 0 W/m 19,4 C 20,6 C 5,7 km/h 100,00 %
20.06.2021 04:04 20,6 C 93 % 1005,0 hPa 0,0 l/m 5,3 km/h O-SO 113 0 min 0,000 mm 0,0 UV-I 0 W/m 19,4 C 20,6 C 7,7 km/h 100,00 %
20.06.2021 04:03 20,6 C 93 % 1004,9 hPa 0,0 l/m 8,6 km/h O-SO 113 0 min 0,000 mm 0,0 UV-I 0 W/m 19,4 C 19,8 C 13,4 km/h 100,00 %
20.06.2021 04:02 20,6 C 93 % 1004,9 hPa 0,0 l/m 7,9 km/h O-SO 115 0 min 0,000 mm 0,0 UV-I 0 W/m 19,4 C 20,0 C 15,3 km/h 100,00 %
20.06.2021 04:00 20,6 C 93 % 1005,0 hPa 0,0 l/m 8,1 km/h O-SO 113 0 min 0,000 mm 0,0 UV-I 0 W/m 19,4 C 19,9 C 13,4 km/h 96,15 %
20.06.2021 03:59 20,7 C 93 % 1005,0 hPa 0,0 l/m 9,9 km/h O 79 0 min 0,000 mm 0,0 UV-I 0 W/m 19,5 C 19,4 C 13,4 km/h 100,00 %
20.06.2021 03:58 20,7 C 93 % 1005,1 hPa 0,0 l/m 7,8 km/h O 90 0 min 0,000 mm 0,0 UV-I 0 W/m 19,5 C 20,2 C 11,5 km/h 100,00 %
20.06.2021 03:57 20,7 C 93 % 1005,1 hPa 0,0 l/m 12,6 km/h O 100 0 min 0,000 mm 0,0 UV-I 0 W/m 19,5 C 18,7 C 15,3 km/h 100,00 %
20.06.2021 03:56 20,7 C 93 % 1005,1 hPa 0,0 l/m 7,1 km/h O-SO 114 0 min 0,000 mm 0,0 UV-I 0 W/m 19,5 C 20,4 C 13,4 km/h 100,00 %
20.06.2021 03:55 20,7 C 93 % 1005,2 hPa 0,0 l/m 6,0 km/h O-SO 110 0 min 0,000 mm 0,0 UV-I 0 W/m 19,5 C 20,7 C 11,5 km/h 100,00 %
20.06.2021 03:54 20,7 C 93 % 1005,2 hPa 0,0 l/m 6,8 km/h O-SO 109 0 min 0,000 mm 0,0 UV-I 0 W/m 19,5 C 20,5 C 11,5 km/h 100,00 %
20.06.2021 03:53 20,7 C 93 % 1005,2 hPa 0,0 l/m 3,3 km/h O-SO 122 0 min 0,000 mm 0,0 UV-I 0 W/m 19,5 C 20,7 C 5,7 km/h 100,00 %
20.06.2021 03:52 20,7 C 93 % 1005,2 hPa 0,0 l/m 6,5 km/h O-SO 122 0 min 0,000 mm 0,0 UV-I 0 W/m 19,5 C 20,7 C 9,6 km/h 96,15 %
20.06.2021 03:51 20,7 C 93 % 1005,2 hPa 0,0 l/m 8,0 km/h O 99 0 min 0,000 mm 0,0 UV-I 0 W/m 19,5 C 20,1 C 13,4 km/h 100,00 %
20.06.2021 03:50 20,7 C 93 % 1005,2 hPa 0,0 l/m 3,9 km/h O-SO 110 0 min 0,000 mm 0,0 UV-I 0 W/m 19,5 C 20,7 C 7,7 km/h 100,00 %
20.06.2021 03:49 20,7 C 93 % 1005,4 hPa 0,0 l/m 8,9 km/h O-SO 103 0 min 0,000 mm 0,0 UV-I 0 W/m 19,5 C 19,8 C 13,4 km/h 100,00 %
20.06.2021 03:48 20,7 C 93 % 1005,4 hPa 0,0 l/m 10,5 km/h O 99 0 min 0,000 mm 0,0 UV-I 0 W/m 19,5 C 19,3 C 15,3 km/h 100,00 %
20.06.2021 03:47 20,7 C 93 % 1005,4 hPa 0,0 l/m 6,7 km/h O-SO 111 0 min 0,000 mm 0,0 UV-I 0 W/m 19,5 C 20,6 C 7,7 km/h 100,00 %
20.06.2021 03:46 20,7 C 94 % 1005,4 hPa 0,0 l/m 11,5 km/h O-SO 108 0 min 0,000 mm 0,0 UV-I 0 W/m 19,7 C 19,0 C 15,3 km/h 100,00 %
20.06.2021 03:45 20,8 C 94 % 1005,4 hPa 0,0 l/m 9,5 km/h O-SO 108 0 min 0,000 mm 0,0 UV-I 0 W/m 19,8 C 19,7 C 13,4 km/h 100,00 %
20.06.2021 03:44 20,8 C 94 % 1005,5 hPa 0,0 l/m 4,1 km/h O-SO 121 0 min 0,000 mm 0,0 UV-I 0 W/m 19,8 C 20,8 C 7,7 km/h 100,00 %
20.06.2021 03:43 20,8 C 94 % 1005,5 hPa 0,0 l/m 11,7 km/h O-SO 104 0 min 0,000 mm 0,0 UV-I 0 W/m 19,8 C 19,0 C 15,3 km/h 95,83 %
20.06.2021 03:42 20,8 C 94 % 1005,5 hPa 0,0 l/m 4,4 km/h O-SO 102 0 min 0,000 mm 0,0 UV-I 0 W/m 19,8 C 20,8 C 7,7 km/h 100,00 %
20.06.2021 03:41 20,8 C 94 % 1005,5 hPa 0,0 l/m 6,2 km/h O-SO 110 0 min 0,000 mm 0,0 UV-I 0 W/m 19,8 C 20,8 C 13,4 km/h 96,15 %
20.06.2021 03:40 20,8 C 94 % 1005,5 hPa 0,0 l/m 5,2 km/h O-SO 107 0 min 0,000 mm 0,0 UV-I 0 W/m 19,8 C 20,8 C 7,7 km/h 95,83 %
20.06.2021 03:39 20,8 C 94 % 1005,4 hPa 0,0 l/m 7,5 km/h O-SO 109 0 min 0,000 mm 0,0 UV-I 0 W/m 19,8 C 20,4 C 11,5 km/h 100,00 %
20.06.2021 03:38 20,7 C 94 % 1005,4 hPa 0,0 l/m 5,6 km/h O-SO 105 0 min 0,000 mm 0,0 UV-I 0 W/m 19,7 C 20,7 C 7,7 km/h 100,00 %
20.06.2021 03:37 20,7 C 94 % 1005,3 hPa 0,0 l/m 8,2 km/h O-SO 106 0 min 0,000 mm 0,0 UV-I 0 W/m 19,7 C 20,0 C 11,5 km/h 100,00 %
20.06.2021 03:36 20,7 C 94 % 1005,3 hPa 0,0 l/m 5,7 km/h O-SO 114 0 min 0,000 mm 0,0 UV-I 0 W/m 19,7 C 20,7 C 11,5 km/h 100,00 %
20.06.2021 03:35 20,7 C 94 % 1005,2 hPa 0,0 l/m 6,1 km/h O-SO 109 0 min 0,000 mm 0,0 UV-I 0 W/m 19,7 C 20,7 C 7,7 km/h 100,00 %
20.06.2021 03:34 20,7 C 94 % 1005,1 hPa 0,0 l/m 7,6 km/h O-SO 115 0 min 0,000 mm 0,0 UV-I 0 W/m 19,7 C 20,2 C 11,5 km/h 100,00 %
20.06.2021 03:33 20,8 C 94 % 1005,1 hPa 0,0 l/m 8,5 km/h O-SO 112 0 min 0,000 mm 0,0 UV-I 0 W/m 19,8 C 20,0 C 13,4 km/h 100,00 %
20.06.2021 03:32 20,7 C 94 % 1005,1 hPa 0,0 l/m 8,8 km/h O-SO 105 0 min 0,000 mm 0,0 UV-I 0 W/m 19,7 C 19,8 C 13,4 km/h 100,00 %
20.06.2021 03:31 20,8 C 94 % 1005,1 hPa 0,0 l/m 4,9 km/h O-SO 105 0 min 0,000 mm 0,0 UV-I 0 W/m 19,8 C 20,8 C 7,7 km/h 100,00 %
20.06.2021 03:30 20,8 C 94 % 1005,1 hPa 0,0 l/m 6,5 km/h O-SO 105 0 min 0,000 mm 0,0 UV-I 0 W/m 19,8 C 20,8 C 11,5 km/h 100,00 %
20.06.2021 03:29 20,8 C 94 % 1005,1 hPa 0,0 l/m 3,4 km/h O-SO 113 0 min 0,000 mm 0,0 UV-I 0 W/m 19,8 C 20,8 C 7,7 km/h 100,00 %
20.06.2021 03:28 20,8 C 94 % 1005,1 hPa 0,0 l/m 6,8 km/h O-SO 114 0 min 0,000 mm 0,0 UV-I 0 W/m 19,8 C 20,7 C 11,5 km/h 100,00 %
20.06.2021 03:27 20,8 C 94 % 1005,1 hPa 0,0 l/m 4,7 km/h O-SO 115 0 min 0,000 mm 0,0 UV-I 0 W/m 19,8 C 20,8 C 7,7 km/h 100,00 %
20.06.2021 03:26 20,8 C 94 % 1005,1 hPa 0,0 l/m 4,4 km/h O-SO 117 0 min 0,000 mm 0,0 UV-I 0 W/m 19,8 C 20,8 C 7,7 km/h 100,00 %
20.06.2021 03:25 20,8 C 94 % 1005,1 hPa 0,0 l/m 1,5 km/h O-SO 117 0 min 0,000 mm 0,0 UV-I 0 W/m 19,8 C 20,8 C 3,8 km/h 100,00 %
20.06.2021 03:24 20,8 C 94 % 1005,1 hPa 0,0 l/m 1,4 km/h O-SO 117 0 min 0,000 mm 0,0 UV-I 0 W/m 19,8 C 20,8 C 3,8 km/h 100,00 %
20.06.2021 03:23 20,8 C 94 % 1005,2 hPa 0,0 l/m 1,5 km/h O-SO 117 0 min 0,000 mm 0,0 UV-I 0 W/m 19,8 C 20,8 C 3,8 km/h 100,00 %
20.06.2021 03:22 20,8 C 94 % 1005,2 hPa 0,0 l/m 1,8 km/h O-SO 117 0 min 0,000 mm 0,0 UV-I 0 W/m 19,8 C 20,8 C 3,8 km/h 100,00 %
20.06.2021 03:21 20,8 C 94 % 1005,3 hPa 0,0 l/m 2,8 km/h O-SO 117 0 min 0,000 mm 0,0 UV-I 0 W/m 19,8 C 20,8 C 5,7 km/h 100,00 %
20.06.2021 03:20 20,8 C 94 % 1005,4 hPa 0,0 l/m 2,8 km/h O-SO 117 0 min 0,000 mm 0,0 UV-I 0 W/m 19,8 C 20,8 C 3,8 km/h 100,00 %
20.06.2021 03:19 20,8 C 94 % 1005,4 hPa 0,0 l/m 3,6 km/h O-SO 117 0 min 0,000 mm 0,0 UV-I 0 W/m 19,8 C 20,8 C 5,7 km/h 100,00 %
20.06.2021 03:18 20,8 C 94 % 1005,4 hPa 0,0 l/m 4,4 km/h O-SO 117 0 min 0,000 mm 0,0 UV-I 0 W/m 19,8 C 20,8 C 7,7 km/h 100,00 %
20.06.2021 03:17 20,8 C 94 % 1005,4 hPa 0,0 l/m 2,4 km/h O-SO 118 0 min 0,000 mm 0,0 UV-I 0 W/m 19,8 C 20,8 C 3,8 km/h 100,00 %
20.06.2021 03:16 20,8 C 94 % 1005,4 hPa 0,0 l/m 2,1 km/h O-SO 118 0 min 0,000 mm 0,0 UV-I 0 W/m 19,8 C 20,8 C 3,8 km/h 100,00 %
20.06.2021 03:15 20,8 C 94 % 1005,4 hPa 0,0 l/m 1,2 km/h O-SO 118 0 min 0,000 mm 0,0 UV-I 0 W/m 19,8 C 20,8 C 3,8 km/h 96,15 %
20.06.2021 03:14 20,8 C 94 % 1005,4 hPa 0,0 l/m 3,8 km/h O-SO 118 0 min 0,000 mm 0,0 UV-I 0 W/m 19,8 C 20,8 C 5,7 km/h 96,15 %
20.06.2021 03:13 20,8 C 94 % 1005,5 hPa 0,0 l/m 0,7 km/h O-SO 118 0 min 0,000 mm 0,0 UV-I 0 W/m 19,8 C 20,8 C 3,8 km/h 95,83 %
20.06.2021 03:12 20,8 C 94 % 1005,5 hPa 0,0 l/m 1,8 km/h O-SO 118 0 min 0,000 mm 0,0 UV-I 0 W/m 19,8 C 20,8 C 5,7 km/h 100,00 %
20.06.2021 03:11 20,8 C 94 % 1005,5 hPa 0,0 l/m 1,9 km/h O-SO 118 0 min 0,000 mm 0,0 UV-I 0 W/m 19,8 C 20,8 C 3,8 km/h 98,18 %
20.06.2021 03:10 20,8 C 94 % 1005,5 hPa 0,0 l/m 3,2 km/h O-SO 118 0 min 0,000 mm 0,0 UV-I 0 W/m 19,8 C 20,8 C 5,7 km/h 100,00 %
20.06.2021 03:09 20,8 C 94 % 1005,5 hPa 0,0 l/m 2,2 km/h O-SO 119 0 min 0,000 mm 0,0 UV-I 0 W/m 19,8 C 20,8 C 5,7 km/h 97,37 %
20.06.2021 03:08 20,8 C 94 % 1005,5 hPa 0,0 l/m 1,5 km/h O-SO 119 0 min 0,000 mm 0,0 UV-I 0 W/m 19,8 C 20,8 C 3,8 km/h 100,00 %
20.06.2021 03:07 20,8 C 93 % 1005,5 hPa 0,0 l/m 0,6 km/h O-SO 119 0 min 0,000 mm 0,0 UV-I 0 W/m 19,6 C 20,8 C 1,9 km/h 100,00 %
20.06.2021 03:06 20,8 C 93 % 1005,4 hPa 0,0 l/m 0,7 km/h O-SO 119 0 min 0,000 mm 0,0 UV-I 0 W/m 19,6 C 20,8 C 1,9 km/h 100,00 %
20.06.2021 03:05 20,8 C 93 % 1005,4 hPa 0,0 l/m 3,0 km/h O-SO 119 0 min 0,000 mm 0,0 UV-I 0 W/m 19,6 C 20,8 C 5,7 km/h 100,00 %
20.06.2021 03:04 20,8 C 93 % 1005,5 hPa 0,0 l/m 0,7 km/h O-SO 119 0 min 0,000 mm 0,0 UV-I 0 W/m 19,6 C 20,8 C 1,9 km/h 100,00 %
20.06.2021 03:03 20,8 C 93 % 1005,6 hPa 0,0 l/m 0,4 km/h O-SO 119 0 min 0,000 mm 0,0 UV-I 0 W/m 19,6 C 20,8 C 1,9 km/h 100,00 %
20.06.2021 03:02 20,8 C 93 % 1005,6 hPa 0,0 l/m 0,8 km/h O-SO 119 0 min 0,000 mm 0,0 UV-I 0 W/m 19,6 C 20,8 C 1,9 km/h 100,00 %
20.06.2021 03:01 20,8 C 93 % 1005,7 hPa 0,0 l/m 0,5 km/h O-SO 119 0 min 0,000 mm 0,0 UV-I 0 W/m 19,6 C 20,8 C 1,9 km/h 100,00 %
20.06.2021 03:00 20,8 C 93 % 1005,8 hPa 0,0 l/m 2,7 km/h O-SO 119 0 min 0,000 mm 0,0 UV-I 0 W/m 19,6 C 20,8 C 5,7 km/h 100,00 %
20.06.2021 02:59 20,8 C 93 % 1005,8 hPa 0,0 l/m 1,9 km/h O-SO 119 0 min 0,000 mm 0,0 UV-I 0 W/m 19,6 C 20,8 C 3,8 km/h 96,15 %
20.06.2021 02:58 20,8 C 93 % 1005,9 hPa 0,0 l/m 1,9 km/h O-SO 119 0 min 0,000 mm 0,0 UV-I 0 W/m 19,6 C 20,8 C 3,8 km/h 100,00 %
20.06.2021 02:57 20,8 C 93 % 1005,9 hPa 0,0 l/m 4,0 km/h O-SO 119 0 min 0,000 mm 0,0 UV-I 0 W/m 19,6 C 20,8 C 5,7 km/h 100,00 %
20.06.2021 02:56 20,8 C 93 % 1005,9 hPa 0,0 l/m 1,9 km/h O-SO 121 0 min 0,000 mm 0,0 UV-I 0 W/m 19,6 C 20,8 C 5,7 km/h 100,00 %
20.06.2021 02:55 20,8 C 93 % 1005,9 hPa 0,0 l/m 1,9 km/h O-SO 121 0 min 0,000 mm 0,0 UV-I 0 W/m 19,6 C 20,8 C 3,8 km/h 100,00 %
20.06.2021 02:54 20,8 C 93 % 1005,9 hPa 0,0 l/m 4,6 km/h O-SO 121 0 min 0,000 mm 0,0 UV-I 0 W/m 19,6 C 20,8 C 5,7 km/h 100,00 %
20.06.2021 02:53 20,8 C 93 % 1005,9 hPa 0,0 l/m 4,0 km/h O-SO 123 0 min 0,000 mm 0,0 UV-I 0 W/m 19,6 C 20,8 C 7,7 km/h 100,00 %
20.06.2021 02:52 20,8 C 93 % 1005,9 hPa 0,0 l/m 4,6 km/h O 85 0 min 0,000 mm 0,0 UV-I 0 W/m 19,6 C 20,8 C 7,7 km/h 100,00 %
20.06.2021 02:51 20,8 C 93 % 1005,9 hPa 0,0 l/m 4,7 km/h O-SO 110 0 min 0,000 mm 0,0 UV-I 0 W/m 19,6 C 20,8 C 7,7 km/h 100,00 %
20.06.2021 02:50 20,7 C 93 % 1006,0 hPa 0,0 l/m 2,2 km/h O 85 0 min 0,000 mm 0,0 UV-I 0 W/m 19,5 C 20,7 C 5,7 km/h 100,00 %
20.06.2021 02:49 20,7 C 93 % 1005,9 hPa 0,0 l/m 4,0 km/h O 83 0 min 0,000 mm 0,0 UV-I 0 W/m 19,5 C 20,7 C 9,6 km/h 100,00 %
20.06.2021 02:48 20,7 C 93 % 1005,9 hPa 0,0 l/m 4,4 km/h O 95 0 min 0,000 mm 0,0 UV-I 0 W/m 19,5 C 20,7 C 5,7 km/h 96,15 %
20.06.2021 02:47 20,7 C 93 % 1005,9 hPa 0,0 l/m 4,6 km/h O 96 0 min 0,000 mm 0,0 UV-I 0 W/m 19,5 C 20,7 C 7,7 km/h 100,00 %
20.06.2021 02:46 20,7 C 93 % 1005,8 hPa 0,0 l/m 6,1 km/h O 100 0 min 0,000 mm 0,0 UV-I 0 W/m 19,5 C 20,7 C 13,4 km/h 100,00 %
20.06.2021 02:45 20,7 C 93 % 1005,8 hPa 0,0 l/m 3,5 km/h O 92 0 min 0,000 mm 0,0 UV-I 0 W/m 19,5 C 20,7 C 5,7 km/h 100,00 %
20.06.2021 02:44 20,7 C 93 % 1005,8 hPa 0,0 l/m 5,4 km/h O 98 0 min 0,000 mm 0,0 UV-I 0 W/m 19,5 C 20,7 C 15,3 km/h 100,00 %
20.06.2021 02:43 20,6 C 93 % 1005,7 hPa 0,0 l/m 3,6 km/h O 88 0 min 0,000 mm 0,0 UV-I 0 W/m 19,4 C 20,6 C 9,6 km/h 100,00 %
20.06.2021 02:42 20,6 C 93 % 1005,7 hPa 0,0 l/m 4,1 km/h O-NO 73 0 min 0,000 mm 0,0 UV-I 0 W/m 19,4 C 20,6 C 9,6 km/h 85,71 %
20.06.2021 02:41 20,6 C 93 % 1005,8 hPa 0,0 l/m 2,6 km/h O 82 0 min 0,000 mm 0,0 UV-I 0 W/m 19,4 C 20,6 C 7,7 km/h 100,00 %
20.06.2021 02:40 20,6 C 93 % 1005,9 hPa 0,0 l/m 6,2 km/h O 88 0 min 0,000 mm 0,0 UV-I 0 W/m 19,4 C 20,6 C 7,7 km/h 100,00 %
20.06.2021 02:39 20,6 C 93 % 1005,9 hPa 0,0 l/m 7,5 km/h O 81 0 min 0,000 mm 0,0 UV-I 0 W/m 19,4 C 20,2 C 15,3 km/h 100,00 %
20.06.2021 02:38 20,6 C 93 % 1006,0 hPa 0,0 l/m 6,1 km/h O-SO 102 0 min 0,000 mm 0,0 UV-I 0 W/m 19,4 C 20,6 C 13,4 km/h 100,00 %
20.06.2021 02:37 20,6 C 93 % 1006,1 hPa 0,0 l/m 3,6 km/h O 80 0 min 0,000 mm 0,0 UV-I 0 W/m 19,4 C 20,6 C 7,7 km/h 100,00 %
20.06.2021 02:36 20,6 C 93 % 1006,2 hPa 0,0 l/m 3,3 km/h O 85 0 min 0,000 mm 0,0 UV-I 0 W/m 19,4 C 20,6 C 5,7 km/h 100,00 %
20.06.2021 02:35 20,6 C 93 % 1006,2 hPa 0,0 l/m 6,7 km/h O 81 0 min 0,000 mm 0,0 UV-I 0 W/m 19,4 C 20,5 C 13,4 km/h 100,00 %
20.06.2021 02:34 20,6 C 93 % 1006,2 hPa 0,0 l/m 10,4 km/h O-NO 73 0 min 0,000 mm 0,0 UV-I 0 W/m 19,4 C 19,2 C 17,2 km/h 100,00 %
20.06.2021 02:33 20,6 C 93 % 1006,2 hPa 0,0 l/m 5,2 km/h O-NO 72 0 min 0,000 mm 0,0 UV-I 0 W/m 19,4 C 20,6 C 11,5 km/h 100,00 %
20.06.2021 02:32 20,6 C 93 % 1006,2 hPa 0,0 l/m 3,7 km/h O 86 0 min 0,000 mm 0,0 UV-I 0 W/m 19,4 C 20,6 C 9,6 km/h 100,00 %
20.06.2021 02:31 20,6 C 93 % 1006,2 hPa 0,0 l/m 3,6 km/h O 88 0 min 0,000 mm 0,0 UV-I 0 W/m 19,4 C 20,6 C 5,7 km/h 100,00 %
20.06.2021 02:30 20,6 C 93 % 1006,3 hPa 0,0 l/m 7,2 km/h O 90 0 min 0,000 mm 0,0 UV-I 0 W/m 19,4 C 20,3 C 13,4 km/h 100,00 %
20.06.2021 02:29 20,6 C 93 % 1006,2 hPa 0,0 l/m 3,8 km/h O-NO 78 0 min 0,000 mm 0,0 UV-I 0 W/m 19,4 C 20,6 C 7,7 km/h 100,00 %
20.06.2021 02:28 20,6 C 93 % 1006,3 hPa 0,0 l/m 3,4 km/h O-NO 74 0 min 0,000 mm 0,0 UV-I 0 W/m 19,4 C 20,6 C 9,6 km/h 100,00 %
20.06.2021 02:27 20,6 C 93 % 1006,3 hPa 0,0 l/m 4,6 km/h O-NO 73 0 min 0,000 mm 0,0 UV-I 0 W/m 19,4 C 20,6 C 9,6 km/h 100,00 %
20.06.2021 02:26 20,6 C 93 % 1006,4 hPa 0,0 l/m 5,0 km/h O-NO 60 0 min 0,000 mm 0,0 UV-I 0 W/m 19,4 C 20,6 C 9,6 km/h 100,00 %
20.06.2021 02:25 20,6 C 93 % 1006,4 hPa 0,0 l/m 3,7 km/h O 99 0 min 0,000 mm 0,0 UV-I 0 W/m 19,4 C 20,6 C 7,7 km/h 96,15 %
20.06.2021 02:24 20,6 C 93 % 1006,4 hPa 0,0 l/m 7,8 km/h O-NO 75 0 min 0,000 mm 0,0 UV-I 0 W/m 19,4 C 20,1 C 13,4 km/h 100,00 %
20.06.2021 02:23 20,6 C 93 % 1006,5 hPa 0,0 l/m 8,3 km/h O-NO 73 0 min 0,000 mm 0,0 UV-I 0 W/m 19,4 C 19,9 C 15,3 km/h 100,00 %
20.06.2021 02:22 20,6 C 93 % 1006,5 hPa 0,0 l/m 7,0 km/h O 80 0 min 0,000 mm 0,0 UV-I 0 W/m 19,4 C 20,4 C 13,4 km/h 100,00 %
20.06.2021 02:21 20,6 C 93 % 1006,5 hPa 0,0 l/m 7,8 km/h NO 56 0 min 0,000 mm 0,0 UV-I 0 W/m 19,4 C 20,1 C 11,5 km/h 100,00 %
20.06.2021 02:20 20,6 C 93 % 1006,5 hPa 0,0 l/m 7,8 km/h O 99 0 min 0,000 mm 0,0 UV-I 0 W/m 19,4 C 20,1 C 13,4 km/h 100,00 %
20.06.2021 02:19 20,6 C 93 % 1006,5 hPa 0,0 l/m 11,8 km/h O-NO 74 0 min 0,000 mm 0,0 UV-I 0 W/m 19,4 C 18,8 C 17,2 km/h 100,00 %
20.06.2021 02:18 20,6 C 93 % 1006,5 hPa 0,0 l/m 10,3 km/h O-SO 107 0 min 0,000 mm 0,0 UV-I 0 W/m 19,4 C 19,2 C 15,3 km/h 100,00 %
20.06.2021 02:17 20,6 C 93 % 1006,5 hPa 0,0 l/m 10,2 km/h O 88 0 min 0,000 mm 0,0 UV-I 0 W/m 19,4 C 19,2 C 19,1 km/h 100,00 %
20.06.2021 02:16 20,6 C 93 % 1006,4 hPa 0,0 l/m 9,6 km/h O-NO 57 0 min 0,000 mm 0,0 UV-I 0 W/m 19,4 C 19,4 C 19,1 km/h 100,00 %
20.06.2021 02:15 20,7 C 93 % 1006,4 hPa 0,0 l/m 7,7 km/h O-SO 109 0 min 0,000 mm 0,0 UV-I 0 W/m 19,5 C 20,2 C 15,3 km/h 100,00 %
20.06.2021 02:14 20,6 C 93 % 1006,3 hPa 0,0 l/m 4,2 km/h O 86 0 min 0,000 mm 0,0 UV-I 0 W/m 19,4 C 20,6 C 5,7 km/h 96,30 %
20.06.2021 02:13 20,6 C 93 % 1006,4 hPa 0,0 l/m 3,7 km/h O 86 0 min 0,000 mm 0,0 UV-I 0 W/m 19,4 C 20,6 C 7,7 km/h 100,00 %
20.06.2021 02:12 20,7 C 93 % 1006,2 hPa 0,0 l/m 3,5 km/h O 86 0 min 0,000 mm 0,0 UV-I 0 W/m 19,5 C 20,7 C 9,6 km/h 91,67 %
20.06.2021 02:11 20,7 C 93 % 1006,2 hPa 0,0 l/m 5,4 km/h O 88 0 min 0,000 mm 0,0 UV-I 0 W/m 19,5 C 20,7 C 9,6 km/h 100,00 %
20.06.2021 02:10 20,7 C 93 % 1006,3 hPa 0,0 l/m 6,1 km/h O 88 0 min 0,000 mm 0,0 UV-I 0 W/m 19,5 C 20,7 C 11,5 km/h 96,67 %
20.06.2021 02:09 20,7 C 93 % 1006,4 hPa 0,0 l/m 4,8 km/h O-NO 78 0 min 0,000 mm 0,0 UV-I 0 W/m 19,5 C 20,7 C 11,5 km/h 100,00 %
20.06.2021 02:08 20,7 C 93 % 1006,4 hPa 0,0 l/m 7,4 km/h O 80 0 min 0,000 mm 0,0 UV-I 0 W/m 19,5 C 20,3 C 11,5 km/h 91,30 %
20.06.2021 02:07 20,7 C 93 % 1006,5 hPa 0,0 l/m 2,6 km/h O 91 0 min 0,000 mm 0,0 UV-I 0 W/m 19,5 C 20,7 C 5,7 km/h 95,83 %
20.06.2021 02:06 20,7 C 93 % 1006,4 hPa 0,0 l/m 3,2 km/h O 88 0 min 0,000 mm 0,0 UV-I 0 W/m 19,5 C 20,7 C 7,7 km/h 95,65 %
20.06.2021 02:05 20,7 C 93 % 1006,3 hPa 0,0 l/m 2,2 km/h O-SO 105 0 min 0,000 mm 0,0 UV-I 0 W/m 19,5 C 20,7 C 5,7 km/h 95,83 %
20.06.2021 02:04 20,7 C 93 % 1006,4 hPa 0,0 l/m 0,5 km/h O-SO 105 0 min 0,000 mm 0,0 UV-I 0 W/m 19,5 C 20,7 C 3,8 km/h 100,00 %
20.06.2021 02:03 20,7 C 93 % 1006,4 hPa 0,0 l/m 2,2 km/h O-SO 105 0 min 0,000 mm 0,0 UV-I 0 W/m 19,5 C 20,7 C 3,8 km/h 95,83 %
20.06.2021 02:02 20,7 C 93 % 1006,4 hPa 0,0 l/m 2,5 km/h O-SO 105 0 min 0,000 mm 0,0 UV-I 0 W/m 19,5 C 20,7 C 5,7 km/h 100,00 %
20.06.2021 02:01 20,7 C 93 % 1006,6 hPa 0,0 l/m 6,5 km/h O-SO 113 0 min 0,000 mm 0,0 UV-I 0 W/m 19,5 C 20,7 C 15,3 km/h 96,97 %
20.06.2021 02:00 20,8 C 93 % 1006,5 hPa 0,0 l/m 12,0 km/h O 98 0 min 0,000 mm 0,0 UV-I 0 W/m 19,6 C 19,0 C 15,3 km/h 100,00 %
20.06.2021 01:59 20,8 C 93 % 1006,5 hPa 0,0 l/m 8,0 km/h O-SO 114 0 min 0,000 mm 0,0 UV-I 0 W/m 19,6 C 20,2 C 13,4 km/h 91,67 %
20.06.2021 01:58 20,8 C 93 % 1006,4 hPa 0,0 l/m 5,5 km/h O-SO 103 0 min 0,000 mm 0,0 UV-I 0 W/m 19,6 C 20,8 C 11,5 km/h 100,00 %
20.06.2021 01:57 20,8 C 93 % 1006,3 hPa 0,0 l/m 6,6 km/h O-SO 106 0 min 0,000 mm 0,0 UV-I 0 W/m 19,6 C 20,7 C 11,5 km/h 96,30 %
20.06.2021 01:56 20,8 C 93 % 1006,3 hPa 0,0 l/m 8,4 km/h O-SO 102 0 min 0,000 mm 0,0 UV-I 0 W/m 19,6 C 20,0 C 13,4 km/h 91,30 %
20.06.2021 01:55 20,8 C 93 % 1006,2 hPa 0,0 l/m 6,2 km/h O 90 0 min 0,000 mm 0,0 UV-I 0 W/m 19,6 C 20,8 C 9,6 km/h 100,00 %
20.06.2021 01:54 20,8 C 93 % 1006,3 hPa 0,0 l/m 10,6 km/h O 89 0 min 0,000 mm 0,0 UV-I 0 W/m 19,6 C 19,3 C 17,2 km/h 83,33 %
20.06.2021 01:53 20,8 C 93 % 1006,3 hPa 0,0 l/m 5,8 km/h O 101 0 min 0,000 mm 0,0 UV-I 0 W/m 19,6 C 20,8 C 7,7 km/h 100,00 %
20.06.2021 01:52 20,9 C 92 % 1006,3 hPa 0,0 l/m 3,8 km/h O 92 0 min 0,000 mm 0,0 UV-I 0 W/m 19,5 C 20,9 C 5,7 km/h 96,30 %
20.06.2021 01:51 20,9 C 92 % 1006,3 hPa 0,0 l/m 3,1 km/h O-NO 57 0 min 0,000 mm 0,0 UV-I 0 W/m 19,5 C 20,9 C 9,6 km/h 95,65 %
20.06.2021 01:50 20,9 C 92 % 1006,3 hPa 0,0 l/m 1,9 km/h O 88 0 min 0,000 mm 0,0 UV-I 0 W/m 19,5 C 20,9 C 3,8 km/h 95,83 %
20.06.2021 01:49 20,9 C 92 % 1006,3 hPa 0,0 l/m 1,4 km/h NO 47 0 min 0,000 mm 0,0 UV-I 0 W/m 19,5 C 20,9 C 3,8 km/h 95,65 %
20.06.2021 01:48 20,8 C 92 % 1006,4 hPa 0,0 l/m 2,6 km/h NO 49 0 min 0,000 mm 0,0 UV-I 0 W/m 19,4 C 20,8 C 5,7 km/h 100,00 %
20.06.2021 01:47 20,8 C 92 % 1006,6 hPa 0,0 l/m 3,2 km/h O-NO 73 0 min 0,000 mm 0,0 UV-I 0 W/m 19,4 C 20,8 C 5,7 km/h 95,65 %
20.06.2021 01:46 20,8 C 92 % 1006,7 hPa 0,0 l/m 2,0 km/h O-NO 75 0 min 0,000 mm 0,0 UV-I 0 W/m 19,4 C 20,8 C 5,7 km/h 96,30 %
20.06.2021 01:45 20,8 C 92 % 1007,1 hPa 0,0 l/m 1,8 km/h O 82 0 min 0,000 mm 0,0 UV-I 0 W/m 19,4 C 20,8 C 3,8 km/h 90,91 %
20.06.2021 01:44 20,8 C 92 % 1007,1 hPa 0,0 l/m 4,9 km/h O 84 0 min 0,000 mm 0,0 UV-I 0 W/m 19,4 C 20,8 C 7,7 km/h 100,00 %
20.06.2021 01:43 20,8 C 92 % 1007,2 hPa 0,0 l/m 8,1 km/h O 96 0 min 0,000 mm 0,0 UV-I 0 W/m 19,4 C 20,2 C 11,5 km/h 96,15 %
20.06.2021 01:42 20,8 C 92 % 1007,3 hPa 0,0 l/m 9,4 km/h O 85 0 min 0,000 mm 0,0 UV-I 0 W/m 19,4 C 19,7 C 17,2 km/h 100,00 %
20.06.2021 01:41 20,8 C 92 % 1007,4 hPa 0,0 l/m 9,3 km/h O 92 0 min 0,000 mm 0,0 UV-I 0 W/m 19,4 C 19,7 C 13,4 km/h 82,35 %
20.06.2021 01:40 20,8 C 92 % 1007,5 hPa 0,0 l/m 10,0 km/h O-SO 106 0 min 0,000 mm 0,0 UV-I 0 W/m 19,4 C 19,5 C 13,4 km/h 100,00 %
20.06.2021 01:39 20,9 C 92 % 1007,4 hPa 0,0 l/m 8,0 km/h O-SO 102 0 min 0,000 mm 0,0 UV-I 0 W/m 19,5 C 20,3 C 15,3 km/h 95,65 %
20.06.2021 01:38 20,9 C 91 % 1007,3 hPa 0,0 l/m 6,9 km/h O 97 0 min 0,000 mm 0,0 UV-I 0 W/m 19,4 C 20,7 C 11,5 km/h 95,83 %
20.06.2021 01:37 20,9 C 91 % 1007,1 hPa 0,0 l/m 4,6 km/h O-NO 77 0 min 0,000 mm 0,0 UV-I 0 W/m 19,4 C 20,9 C 9,6 km/h 100,00 %
20.06.2021 01:36 20,9 C 91 % 1006,9 hPa 0,0 l/m 2,6 km/h O 94 0 min 0,000 mm 0,0 UV-I 0 W/m 19,4 C 20,9 C 5,7 km/h 91,67 %
20.06.2021 01:35 20,9 C 91 % 1006,9 hPa 0,0 l/m 2,5 km/h O 95 0 min 0,000 mm 0,0 UV-I 0 W/m 19,4 C 20,9 C 7,7 km/h 100,00 %
20.06.2021 01:34 20,9 C 91 % 1006,9 hPa 0,0 l/m 1,4 km/h O-SO 105 0 min 0,000 mm 0,0 UV-I 0 W/m 19,4 C 20,9 C 3,8 km/h 91,30 %
20.06.2021 01:33 20,9 C 91 % 1006,9 hPa 0,0 l/m 2,6 km/h NO 54 0 min 0,000 mm 0,0 UV-I 0 W/m 19,4 C 20,9 C 5,7 km/h 95,83 %
20.06.2021 01:32 20,9 C 91 % 1006,9 hPa 0,0 l/m 2,9 km/h O-NO 60 0 min 0,000 mm 0,0 UV-I 0 W/m 19,4 C 20,9 C 5,7 km/h 95,65 %
20.06.2021 01:31 20,9 C 91 % 1006,9 hPa 0,0 l/m 3,6 km/h NO 36 0 min 0,000 mm 0,0 UV-I 0 W/m 19,4 C 20,9 C 5,7 km/h 100,00 %
20.06.2021 01:30 21,0 C 91 % 1006,9 hPa 0,0 l/m 7,3 km/h N-NO 17 0 min 0,000 mm 0,0 UV-I 0 W/m 19,5 C 20,7 C 21,0 km/h 96,55 %
20.06.2021 01:29 21,0 C 91 % 1007,0 hPa 0,0 l/m 2,9 km/h O 94 0 min 0,000 mm 0,0 UV-I 0 W/m 19,5 C 21,0 C 5,7 km/h 96,67 %
20.06.2021 01:28 21,1 C 91 % 1007,1 hPa 0,2 l/m 3,7 km/h NO 55 0 min 0,000 mm 0,0 UV-I 0 W/m 19,6 C 21,1 C 9,6 km/h 100,00 %
20.06.2021 01:27 21,1 C 91 % 1007,1 hPa 0,0 l/m 2,1 km/h NO 55 0 min 0,000 mm 0,0 UV-I 0 W/m 19,6 C 21,1 C 3,8 km/h 96,67 %
20.06.2021 01:26 21,1 C 91 % 1007,1 hPa 0,0 l/m 6,6 km/h O 83 0 min 0,000 mm 0,0 UV-I 0 W/m 19,6 C 21,0 C 13,4 km/h 100,00 %
20.06.2021 01:25 21,1 C 91 % 1007,3 hPa 0,0 l/m 6,4 km/h O-NO 71 0 min 0,000 mm 0,0 UV-I 0 W/m 19,6 C 21,1 C 9,6 km/h 92,59 %
20.06.2021 01:24 21,2 C 91 % 1007,3 hPa 0,0 l/m 4,8 km/h O 88 0 min 0,000 mm 0,0 UV-I 0 W/m 19,7 C 21,2 C 7,7 km/h 100,00 %
20.06.2021 01:23 21,2 C 91 % 1007,3 hPa 0,0 l/m 3,7 km/h O-SO 109 0 min 0,000 mm 0,0 UV-I 0 W/m 19,7 C 21,2 C 11,5 km/h 96,30 %
20.06.2021 01:22 21,3 C 91 % 1007,3 hPa 0,0 l/m 5,3 km/h O-NO 70 0 min 0,000 mm 0,0 UV-I 0 W/m 19,8 C 21,3 C 17,2 km/h 90,91 %
20.06.2021 01:21 21,3 C 91 % 1007,3 hPa 0,2 l/m 2,2 km/h O-NO 70 0 min 0,000 mm 0,0 UV-I 0 W/m 19,8 C 21,3 C 5,7 km/h 92,59 %
20.06.2021 01:20 21,3 C 90 % 1007,3 hPa 0,0 l/m 0,6 km/h O-NO 70 0 min 0,000 mm 0,0 UV-I 0 W/m 19,6 C 21,3 C 1,9 km/h 95,65 %
20.06.2021 01:19 21,3 C 90 % 1007,4 hPa 0,2 l/m 3,1 km/h O-NO 70 0 min 0,000 mm 0,0 UV-I 0 W/m 19,6 C 21,3 C 5,7 km/h 100,00 %
20.06.2021 01:18 21,3 C 90 % 1007,5 hPa 0,0 l/m 2,0 km/h O-NO 71 0 min 0,000 mm 0,0 UV-I 0 W/m 19,6 C 21,3 C 5,7 km/h 91,30 %
20.06.2021 01:17 21,3 C 90 % 1007,5 hPa 0,0 l/m 0,6 km/h O 89 0 min 0,000 mm 0,0 UV-I 0 W/m 19,6 C 21,3 C 3,8 km/h 100,00 %
20.06.2021 01:16 21,3 C 90 % 1007,6 hPa 0,2 l/m 3,3 km/h O 89 0 min 0,000 mm 0,0 UV-I 0 W/m 19,6 C 21,3 C 7,7 km/h 95,83 %
20.06.2021 01:15 21,3 C 90 % 1007,7 hPa 0,0 l/m 2,2 km/h O-NO 76 0 min 0,000 mm 0,0 UV-I 0 W/m 19,6 C 21,3 C 5,7 km/h 95,65 %
20.06.2021 01:14 21,4 C 90 % 1007,7 hPa 0,0 l/m 1,5 km/h NO 38 0 min 0,000 mm 0,0 UV-I 0 W/m 19,7 C 21,4 C 5,7 km/h 96,00 %
20.06.2021 01:13 21,4 C 90 % 1007,9 hPa 0,2 l/m 3,7 km/h NO 53 0 min 0,000 mm 0,0 UV-I 0 W/m 19,7 C 21,4 C 7,7 km/h 95,83 %
20.06.2021 01:12 21,4 C 90 % 1007,9 hPa 0,0 l/m 2,6 km/h NO 45 0 min 0,000 mm 0,0 UV-I 0 W/m 19,7 C 21,4 C 7,7 km/h 100,00 %
20.06.2021 01:11 21,5 C 90 % 1008,0 hPa 0,0 l/m 2,3 km/h O-NO 74 0 min 0,000 mm 0,0 UV-I 0 W/m 19,8 C 21,5 C 5,7 km/h 92,86 %
20.06.2021 01:10 21,6 C 90 % 1008,1 hPa 0,2 l/m 3,9 km/h O-NO 65 0 min 0,000 mm 0,0 UV-I 0 W/m 19,9 C 21,6 C 9,6 km/h 100,00 %
20.06.2021 01:09 21,7 C 90 % 1008,2 hPa 0,0 l/m 1,9 km/h NO 44 0 min 0,000 mm 0,0 UV-I 0 W/m 20,0 C 21,7 C 7,7 km/h 95,65 %
20.06.2021 01:08 21,7 C 90 % 1008,3 hPa 0,2 l/m 2,6 km/h NO 37 0 min 0,000 mm 0,0 UV-I 0 W/m 20,0 C 21,7 C 7,7 km/h 100,00 %
20.06.2021 01:07 21,7 C 90 % 1008,5 hPa 0,0 l/m 0,9 km/h SW 223 0 min 0,000 mm 0,0 UV-I 0 W/m 20,0 C 21,7 C 3,8 km/h 91,30 %
20.06.2021 01:06 21,7 C 90 % 1008,6 hPa 0,0 l/m 1,4 km/h SW 224 0 min 0,000 mm 0,0 UV-I 0 W/m 20,0 C 21,7 C 1,9 km/h 100,00 %
20.06.2021 01:05 21,7 C 90 % 1008,7 hPa 0,2 l/m 1,0 km/h SW 224 0 min 0,000 mm 0,0 UV-I 0 W/m 20,0 C 21,7 C 1,9 km/h 96,15 %
20.06.2021 01:04 21,7 C 90 % 1008,8 hPa 0,0 l/m 0,3 km/h SW 224 0 min 0,000 mm 0,0 UV-I 0 W/m 20,0 C 21,7 C 1,9 km/h 95,83 %
20.06.2021 01:03 21,7 C 90 % 1008,8 hPa 0,0 l/m 0,5 km/h SW 224 0 min 0,000 mm 0,0 UV-I 0 W/m 20,0 C 21,7 C 1,9 km/h 100,00 %
20.06.2021 01:02 21,7 C 89 % 1008,9 hPa 0,2 l/m 0,0 km/h SW 224 0 min 0,000 mm 0,0 UV-I 0 W/m 19,8 C 21,7 C 0,0 km/h 97,92 %
20.06.2021 01:00 21,7 C 89 % 1009,2 hPa 0,0 l/m 0,0 km/h SW 224 0 min 0,025 mm 0,0 UV-I 0 W/m 19,8 C 21,7 C 0,0 km/h 95,65 %
20.06.2021 00:59 21,7 C 89 % 1009,2 hPa 0,2 l/m 0,1 km/h SW 224 0 min 0,000 mm 0,0 UV-I 0 W/m 19,8 C 21,7 C 1,9 km/h 100,00 %
20.06.2021 00:58 21,8 C 89 % 1009,3 hPa 0,0 l/m 0,3 km/h SW 224 0 min 0,000 mm 0,0 UV-I 0 W/m 19,9 C 21,8 C 1,9 km/h 95,65 %
20.06.2021 00:57 21,8 C 89 % 1009,4 hPa 0,2 l/m 2,5 km/h SW 224 0 min 0,000 mm 0,0 UV-I 0 W/m 19,9 C 21,8 C 5,7 km/h 100,00 %
20.06.2021 00:56 21,8 C 89 % 1009,5 hPa 0,0 l/m 4,6 km/h W-SW 254 0 min 0,000 mm 0,0 UV-I 0 W/m 19,9 C 21,8 C 9,6 km/h 100,00 %
20.06.2021 00:55 21,8 C 89 % 1009,5 hPa 0,0 l/m 3,9 km/h S-SO 152 0 min 0,000 mm 0,0 UV-I 0 W/m 19,9 C 21,8 C 5,7 km/h 100,00 %
20.06.2021 00:54 21,9 C 88 % 1009,5 hPa 0,2 l/m 4,6 km/h S-SO 151 0 min 0,000 mm 0,0 UV-I 0 W/m 19,8 C 21,9 C 7,7 km/h 100,00 %
20.06.2021 00:53 21,9 C 88 % 1009,5 hPa 0,0 l/m 3,3 km/h SW 215 0 min 0,000 mm 0,0 UV-I 0 W/m 19,8 C 21,9 C 5,7 km/h 100,00 %
20.06.2021 00:52 22,1 C 88 % 1009,5 hPa 0,2 l/m 2,6 km/h SW 217 0 min 0,000 mm 0,0 UV-I 0 W/m 20,0 C 22,1 C 5,7 km/h 95,65 %
20.06.2021 00:51 22,1 C 88 % 1009,4 hPa 0,0 l/m 4,2 km/h SW 217 0 min 0,000 mm 0,0 UV-I 0 W/m 20,0 C 22,1 C 7,7 km/h 100,00 %
20.06.2021 00:50 22,1 C 88 % 1009,3 hPa 0,0 l/m 4,9 km/h S 179 0 min 0,000 mm 0,0 UV-I 0 W/m 20,0 C 22,1 C 5,7 km/h 100,00 %
20.06.2021 00:49 22,1 C 88 % 1009,3 hPa 0,0 l/m 3,4 km/h S 178 0 min 0,000 mm 0,0 UV-I 0 W/m 20,0 C 22,1 C 5,7 km/h 95,83 %
20.06.2021 00:48 22,1 C 88 % 1009,2 hPa 0,2 l/m 4,3 km/h S 171 0 min 0,000 mm 0,0 UV-I 0 W/m 20,0 C 22,1 C 7,7 km/h 100,00 %
20.06.2021 00:47 22,1 C 87 % 1009,2 hPa 0,2 l/m 3,1 km/h S 171 0 min 0,000 mm 0,0 UV-I 0 W/m 19,8 C 22,1 C 7,7 km/h 100,00 %
20.06.2021 00:46 22,1 C 87 % 1009,1 hPa 0,0 l/m 3,6 km/h S 169 0 min 0,000 mm 0,0 UV-I 0 W/m 19,8 C 22,1 C 7,7 km/h 100,00 %
20.06.2021 00:45 22,2 C 87 % 1009,0 hPa 0,2 l/m 3,6 km/h SO 142 0 min 0,000 mm 0,0 UV-I 0 W/m 19,9 C 22,2 C 5,7 km/h 100,00 %
20.06.2021 00:44 22,2 C 87 % 1008,8 hPa 0,0 l/m 2,1 km/h SO 140 0 min 0,000 mm 0,0 UV-I 0 W/m 19,9 C 22,2 C 3,8 km/h 91,30 %
20.06.2021 00:43 22,2 C 87 % 1008,8 hPa 0,0 l/m 0,7 km/h O 84 0 min 0,000 mm 0,0 UV-I 0 W/m 19,9 C 22,2 C 3,8 km/h 100,00 %
20.06.2021 00:42 22,2 C 87 % 1008,7 hPa 0,0 l/m 0,0 km/h O 83 0 min 0,000 mm 0,0 UV-I 0 W/m 19,9 C 22,2 C 0,0 km/h 96,55 %
20.06.2021 00:41 22,2 C 87 % 1008,6 hPa 0,0 l/m 1,8 km/h O 83 0 min 0,000 mm 0,0 UV-I 0 W/m 19,9 C 22,2 C 3,8 km/h 100,00 %
20.06.2021 00:40 22,2 C 87 % 1008,6 hPa 0,0 l/m 0,1 km/h O 83 0 min 0,000 mm 0,0 UV-I 0 W/m 19,9 C 22,2 C 1,9 km/h 100,00 %
20.06.2021 00:39 22,2 C 87 % 1008,6 hPa 0,2 l/m 0,0 km/h O 83 0 min 0,000 mm 0,0 UV-I 0 W/m 19,9 C 22,2 C 0,0 km/h 100,00 %
20.06.2021 00:38 22,3 C 87 % 1008,6 hPa 0,0 l/m 0,0 km/h O 83 0 min 0,000 mm 0,0 UV-I 0 W/m 20,0 C 22,3 C 0,0 km/h 100,00 %
20.06.2021 00:37 22,3 C 87 % 1008,5 hPa 0,0 l/m 0,5 km/h O 83 0 min 0,000 mm 0,0 UV-I 0 W/m 20,0 C 22,3 C 1,9 km/h 100,00 %
20.06.2021 00:36 22,3 C 87 % 1008,5 hPa 0,0 l/m 0,1 km/h O 83 0 min 0,000 mm 0,0 UV-I 0 W/m 20,0 C 22,3 C 1,9 km/h 100,00 %
20.06.2021 00:35 22,3 C 86 % 1008,5 hPa 0,0 l/m 0,0 km/h O 83 0 min 0,000 mm 0,0 UV-I 0 W/m 19,8 C 22,3 C 0,0 km/h 91,30 %
20.06.2021 00:34 22,3 C 86 % 1008,5 hPa 0,0 l/m 0,0 km/h O 83 0 min 0,000 mm 0,0 UV-I 0 W/m 19,8 C 22,3 C 0,0 km/h 100,00 %
20.06.2021 00:33 22,3 C 86 % 1008,5 hPa 0,0 l/m 0,2 km/h O 83 0 min 0,000 mm 0,0 UV-I 0 W/m 19,8 C 22,3 C 1,9 km/h 100,00 %
20.06.2021 00:32 22,3 C 86 % 1008,5 hPa 0,0 l/m 1,0 km/h O 83 0 min 0,000 mm 0,0 UV-I 0 W/m 19,8 C 22,3 C 1,9 km/h 100,00 %
20.06.2021 00:31 22,4 C 86 % 1008,4 hPa 0,0 l/m 0,8 km/h O 83 0 min 0,000 mm 0,0 UV-I 0 W/m 19,9 C 22,4 C 3,8 km/h 95,65 %
20.06.2021 00:30 22,4 C 86 % 1008,3 hPa 0,0 l/m 1,8 km/h O 83 0 min 0,000 mm 0,0 UV-I 0 W/m 19,9 C 22,4 C 7,7 km/h 95,83 %
20.06.2021 00:29 22,4 C 86 % 1008,3 hPa 0,0 l/m 0,2 km/h O 86 0 min 0,000 mm 0,0 UV-I 0 W/m 19,9 C 22,4 C 1,9 km/h 100,00 %
20.06.2021 00:28 22,4 C 86 % 1008,3 hPa 0,0 l/m 0,1 km/h O 86 0 min 0,000 mm 0,0 UV-I 0 W/m 19,9 C 22,4 C 1,9 km/h 100,00 %
20.06.2021 00:27 22,4 C 86 % 1008,4 hPa 0,0 l/m 0,1 km/h O 86 0 min 0,000 mm 0,0 UV-I 0 W/m 19,9 C 22,4 C 1,9 km/h 95,65 %
20.06.2021 00:26 22,5 C 86 % 1008,5 hPa 0,0 l/m 0,2 km/h O 86 0 min 0,000 mm 0,0 UV-I 0 W/m 20,0 C 22,5 C 1,9 km/h 100,00 %
20.06.2021 00:25 22,5 C 86 % 1008,5 hPa 0,0 l/m 0,3 km/h O 86 0 min 0,000 mm 0,0 UV-I 0 W/m 20,0 C 22,5 C 1,9 km/h 100,00 %
20.06.2021 00:24 22,6 C 85 % 1008,6 hPa 0,0 l/m 0,5 km/h O 86 0 min 0,000 mm 0,0 UV-I 0 W/m 19,9 C 22,6 C 3,8 km/h 96,30 %
20.06.2021 00:23 22,6 C 85 % 1008,7 hPa 0,0 l/m 2,7 km/h O 86 0 min 0,000 mm 0,0 UV-I 0 W/m 19,9 C 22,6 C 3,8 km/h 100,00 %
20.06.2021 00:22 22,7 C 85 % 1008,7 hPa 0,0 l/m 3,1 km/h O 86 0 min 0,000 mm 0,0 UV-I 0 W/m 20,0 C 22,7 C 3,8 km/h 100,00 %
20.06.2021 00:21 22,7 C 85 % 1008,7 hPa 0,0 l/m 1,8 km/h O 80 0 min 0,000 mm 0,0 UV-I 0 W/m 20,0 C 22,7 C 3,8 km/h 100,00 %
20.06.2021 00:20 22,7 C 85 % 1008,7 hPa 0,0 l/m 0,5 km/h O-NO 77 0 min 0,000 mm 0,0 UV-I 0 W/m 20,0 C 22,7 C 1,9 km/h 100,00 %
20.06.2021 00:19 22,8 C 85 % 1008,7 hPa 0,0 l/m 2,0 km/h O-NO 77 0 min 0,000 mm 0,0 UV-I 0 W/m 20,1 C 22,8 C 3,8 km/h 100,00 %
20.06.2021 00:18 22,8 C 85 % 1008,7 hPa 0,2 l/m 2,7 km/h O-NO 77 0 min 0,000 mm 0,0 UV-I 0 W/m 20,1 C 22,8 C 3,8 km/h 100,00 %
20.06.2021 00:17 22,8 C 85 % 1008,6 hPa 0,0 l/m 1,1 km/h O-NO 77 0 min 0,000 mm 0,0 UV-I 0 W/m 20,1 C 22,8 C 3,8 km/h 100,00 %
20.06.2021 00:16 22,8 C 85 % 1008,6 hPa 0,0 l/m 0,1 km/h O-NO 65 0 min 0,000 mm 0,0 UV-I 0 W/m 20,1 C 22,8 C 1,9 km/h 92,31 %
20.06.2021 00:15 22,8 C 85 % 1008,6 hPa 0,0 l/m 0,2 km/h O-NO 65 0 min 0,000 mm 0,0 UV-I 0 W/m 20,1 C 22,8 C 1,9 km/h 100,00 %
20.06.2021 00:14 22,8 C 84 % 1008,5 hPa 0,0 l/m 0,0 km/h O-NO 65 0 min 0,000 mm 0,0 UV-I 0 W/m 19,9 C 22,8 C 0,0 km/h 100,00 %
20.06.2021 00:13 22,8 C 84 % 1008,5 hPa 0,0 l/m 0,0 km/h O-NO 65 0 min 0,000 mm 0,0 UV-I 0 W/m 19,9 C 22,8 C 0,0 km/h 100,00 %
20.06.2021 00:12 22,8 C 84 % 1008,5 hPa 0,0 l/m 0,1 km/h O-NO 65 0 min 0,000 mm 0,0 UV-I 0 W/m 19,9 C 22,8 C 1,9 km/h 100,00 %
20.06.2021 00:11 22,8 C 83 % 1008,6 hPa 0,0 l/m 3,2 km/h O-NO 65 0 min 0,000 mm 0,0 UV-I 0 W/m 19,8 C 22,8 C 5,7 km/h 100,00 %
20.06.2021 00:10 22,9 C 83 % 1008,6 hPa 0,2 l/m 0,5 km/h N-NO 17 0 min 0,000 mm 0,0 UV-I 0 W/m 19,9 C 22,9 C 3,8 km/h 92,31 %
20.06.2021 00:09 22,9 C 83 % 1008,6 hPa 0,0 l/m 1,1 km/h N-NO 17 0 min 0,000 mm 0,0 UV-I 0 W/m 19,9 C 22,9 C 1,9 km/h 100,00 %
20.06.2021 00:08 22,9 C 83 % 1008,6 hPa 0,0 l/m 0,3 km/h N-NO 17 0 min 0,000 mm 0,0 UV-I 0 W/m 19,9 C 22,9 C 1,9 km/h 100,00 %
20.06.2021 00:07 22,9 C 83 % 1008,5 hPa 0,0 l/m 0,1 km/h N-NO 17 0 min 0,000 mm 0,0 UV-I 0 W/m 19,9 C 22,9 C 1,9 km/h 100,00 %
20.06.2021 00:06 23,0 C 83 % 1008,4 hPa 0,2 l/m 0,8 km/h N-NO 17 0 min 0,000 mm 0,0 UV-I 0 W/m 20,0 C 23,0 C 1,9 km/h 90,91 %
20.06.2021 00:05 23,0 C 82 % 1008,4 hPa 0,0 l/m 1,1 km/h N-NO 17 0 min 0,000 mm 0,0 UV-I 0 W/m 19,8 C 23,0 C 3,8 km/h 100,00 %
20.06.2021 00:04 23,0 C 82 % 1008,4 hPa 0,0 l/m 3,4 km/h N-NO 17 0 min 0,000 mm 0,0 UV-I 0 W/m 19,8 C 23,0 C 7,7 km/h 100,00 %
20.06.2021 00:03 23,1 C 82 % 1008,3 hPa 0,2 l/m 4,9 km/h N-NO 17 0 min 0,000 mm 0,0 UV-I 0 W/m 19,9 C 23,1 C 7,7 km/h 100,00 %
20.06.2021 00:02 23,1 C 82 % 1008,3 hPa 0,0 l/m 0,0 km/h NO 37 0 min 0,000 mm 0,0 UV-I 0 W/m 19,9 C 23,1 C 0,0 km/h 100,00 %
20.06.2021 00:01 23,2 C 81 % 1008,4 hPa 0,0 l/m 0,0 km/h NO 37 0 min 0,000 mm 0,0 UV-I 0 W/m 19,8 C 23,2 C 0,0 km/h 100,00 %
20.06.2021 00:00 23,2 C 81 % 1008,3 hPa 0,0 l/m 0,9 km/h NO 37 0 min 0,000 mm 0,0 UV-I 0 W/m 19,8 C 23,2 C 1,9 km/h 100,00 %
_ Min-Zeit 06:22 18:53 04:11 - 00:01 - - - - - - 20:06 05:05 00:01 01:41
Minimum _ 20,2 C 51 % 1004,7 hPa - 0,0 km/h - - - - - - 14,8 C 16,0 C 0,0 km/h 82,35 %
_ Max-Zeit 16:00 03:08 00:52 00:03 05:05 - - 08:17 13:01 13:06 13:07 00:15 16:02 10:29 00:00
Maximum _ 26,5 C 94 % 1009,5 hPa 0,2 l/m 24,4 km/h
SO
- - 1 min 0,584 mm 6,0 UV-I 1164 W/m 20,1 C 26,5 C 38,3 km/h
SW
100,00 %
Durchschnitt _ 23,1 C 71 % 1007,3 hPa #4,2 l/m 7,8 km/h S - #8:15 h #4,496 mm 2,7 UV-I 374 W/m 17,3 C 22,4 C 13,0 km/h 98,82 %